<?xml version="1.0" encoding="UTF-8" standalone="no" ?>
<gpx xmlns="http://www.topografix.com/GPX/1/1" xmlns:xsi="http://www.w3.org/2001/XMLSchema-instance" xsi:schemaLocation="http://www.topografix.com/GPX/1/1 http://www.topografix.com/GPX/1/1/gpx.xsd" version="1.1" creator="VisuGPX - https://www.visugpx.com">
  <metadata>
    <name>ST HERBLAIN : TILLAY - BOIS JO</name>
    <desc><![CDATA[Balade roulante mais atypique.
Bois Jo optimisable si il était correctement entretenu.
]]></desc>
  </metadata>
  <trk>
    <name><![CDATA[St Herblain - Bois Jo - 2013-08-22]]></name>
    <trkseg>
      <trkpt lat="47.23084" lon="-1.60619">
        <ele>45.97829</ele>
        <time>2013-08-22T09:12:52Z</time>
      </trkpt>
      <trkpt lat="47.23084" lon="-1.60619">
        <ele>44.165584</ele>
        <time>2013-08-22T09:12:53Z</time>
      </trkpt>
      <trkpt lat="47.23084" lon="-1.60619">
        <ele>44.1</ele>
        <time>2013-08-22T09:12:53Z</time>
      </trkpt>
      <trkpt lat="47.2308" lon="-1.60643">
        <ele>37.2</ele>
        <time>2013-08-22T09:13:08Z</time>
      </trkpt>
      <trkpt lat="47.23076" lon="-1.60655">
        <ele>37.1</ele>
        <time>2013-08-22T09:22:20Z</time>
      </trkpt>
      <trkpt lat="47.23076" lon="-1.60655">
        <ele>37.1</ele>
        <time>2013-08-22T09:22:20Z</time>
      </trkpt>
      <trkpt lat="47.23075" lon="-1.60669">
        <ele>37.5</ele>
        <time>2013-08-22T09:24:01Z</time>
      </trkpt>
      <trkpt lat="47.23075" lon="-1.60669">
        <ele>37.5</ele>
        <time>2013-08-22T09:24:01Z</time>
      </trkpt>
      <trkpt lat="47.23071" lon="-1.60682">
        <ele>36.6</ele>
        <time>2013-08-22T09:24:51Z</time>
      </trkpt>
      <trkpt lat="47.2307" lon="-1.60697">
        <ele>36.2</ele>
        <time>2013-08-22T09:24:56Z</time>
      </trkpt>
      <trkpt lat="47.23072" lon="-1.60711">
        <ele>36</ele>
        <time>2013-08-22T09:25:01Z</time>
      </trkpt>
      <trkpt lat="47.23075" lon="-1.60724">
        <ele>36.1</ele>
        <time>2013-08-22T09:25:06Z</time>
      </trkpt>
      <trkpt lat="47.23075" lon="-1.60724">
        <ele>36.1</ele>
        <time>2013-08-22T09:25:06Z</time>
      </trkpt>
      <trkpt lat="47.23077" lon="-1.60739">
        <ele>36.3</ele>
        <time>2013-08-22T09:25:12Z</time>
      </trkpt>
      <trkpt lat="47.23084" lon="-1.60749">
        <ele>36.3</ele>
        <time>2013-08-22T09:25:19Z</time>
      </trkpt>
      <trkpt lat="47.23093" lon="-1.60743">
        <ele>36.4</ele>
        <time>2013-08-22T09:25:37Z</time>
      </trkpt>
      <trkpt lat="47.23101" lon="-1.60735">
        <ele>36.6</ele>
        <time>2013-08-22T09:25:41Z</time>
      </trkpt>
      <trkpt lat="47.23109" lon="-1.6073">
        <ele>36.6</ele>
        <time>2013-08-22T09:25:45Z</time>
      </trkpt>
      <trkpt lat="47.23117" lon="-1.6074">
        <ele>36.5</ele>
        <time>2013-08-22T09:25:49Z</time>
      </trkpt>
      <trkpt lat="47.23122" lon="-1.60754">
        <ele>36.5</ele>
        <time>2013-08-22T09:25:53Z</time>
      </trkpt>
      <trkpt lat="47.23127" lon="-1.60769">
        <ele>36.5</ele>
        <time>2013-08-22T09:25:57Z</time>
      </trkpt>
      <trkpt lat="47.23132" lon="-1.60783">
        <ele>36.5</ele>
        <time>2013-08-22T09:26:01Z</time>
      </trkpt>
      <trkpt lat="47.23138" lon="-1.60798">
        <ele>36.5</ele>
        <time>2013-08-22T09:26:05Z</time>
      </trkpt>
      <trkpt lat="47.23143" lon="-1.60814">
        <ele>36.5</ele>
        <time>2013-08-22T09:26:09Z</time>
      </trkpt>
      <trkpt lat="47.23143" lon="-1.60814">
        <ele>36.5</ele>
        <time>2013-08-22T09:26:09Z</time>
      </trkpt>
      <trkpt lat="47.23147" lon="-1.60826">
        <ele>36.6</ele>
        <time>2013-08-22T09:26:12Z</time>
      </trkpt>
      <trkpt lat="47.23152" lon="-1.60839">
        <ele>36.7</ele>
        <time>2013-08-22T09:26:15Z</time>
      </trkpt>
      <trkpt lat="47.23157" lon="-1.60853">
        <ele>36.9</ele>
        <time>2013-08-22T09:26:18Z</time>
      </trkpt>
      <trkpt lat="47.23162" lon="-1.60867">
        <ele>37.1</ele>
        <time>2013-08-22T09:26:21Z</time>
      </trkpt>
      <trkpt lat="47.23166" lon="-1.60879">
        <ele>37.3</ele>
        <time>2013-08-22T09:26:24Z</time>
      </trkpt>
      <trkpt lat="47.23172" lon="-1.60892">
        <ele>37.5</ele>
        <time>2013-08-22T09:26:27Z</time>
      </trkpt>
      <trkpt lat="47.23177" lon="-1.60904">
        <ele>37.7</ele>
        <time>2013-08-22T09:26:30Z</time>
      </trkpt>
      <trkpt lat="47.23183" lon="-1.60917">
        <ele>37.8</ele>
        <time>2013-08-22T09:26:34Z</time>
      </trkpt>
      <trkpt lat="47.23189" lon="-1.60928">
        <ele>37.9</ele>
        <time>2013-08-22T09:26:37Z</time>
      </trkpt>
      <trkpt lat="47.23194" lon="-1.60941">
        <ele>38</ele>
        <time>2013-08-22T09:26:40Z</time>
      </trkpt>
      <trkpt lat="47.232" lon="-1.60953">
        <ele>38.1</ele>
        <time>2013-08-22T09:26:43Z</time>
      </trkpt>
      <trkpt lat="47.23206" lon="-1.60965">
        <ele>38.1</ele>
        <time>2013-08-22T09:26:46Z</time>
      </trkpt>
      <trkpt lat="47.23212" lon="-1.60976">
        <ele>38.1</ele>
        <time>2013-08-22T09:26:49Z</time>
      </trkpt>
      <trkpt lat="47.23218" lon="-1.60989">
        <ele>38.1</ele>
        <time>2013-08-22T09:26:52Z</time>
      </trkpt>
      <trkpt lat="47.23222" lon="-1.61004">
        <ele>38</ele>
        <time>2013-08-22T09:26:55Z</time>
      </trkpt>
      <trkpt lat="47.23222" lon="-1.61023">
        <ele>37.8</ele>
        <time>2013-08-22T09:26:58Z</time>
      </trkpt>
      <trkpt lat="47.23218" lon="-1.6104">
        <ele>37.6</ele>
        <time>2013-08-22T09:27:01Z</time>
      </trkpt>
      <trkpt lat="47.23212" lon="-1.61055">
        <ele>37.3</ele>
        <time>2013-08-22T09:27:04Z</time>
      </trkpt>
      <trkpt lat="47.23206" lon="-1.61068">
        <ele>36.1</ele>
        <time>2013-08-22T09:27:07Z</time>
      </trkpt>
      <trkpt lat="47.23198" lon="-1.61082">
        <ele>35.9</ele>
        <time>2013-08-22T09:27:10Z</time>
      </trkpt>
      <trkpt lat="47.23188" lon="-1.61092">
        <ele>35</ele>
        <time>2013-08-22T09:27:13Z</time>
      </trkpt>
      <trkpt lat="47.23177" lon="-1.61099">
        <ele>34.6</ele>
        <time>2013-08-22T09:27:16Z</time>
      </trkpt>
      <trkpt lat="47.23167" lon="-1.61106">
        <ele>34.2</ele>
        <time>2013-08-22T09:27:19Z</time>
      </trkpt>
      <trkpt lat="47.23156" lon="-1.61115">
        <ele>30.8</ele>
        <time>2013-08-22T09:27:22Z</time>
      </trkpt>
      <trkpt lat="47.23145" lon="-1.61124">
        <ele>29.6</ele>
        <time>2013-08-22T09:27:25Z</time>
      </trkpt>
      <trkpt lat="47.23135" lon="-1.61129">
        <ele>29.4</ele>
        <time>2013-08-22T09:27:28Z</time>
      </trkpt>
      <trkpt lat="47.23125" lon="-1.61134">
        <ele>29.3</ele>
        <time>2013-08-22T09:27:31Z</time>
      </trkpt>
      <trkpt lat="47.23115" lon="-1.61137">
        <ele>29.5</ele>
        <time>2013-08-22T09:27:35Z</time>
      </trkpt>
      <trkpt lat="47.23106" lon="-1.61141">
        <ele>29.9</ele>
        <time>2013-08-22T09:27:38Z</time>
      </trkpt>
      <trkpt lat="47.23096" lon="-1.61147">
        <ele>30.1</ele>
        <time>2013-08-22T09:27:41Z</time>
      </trkpt>
      <trkpt lat="47.23087" lon="-1.61154">
        <ele>30.2</ele>
        <time>2013-08-22T09:27:45Z</time>
      </trkpt>
      <trkpt lat="47.23076" lon="-1.61158">
        <ele>30.2</ele>
        <time>2013-08-22T09:27:49Z</time>
      </trkpt>
      <trkpt lat="47.23066" lon="-1.61164">
        <ele>30.1</ele>
        <time>2013-08-22T09:27:52Z</time>
      </trkpt>
      <trkpt lat="47.23056" lon="-1.61162">
        <ele>30.1</ele>
        <time>2013-08-22T09:27:57Z</time>
      </trkpt>
      <trkpt lat="47.23047" lon="-1.61155">
        <ele>30.2</ele>
        <time>2013-08-22T09:28:01Z</time>
      </trkpt>
      <trkpt lat="47.23037" lon="-1.61149">
        <ele>30</ele>
        <time>2013-08-22T09:28:04Z</time>
      </trkpt>
      <trkpt lat="47.23027" lon="-1.61148">
        <ele>30</ele>
        <time>2013-08-22T09:28:07Z</time>
      </trkpt>
      <trkpt lat="47.23017" lon="-1.61145">
        <ele>30.1</ele>
        <time>2013-08-22T09:28:11Z</time>
      </trkpt>
      <trkpt lat="47.23008" lon="-1.61141">
        <ele>29.9</ele>
        <time>2013-08-22T09:28:14Z</time>
      </trkpt>
      <trkpt lat="47.22999" lon="-1.61141">
        <ele>29.8</ele>
        <time>2013-08-22T09:28:17Z</time>
      </trkpt>
      <trkpt lat="47.22988" lon="-1.61139">
        <ele>30.1</ele>
        <time>2013-08-22T09:28:20Z</time>
      </trkpt>
      <trkpt lat="47.22976" lon="-1.61138">
        <ele>30.5</ele>
        <time>2013-08-22T09:28:24Z</time>
      </trkpt>
      <trkpt lat="47.22966" lon="-1.61137">
        <ele>30.7</ele>
        <time>2013-08-22T09:28:27Z</time>
      </trkpt>
      <trkpt lat="47.22957" lon="-1.61138">
        <ele>31.2</ele>
        <time>2013-08-22T09:28:30Z</time>
      </trkpt>
      <trkpt lat="47.22944" lon="-1.6114">
        <ele>32</ele>
        <time>2013-08-22T09:28:34Z</time>
      </trkpt>
      <trkpt lat="47.22935" lon="-1.61142">
        <ele>32.5</ele>
        <time>2013-08-22T09:28:37Z</time>
      </trkpt>
      <trkpt lat="47.22925" lon="-1.61143">
        <ele>33.1</ele>
        <time>2013-08-22T09:28:40Z</time>
      </trkpt>
      <trkpt lat="47.22913" lon="-1.61145">
        <ele>33.6</ele>
        <time>2013-08-22T09:28:44Z</time>
      </trkpt>
      <trkpt lat="47.22903" lon="-1.61147">
        <ele>34.1</ele>
        <time>2013-08-22T09:28:47Z</time>
      </trkpt>
      <trkpt lat="47.22893" lon="-1.6115">
        <ele>34.2</ele>
        <time>2013-08-22T09:28:51Z</time>
      </trkpt>
      <trkpt lat="47.22882" lon="-1.61157">
        <ele>34.6</ele>
        <time>2013-08-22T09:28:55Z</time>
      </trkpt>
      <trkpt lat="47.22873" lon="-1.61166">
        <ele>34.5</ele>
        <time>2013-08-22T09:29:00Z</time>
      </trkpt>
      <trkpt lat="47.22865" lon="-1.61171">
        <ele>35.5</ele>
        <time>2013-08-22T09:29:34Z</time>
      </trkpt>
      <trkpt lat="47.22856" lon="-1.61179">
        <ele>35.4</ele>
        <time>2013-08-22T09:30:01Z</time>
      </trkpt>
      <trkpt lat="47.22847" lon="-1.61186">
        <ele>35.5</ele>
        <time>2013-08-22T09:30:05Z</time>
      </trkpt>
      <trkpt lat="47.22839" lon="-1.61192">
        <ele>35.8</ele>
        <time>2013-08-22T09:30:08Z</time>
      </trkpt>
      <trkpt lat="47.22829" lon="-1.612">
        <ele>36.3</ele>
        <time>2013-08-22T09:30:12Z</time>
      </trkpt>
      <trkpt lat="47.22818" lon="-1.61208">
        <ele>36.7</ele>
        <time>2013-08-22T09:30:16Z</time>
      </trkpt>
      <trkpt lat="47.22808" lon="-1.61216">
        <ele>36.9</ele>
        <time>2013-08-22T09:30:20Z</time>
      </trkpt>
      <trkpt lat="47.22799" lon="-1.61222">
        <ele>36.8</ele>
        <time>2013-08-22T09:30:23Z</time>
      </trkpt>
      <trkpt lat="47.22791" lon="-1.61229">
        <ele>36.3</ele>
        <time>2013-08-22T09:30:26Z</time>
      </trkpt>
      <trkpt lat="47.22782" lon="-1.61235">
        <ele>35.9</ele>
        <time>2013-08-22T09:30:30Z</time>
      </trkpt>
      <trkpt lat="47.22773" lon="-1.61243">
        <ele>35.8</ele>
        <time>2013-08-22T09:30:34Z</time>
      </trkpt>
      <trkpt lat="47.22763" lon="-1.61251">
        <ele>35.9</ele>
        <time>2013-08-22T09:30:38Z</time>
      </trkpt>
      <trkpt lat="47.22756" lon="-1.61261">
        <ele>35.8</ele>
        <time>2013-08-22T09:30:41Z</time>
      </trkpt>
      <trkpt lat="47.22748" lon="-1.61273">
        <ele>35.6</ele>
        <time>2013-08-22T09:30:44Z</time>
      </trkpt>
      <trkpt lat="47.22739" lon="-1.61283">
        <ele>35.4</ele>
        <time>2013-08-22T09:30:48Z</time>
      </trkpt>
      <trkpt lat="47.2273" lon="-1.61291">
        <ele>35.5</ele>
        <time>2013-08-22T09:30:51Z</time>
      </trkpt>
      <trkpt lat="47.2272" lon="-1.61296">
        <ele>35.5</ele>
        <time>2013-08-22T09:30:54Z</time>
      </trkpt>
      <trkpt lat="47.2271" lon="-1.61299">
        <ele>35.6</ele>
        <time>2013-08-22T09:30:58Z</time>
      </trkpt>
      <trkpt lat="47.22699" lon="-1.61299">
        <ele>35.9</ele>
        <time>2013-08-22T09:31:03Z</time>
      </trkpt>
      <trkpt lat="47.2269" lon="-1.61294">
        <ele>36.5</ele>
        <time>2013-08-22T09:31:09Z</time>
      </trkpt>
      <trkpt lat="47.2268" lon="-1.61294">
        <ele>36.5</ele>
        <time>2013-08-22T09:31:15Z</time>
      </trkpt>
      <trkpt lat="47.22669" lon="-1.61293">
        <ele>37</ele>
        <time>2013-08-22T09:31:20Z</time>
      </trkpt>
      <trkpt lat="47.2266" lon="-1.61292">
        <ele>37.2</ele>
        <time>2013-08-22T09:31:23Z</time>
      </trkpt>
      <trkpt lat="47.2265" lon="-1.61291">
        <ele>37.6</ele>
        <time>2013-08-22T09:31:26Z</time>
      </trkpt>
      <trkpt lat="47.22641" lon="-1.61286">
        <ele>37.9</ele>
        <time>2013-08-22T09:31:29Z</time>
      </trkpt>
      <trkpt lat="47.22633" lon="-1.61282">
        <ele>38.1</ele>
        <time>2013-08-22T09:31:32Z</time>
      </trkpt>
      <trkpt lat="47.22622" lon="-1.61274">
        <ele>38.1</ele>
        <time>2013-08-22T09:31:35Z</time>
      </trkpt>
      <trkpt lat="47.22613" lon="-1.61268">
        <ele>38.3</ele>
        <time>2013-08-22T09:31:38Z</time>
      </trkpt>
      <trkpt lat="47.22604" lon="-1.61261">
        <ele>38.5</ele>
        <time>2013-08-22T09:31:41Z</time>
      </trkpt>
      <trkpt lat="47.22595" lon="-1.61255">
        <ele>38.6</ele>
        <time>2013-08-22T09:31:44Z</time>
      </trkpt>
      <trkpt lat="47.22587" lon="-1.61247">
        <ele>38.8</ele>
        <time>2013-08-22T09:31:47Z</time>
      </trkpt>
      <trkpt lat="47.2258" lon="-1.61237">
        <ele>38.9</ele>
        <time>2013-08-22T09:31:50Z</time>
      </trkpt>
      <trkpt lat="47.22572" lon="-1.61228">
        <ele>39.4</ele>
        <time>2013-08-22T09:31:55Z</time>
      </trkpt>
      <trkpt lat="47.2257" lon="-1.61244">
        <ele>39.8</ele>
        <time>2013-08-22T09:31:59Z</time>
      </trkpt>
      <trkpt lat="47.22566" lon="-1.61258">
        <ele>40</ele>
        <time>2013-08-22T09:32:02Z</time>
      </trkpt>
      <trkpt lat="47.22558" lon="-1.61269">
        <ele>40.1</ele>
        <time>2013-08-22T09:32:05Z</time>
      </trkpt>
      <trkpt lat="47.22551" lon="-1.61277">
        <ele>40</ele>
        <time>2013-08-22T09:32:07Z</time>
      </trkpt>
      <trkpt lat="47.22543" lon="-1.61284">
        <ele>40.1</ele>
        <time>2013-08-22T09:32:09Z</time>
      </trkpt>
      <trkpt lat="47.22534" lon="-1.61293">
        <ele>40.2</ele>
        <time>2013-08-22T09:32:12Z</time>
      </trkpt>
      <trkpt lat="47.22523" lon="-1.61303">
        <ele>40.6</ele>
        <time>2013-08-22T09:32:15Z</time>
      </trkpt>
      <trkpt lat="47.22513" lon="-1.61314">
        <ele>40.9</ele>
        <time>2013-08-22T09:32:18Z</time>
      </trkpt>
      <trkpt lat="47.22504" lon="-1.61323">
        <ele>41.1</ele>
        <time>2013-08-22T09:32:21Z</time>
      </trkpt>
      <trkpt lat="47.22497" lon="-1.61332">
        <ele>41.3</ele>
        <time>2013-08-22T09:32:24Z</time>
      </trkpt>
      <trkpt lat="47.22489" lon="-1.61344">
        <ele>41.3</ele>
        <time>2013-08-22T09:32:27Z</time>
      </trkpt>
      <trkpt lat="47.22482" lon="-1.61355">
        <ele>41.4</ele>
        <time>2013-08-22T09:32:30Z</time>
      </trkpt>
      <trkpt lat="47.22473" lon="-1.61362">
        <ele>41.7</ele>
        <time>2013-08-22T09:32:33Z</time>
      </trkpt>
      <trkpt lat="47.22466" lon="-1.61371">
        <ele>42.2</ele>
        <time>2013-08-22T09:32:36Z</time>
      </trkpt>
      <trkpt lat="47.22459" lon="-1.61382">
        <ele>42.6</ele>
        <time>2013-08-22T09:32:40Z</time>
      </trkpt>
      <trkpt lat="47.22451" lon="-1.61395">
        <ele>42.9</ele>
        <time>2013-08-22T09:32:44Z</time>
      </trkpt>
      <trkpt lat="47.22442" lon="-1.61408">
        <ele>42.9</ele>
        <time>2013-08-22T09:32:48Z</time>
      </trkpt>
      <trkpt lat="47.22431" lon="-1.61413">
        <ele>43.1</ele>
        <time>2013-08-22T09:32:52Z</time>
      </trkpt>
      <trkpt lat="47.22421" lon="-1.61417">
        <ele>43.5</ele>
        <time>2013-08-22T09:32:56Z</time>
      </trkpt>
      <trkpt lat="47.22412" lon="-1.61422">
        <ele>44.1</ele>
        <time>2013-08-22T09:33:00Z</time>
      </trkpt>
      <trkpt lat="47.22407" lon="-1.61438">
        <ele>44.5</ele>
        <time>2013-08-22T09:33:04Z</time>
      </trkpt>
      <trkpt lat="47.22411" lon="-1.61455">
        <ele>45</ele>
        <time>2013-08-22T09:33:08Z</time>
      </trkpt>
      <trkpt lat="47.22415" lon="-1.61468">
        <ele>45.3</ele>
        <time>2013-08-22T09:33:11Z</time>
      </trkpt>
      <trkpt lat="47.2242" lon="-1.6148">
        <ele>45.6</ele>
        <time>2013-08-22T09:33:14Z</time>
      </trkpt>
      <trkpt lat="47.22425" lon="-1.61494">
        <ele>46</ele>
        <time>2013-08-22T09:33:17Z</time>
      </trkpt>
      <trkpt lat="47.22429" lon="-1.61511">
        <ele>46.4</ele>
        <time>2013-08-22T09:33:20Z</time>
      </trkpt>
      <trkpt lat="47.22433" lon="-1.61525">
        <ele>46.7</ele>
        <time>2013-08-22T09:33:23Z</time>
      </trkpt>
      <trkpt lat="47.22436" lon="-1.6154">
        <ele>47</ele>
        <time>2013-08-22T09:33:26Z</time>
      </trkpt>
      <trkpt lat="47.22435" lon="-1.61554">
        <ele>47.2</ele>
        <time>2013-08-22T09:33:30Z</time>
      </trkpt>
      <trkpt lat="47.22433" lon="-1.61567">
        <ele>47</ele>
        <time>2013-08-22T09:33:35Z</time>
      </trkpt>
      <trkpt lat="47.2244" lon="-1.61582">
        <ele>47.1</ele>
        <time>2013-08-22T09:33:39Z</time>
      </trkpt>
      <trkpt lat="47.22445" lon="-1.61597">
        <ele>47.2</ele>
        <time>2013-08-22T09:33:42Z</time>
      </trkpt>
      <trkpt lat="47.22451" lon="-1.6161">
        <ele>47.4</ele>
        <time>2013-08-22T09:33:45Z</time>
      </trkpt>
      <trkpt lat="47.22456" lon="-1.61625">
        <ele>47.6</ele>
        <time>2013-08-22T09:33:48Z</time>
      </trkpt>
      <trkpt lat="47.22461" lon="-1.61639">
        <ele>47.7</ele>
        <time>2013-08-22T09:33:51Z</time>
      </trkpt>
      <trkpt lat="47.22464" lon="-1.61654">
        <ele>47.9</ele>
        <time>2013-08-22T09:33:54Z</time>
      </trkpt>
      <trkpt lat="47.22468" lon="-1.61669">
        <ele>48</ele>
        <time>2013-08-22T09:33:57Z</time>
      </trkpt>
      <trkpt lat="47.22471" lon="-1.61684">
        <ele>48.7</ele>
        <time>2013-08-22T09:34:00Z</time>
      </trkpt>
      <trkpt lat="47.22475" lon="-1.61703">
        <ele>50.1</ele>
        <time>2013-08-22T09:34:03Z</time>
      </trkpt>
      <trkpt lat="47.22478" lon="-1.61716">
        <ele>50.4</ele>
        <time>2013-08-22T09:34:05Z</time>
      </trkpt>
      <trkpt lat="47.22481" lon="-1.61733">
        <ele>50.9</ele>
        <time>2013-08-22T09:34:08Z</time>
      </trkpt>
      <trkpt lat="47.22484" lon="-1.61752">
        <ele>51.6</ele>
        <time>2013-08-22T09:34:11Z</time>
      </trkpt>
      <trkpt lat="47.22487" lon="-1.61767">
        <ele>51.9</ele>
        <time>2013-08-22T09:34:13Z</time>
      </trkpt>
      <trkpt lat="47.2249" lon="-1.61783">
        <ele>52.3</ele>
        <time>2013-08-22T09:34:15Z</time>
      </trkpt>
      <trkpt lat="47.22493" lon="-1.618">
        <ele>52.3</ele>
        <time>2013-08-22T09:34:17Z</time>
      </trkpt>
      <trkpt lat="47.22497" lon="-1.61816">
        <ele>51.8</ele>
        <time>2013-08-22T09:34:19Z</time>
      </trkpt>
      <trkpt lat="47.225" lon="-1.61832">
        <ele>51.1</ele>
        <time>2013-08-22T09:34:21Z</time>
      </trkpt>
      <trkpt lat="47.22503" lon="-1.61849">
        <ele>50.4</ele>
        <time>2013-08-22T09:34:23Z</time>
      </trkpt>
      <trkpt lat="47.22506" lon="-1.61864">
        <ele>50</ele>
        <time>2013-08-22T09:34:25Z</time>
      </trkpt>
      <trkpt lat="47.2251" lon="-1.61877">
        <ele>49.7</ele>
        <time>2013-08-22T09:34:27Z</time>
      </trkpt>
      <trkpt lat="47.22516" lon="-1.6189">
        <ele>49.7</ele>
        <time>2013-08-22T09:34:29Z</time>
      </trkpt>
      <trkpt lat="47.22522" lon="-1.61899">
        <ele>49.9</ele>
        <time>2013-08-22T09:34:31Z</time>
      </trkpt>
      <trkpt lat="47.22532" lon="-1.61908">
        <ele>50</ele>
        <time>2013-08-22T09:34:34Z</time>
      </trkpt>
      <trkpt lat="47.22541" lon="-1.61918">
        <ele>50</ele>
        <time>2013-08-22T09:34:37Z</time>
      </trkpt>
      <trkpt lat="47.22548" lon="-1.61926">
        <ele>50</ele>
        <time>2013-08-22T09:34:39Z</time>
      </trkpt>
      <trkpt lat="47.22556" lon="-1.61934">
        <ele>49.7</ele>
        <time>2013-08-22T09:34:41Z</time>
      </trkpt>
      <trkpt lat="47.22565" lon="-1.61943">
        <ele>49.4</ele>
        <time>2013-08-22T09:34:43Z</time>
      </trkpt>
      <trkpt lat="47.22573" lon="-1.61951">
        <ele>49.2</ele>
        <time>2013-08-22T09:34:45Z</time>
      </trkpt>
      <trkpt lat="47.22581" lon="-1.61959">
        <ele>48.8</ele>
        <time>2013-08-22T09:34:47Z</time>
      </trkpt>
      <trkpt lat="47.2259" lon="-1.61968">
        <ele>48.4</ele>
        <time>2013-08-22T09:34:49Z</time>
      </trkpt>
      <trkpt lat="47.22598" lon="-1.61979">
        <ele>48.6</ele>
        <time>2013-08-22T09:34:51Z</time>
      </trkpt>
      <trkpt lat="47.22606" lon="-1.61988">
        <ele>49.6</ele>
        <time>2013-08-22T09:34:53Z</time>
      </trkpt>
      <trkpt lat="47.22616" lon="-1.61996">
        <ele>49.8</ele>
        <time>2013-08-22T09:34:56Z</time>
      </trkpt>
      <trkpt lat="47.22627" lon="-1.62008">
        <ele>48.3</ele>
        <time>2013-08-22T09:34:59Z</time>
      </trkpt>
      <trkpt lat="47.22636" lon="-1.62016">
        <ele>47.6</ele>
        <time>2013-08-22T09:35:01Z</time>
      </trkpt>
      <trkpt lat="47.22645" lon="-1.62025">
        <ele>47.2</ele>
        <time>2013-08-22T09:35:03Z</time>
      </trkpt>
      <trkpt lat="47.22655" lon="-1.62034">
        <ele>46.5</ele>
        <time>2013-08-22T09:35:05Z</time>
      </trkpt>
      <trkpt lat="47.22665" lon="-1.62045">
        <ele>46.1</ele>
        <time>2013-08-22T09:35:07Z</time>
      </trkpt>
      <trkpt lat="47.22676" lon="-1.62056">
        <ele>45.9</ele>
        <time>2013-08-22T09:35:09Z</time>
      </trkpt>
      <trkpt lat="47.22685" lon="-1.62066">
        <ele>45.4</ele>
        <time>2013-08-22T09:35:11Z</time>
      </trkpt>
      <trkpt lat="47.22695" lon="-1.62077">
        <ele>45.1</ele>
        <time>2013-08-22T09:35:13Z</time>
      </trkpt>
      <trkpt lat="47.22704" lon="-1.62087">
        <ele>44.8</ele>
        <time>2013-08-22T09:35:15Z</time>
      </trkpt>
      <trkpt lat="47.22713" lon="-1.62098">
        <ele>44.9</ele>
        <time>2013-08-22T09:35:17Z</time>
      </trkpt>
      <trkpt lat="47.22722" lon="-1.62107">
        <ele>45.2</ele>
        <time>2013-08-22T09:35:19Z</time>
      </trkpt>
      <trkpt lat="47.22731" lon="-1.62113">
        <ele>45.1</ele>
        <time>2013-08-22T09:35:21Z</time>
      </trkpt>
      <trkpt lat="47.22741" lon="-1.62118">
        <ele>44.8</ele>
        <time>2013-08-22T09:35:23Z</time>
      </trkpt>
      <trkpt lat="47.22751" lon="-1.6212">
        <ele>44.8</ele>
        <time>2013-08-22T09:35:25Z</time>
      </trkpt>
      <trkpt lat="47.22758" lon="-1.62131">
        <ele>44.3</ele>
        <time>2013-08-22T09:35:28Z</time>
      </trkpt>
      <trkpt lat="47.22756" lon="-1.62145">
        <ele>44.4</ele>
        <time>2013-08-22T09:35:30Z</time>
      </trkpt>
      <trkpt lat="47.22756" lon="-1.62159">
        <ele>44.2</ele>
        <time>2013-08-22T09:35:32Z</time>
      </trkpt>
      <trkpt lat="47.22754" lon="-1.62175">
        <ele>43.2</ele>
        <time>2013-08-22T09:35:34Z</time>
      </trkpt>
      <trkpt lat="47.22753" lon="-1.6219">
        <ele>42</ele>
        <time>2013-08-22T09:35:36Z</time>
      </trkpt>
      <trkpt lat="47.22753" lon="-1.62204">
        <ele>41.1</ele>
        <time>2013-08-22T09:35:38Z</time>
      </trkpt>
      <trkpt lat="47.22755" lon="-1.62222">
        <ele>41</ele>
        <time>2013-08-22T09:35:40Z</time>
      </trkpt>
      <trkpt lat="47.22756" lon="-1.62236">
        <ele>41.4</ele>
        <time>2013-08-22T09:35:42Z</time>
      </trkpt>
      <trkpt lat="47.22753" lon="-1.62251">
        <ele>41.8</ele>
        <time>2013-08-22T09:35:45Z</time>
      </trkpt>
      <trkpt lat="47.22744" lon="-1.62263">
        <ele>41.8</ele>
        <time>2013-08-22T09:35:48Z</time>
      </trkpt>
      <trkpt lat="47.22736" lon="-1.62272">
        <ele>41.7</ele>
        <time>2013-08-22T09:35:50Z</time>
      </trkpt>
      <trkpt lat="47.22728" lon="-1.62281">
        <ele>42</ele>
        <time>2013-08-22T09:35:52Z</time>
      </trkpt>
      <trkpt lat="47.2272" lon="-1.6229">
        <ele>42.4</ele>
        <time>2013-08-22T09:35:54Z</time>
      </trkpt>
      <trkpt lat="47.22713" lon="-1.62299">
        <ele>42.7</ele>
        <time>2013-08-22T09:35:56Z</time>
      </trkpt>
      <trkpt lat="47.22706" lon="-1.62307">
        <ele>42.8</ele>
        <time>2013-08-22T09:35:58Z</time>
      </trkpt>
      <trkpt lat="47.22696" lon="-1.6232">
        <ele>43.6</ele>
        <time>2013-08-22T09:36:01Z</time>
      </trkpt>
      <trkpt lat="47.22689" lon="-1.6233">
        <ele>44.1</ele>
        <time>2013-08-22T09:36:03Z</time>
      </trkpt>
      <trkpt lat="47.22682" lon="-1.62342">
        <ele>45.2</ele>
        <time>2013-08-22T09:36:06Z</time>
      </trkpt>
      <trkpt lat="47.22673" lon="-1.62353">
        <ele>47.2</ele>
        <time>2013-08-22T09:36:09Z</time>
      </trkpt>
      <trkpt lat="47.22664" lon="-1.62365">
        <ele>48</ele>
        <time>2013-08-22T09:36:11Z</time>
      </trkpt>
      <trkpt lat="47.22656" lon="-1.62379">
        <ele>49.4</ele>
        <time>2013-08-22T09:36:13Z</time>
      </trkpt>
      <trkpt lat="47.22649" lon="-1.62391">
        <ele>49.8</ele>
        <time>2013-08-22T09:36:15Z</time>
      </trkpt>
      <trkpt lat="47.22642" lon="-1.62403">
        <ele>49.9</ele>
        <time>2013-08-22T09:36:17Z</time>
      </trkpt>
      <trkpt lat="47.22637" lon="-1.62416">
        <ele>48.3</ele>
        <time>2013-08-22T09:36:19Z</time>
      </trkpt>
      <trkpt lat="47.22632" lon="-1.62427">
        <ele>46.5</ele>
        <time>2013-08-22T09:36:21Z</time>
      </trkpt>
      <trkpt lat="47.22625" lon="-1.62439">
        <ele>45.1</ele>
        <time>2013-08-22T09:36:23Z</time>
      </trkpt>
      <trkpt lat="47.22619" lon="-1.6245">
        <ele>42.8</ele>
        <time>2013-08-22T09:36:25Z</time>
      </trkpt>
      <trkpt lat="47.22613" lon="-1.62463">
        <ele>41.1</ele>
        <time>2013-08-22T09:36:27Z</time>
      </trkpt>
      <trkpt lat="47.22607" lon="-1.62475">
        <ele>40.9</ele>
        <time>2013-08-22T09:36:29Z</time>
      </trkpt>
      <trkpt lat="47.22602" lon="-1.62488">
        <ele>41.1</ele>
        <time>2013-08-22T09:36:31Z</time>
      </trkpt>
      <trkpt lat="47.22601" lon="-1.62502">
        <ele>41.3</ele>
        <time>2013-08-22T09:36:33Z</time>
      </trkpt>
      <trkpt lat="47.22603" lon="-1.62516">
        <ele>40.7</ele>
        <time>2013-08-22T09:36:35Z</time>
      </trkpt>
      <trkpt lat="47.22605" lon="-1.6253">
        <ele>39.8</ele>
        <time>2013-08-22T09:36:37Z</time>
      </trkpt>
      <trkpt lat="47.22608" lon="-1.62543">
        <ele>40</ele>
        <time>2013-08-22T09:36:39Z</time>
      </trkpt>
      <trkpt lat="47.22611" lon="-1.62558">
        <ele>39.9</ele>
        <time>2013-08-22T09:36:41Z</time>
      </trkpt>
      <trkpt lat="47.22614" lon="-1.62574">
        <ele>39.2</ele>
        <time>2013-08-22T09:36:43Z</time>
      </trkpt>
      <trkpt lat="47.22617" lon="-1.6259">
        <ele>38.5</ele>
        <time>2013-08-22T09:36:45Z</time>
      </trkpt>
      <trkpt lat="47.2262" lon="-1.62606">
        <ele>38.4</ele>
        <time>2013-08-22T09:36:47Z</time>
      </trkpt>
      <trkpt lat="47.22623" lon="-1.62621">
        <ele>38.7</ele>
        <time>2013-08-22T09:36:49Z</time>
      </trkpt>
      <trkpt lat="47.22626" lon="-1.62636">
        <ele>38.8</ele>
        <time>2013-08-22T09:36:51Z</time>
      </trkpt>
      <trkpt lat="47.22629" lon="-1.62652">
        <ele>39.2</ele>
        <time>2013-08-22T09:36:53Z</time>
      </trkpt>
      <trkpt lat="47.22631" lon="-1.62669">
        <ele>39.8</ele>
        <time>2013-08-22T09:36:55Z</time>
      </trkpt>
      <trkpt lat="47.22633" lon="-1.62685">
        <ele>40.2</ele>
        <time>2013-08-22T09:36:57Z</time>
      </trkpt>
      <trkpt lat="47.22636" lon="-1.62702">
        <ele>40.4</ele>
        <time>2013-08-22T09:36:59Z</time>
      </trkpt>
      <trkpt lat="47.22639" lon="-1.62717">
        <ele>40.4</ele>
        <time>2013-08-22T09:37:01Z</time>
      </trkpt>
      <trkpt lat="47.22641" lon="-1.62733">
        <ele>40.1</ele>
        <time>2013-08-22T09:37:03Z</time>
      </trkpt>
      <trkpt lat="47.22643" lon="-1.62748">
        <ele>39.7</ele>
        <time>2013-08-22T09:37:05Z</time>
      </trkpt>
      <trkpt lat="47.22646" lon="-1.62763">
        <ele>39.8</ele>
        <time>2013-08-22T09:37:07Z</time>
      </trkpt>
      <trkpt lat="47.22648" lon="-1.62779">
        <ele>39.8</ele>
        <time>2013-08-22T09:37:09Z</time>
      </trkpt>
      <trkpt lat="47.22651" lon="-1.62794">
        <ele>39.5</ele>
        <time>2013-08-22T09:37:11Z</time>
      </trkpt>
      <trkpt lat="47.22653" lon="-1.62809">
        <ele>39.4</ele>
        <time>2013-08-22T09:37:13Z</time>
      </trkpt>
      <trkpt lat="47.22659" lon="-1.62821">
        <ele>39.7</ele>
        <time>2013-08-22T09:37:15Z</time>
      </trkpt>
      <trkpt lat="47.2267" lon="-1.62832">
        <ele>40.4</ele>
        <time>2013-08-22T09:37:18Z</time>
      </trkpt>
      <trkpt lat="47.22678" lon="-1.62843">
        <ele>40.4</ele>
        <time>2013-08-22T09:37:22Z</time>
      </trkpt>
      <trkpt lat="47.22669" lon="-1.62848">
        <ele>40</ele>
        <time>2013-08-22T09:37:50Z</time>
      </trkpt>
      <trkpt lat="47.2266" lon="-1.62852">
        <ele>40.1</ele>
        <time>2013-08-22T09:38:06Z</time>
      </trkpt>
      <trkpt lat="47.2265" lon="-1.62852">
        <ele>41.3</ele>
        <time>2013-08-22T09:38:14Z</time>
      </trkpt>
      <trkpt lat="47.22641" lon="-1.62856">
        <ele>42.6</ele>
        <time>2013-08-22T09:38:18Z</time>
      </trkpt>
      <trkpt lat="47.22631" lon="-1.6286">
        <ele>43.4</ele>
        <time>2013-08-22T09:38:22Z</time>
      </trkpt>
      <trkpt lat="47.22622" lon="-1.62866">
        <ele>43.9</ele>
        <time>2013-08-22T09:38:25Z</time>
      </trkpt>
      <trkpt lat="47.22614" lon="-1.6287">
        <ele>44.3</ele>
        <time>2013-08-22T09:38:28Z</time>
      </trkpt>
      <trkpt lat="47.22603" lon="-1.62875">
        <ele>45</ele>
        <time>2013-08-22T09:38:32Z</time>
      </trkpt>
      <trkpt lat="47.22594" lon="-1.62877">
        <ele>45.5</ele>
        <time>2013-08-22T09:38:37Z</time>
      </trkpt>
      <trkpt lat="47.22586" lon="-1.62883">
        <ele>47.4</ele>
        <time>2013-08-22T09:39:03Z</time>
      </trkpt>
      <trkpt lat="47.22577" lon="-1.62885">
        <ele>48</ele>
        <time>2013-08-22T09:39:15Z</time>
      </trkpt>
      <trkpt lat="47.22568" lon="-1.62889">
        <ele>47.1</ele>
        <time>2013-08-22T09:39:26Z</time>
      </trkpt>
      <trkpt lat="47.22558" lon="-1.62895">
        <ele>46.3</ele>
        <time>2013-08-22T09:39:31Z</time>
      </trkpt>
      <trkpt lat="47.2255" lon="-1.62904">
        <ele>45.6</ele>
        <time>2013-08-22T09:39:36Z</time>
      </trkpt>
      <trkpt lat="47.22543" lon="-1.62916">
        <ele>45.1</ele>
        <time>2013-08-22T09:39:40Z</time>
      </trkpt>
      <trkpt lat="47.22534" lon="-1.62919">
        <ele>44.8</ele>
        <time>2013-08-22T09:39:44Z</time>
      </trkpt>
      <trkpt lat="47.22526" lon="-1.62913">
        <ele>44.8</ele>
        <time>2013-08-22T09:39:48Z</time>
      </trkpt>
      <trkpt lat="47.22515" lon="-1.62913">
        <ele>44.5</ele>
        <time>2013-08-22T09:39:52Z</time>
      </trkpt>
      <trkpt lat="47.22506" lon="-1.62916">
        <ele>44.2</ele>
        <time>2013-08-22T09:39:55Z</time>
      </trkpt>
      <trkpt lat="47.22495" lon="-1.6292">
        <ele>44</ele>
        <time>2013-08-22T09:39:58Z</time>
      </trkpt>
      <trkpt lat="47.22485" lon="-1.62924">
        <ele>43.7</ele>
        <time>2013-08-22T09:40:01Z</time>
      </trkpt>
      <trkpt lat="47.22474" lon="-1.62928">
        <ele>43.5</ele>
        <time>2013-08-22T09:40:04Z</time>
      </trkpt>
      <trkpt lat="47.22468" lon="-1.62941">
        <ele>43.3</ele>
        <time>2013-08-22T09:40:07Z</time>
      </trkpt>
      <trkpt lat="47.22462" lon="-1.62952">
        <ele>43</ele>
        <time>2013-08-22T09:40:10Z</time>
      </trkpt>
      <trkpt lat="47.22454" lon="-1.62961">
        <ele>42.8</ele>
        <time>2013-08-22T09:40:14Z</time>
      </trkpt>
      <trkpt lat="47.22443" lon="-1.6296">
        <ele>42.7</ele>
        <time>2013-08-22T09:40:18Z</time>
      </trkpt>
      <trkpt lat="47.22433" lon="-1.62959">
        <ele>42.6</ele>
        <time>2013-08-22T09:40:21Z</time>
      </trkpt>
      <trkpt lat="47.22422" lon="-1.62966">
        <ele>42.5</ele>
        <time>2013-08-22T09:40:24Z</time>
      </trkpt>
      <trkpt lat="47.22414" lon="-1.62973">
        <ele>42.2</ele>
        <time>2013-08-22T09:40:27Z</time>
      </trkpt>
      <trkpt lat="47.22403" lon="-1.62982">
        <ele>41.8</ele>
        <time>2013-08-22T09:40:30Z</time>
      </trkpt>
      <trkpt lat="47.22391" lon="-1.62991">
        <ele>40.6</ele>
        <time>2013-08-22T09:40:33Z</time>
      </trkpt>
      <trkpt lat="47.22379" lon="-1.62999">
        <ele>39.2</ele>
        <time>2013-08-22T09:40:36Z</time>
      </trkpt>
      <trkpt lat="47.2237" lon="-1.63004">
        <ele>38.2</ele>
        <time>2013-08-22T09:40:38Z</time>
      </trkpt>
      <trkpt lat="47.2236" lon="-1.63008">
        <ele>38.3</ele>
        <time>2013-08-22T09:40:40Z</time>
      </trkpt>
      <trkpt lat="47.2235" lon="-1.63012">
        <ele>38.8</ele>
        <time>2013-08-22T09:40:42Z</time>
      </trkpt>
      <trkpt lat="47.2234" lon="-1.63016">
        <ele>39.5</ele>
        <time>2013-08-22T09:40:44Z</time>
      </trkpt>
      <trkpt lat="47.22329" lon="-1.6302">
        <ele>40.3</ele>
        <time>2013-08-22T09:40:46Z</time>
      </trkpt>
      <trkpt lat="47.2232" lon="-1.63023">
        <ele>40.6</ele>
        <time>2013-08-22T09:40:48Z</time>
      </trkpt>
      <trkpt lat="47.22311" lon="-1.63027">
        <ele>40.3</ele>
        <time>2013-08-22T09:40:50Z</time>
      </trkpt>
      <trkpt lat="47.22296" lon="-1.63032">
        <ele>39.9</ele>
        <time>2013-08-22T09:40:52Z</time>
      </trkpt>
      <trkpt lat="47.22283" lon="-1.63038">
        <ele>39.9</ele>
        <time>2013-08-22T09:40:55Z</time>
      </trkpt>
      <trkpt lat="47.22273" lon="-1.63041">
        <ele>40.2</ele>
        <time>2013-08-22T09:40:58Z</time>
      </trkpt>
      <trkpt lat="47.22266" lon="-1.63049">
        <ele>40.4</ele>
        <time>2013-08-22T09:41:03Z</time>
      </trkpt>
      <trkpt lat="47.2226" lon="-1.63062">
        <ele>40.4</ele>
        <time>2013-08-22T09:41:07Z</time>
      </trkpt>
      <trkpt lat="47.22251" lon="-1.63073">
        <ele>40.3</ele>
        <time>2013-08-22T09:41:11Z</time>
      </trkpt>
      <trkpt lat="47.22243" lon="-1.63082">
        <ele>40.3</ele>
        <time>2013-08-22T09:41:15Z</time>
      </trkpt>
      <trkpt lat="47.22234" lon="-1.63083">
        <ele>39.9</ele>
        <time>2013-08-22T09:41:18Z</time>
      </trkpt>
      <trkpt lat="47.22221" lon="-1.6309">
        <ele>34.9</ele>
        <time>2013-08-22T09:41:22Z</time>
      </trkpt>
      <trkpt lat="47.22211" lon="-1.63094">
        <ele>32.5</ele>
        <time>2013-08-22T09:41:24Z</time>
      </trkpt>
      <trkpt lat="47.22201" lon="-1.63094">
        <ele>31.9</ele>
        <time>2013-08-22T09:41:26Z</time>
      </trkpt>
      <trkpt lat="47.22192" lon="-1.63088">
        <ele>32.9</ele>
        <time>2013-08-22T09:41:28Z</time>
      </trkpt>
      <trkpt lat="47.22183" lon="-1.63079">
        <ele>33.4</ele>
        <time>2013-08-22T09:41:31Z</time>
      </trkpt>
      <trkpt lat="47.22173" lon="-1.63083">
        <ele>33.7</ele>
        <time>2013-08-22T09:41:34Z</time>
      </trkpt>
      <trkpt lat="47.22161" lon="-1.6309">
        <ele>35.7</ele>
        <time>2013-08-22T09:41:37Z</time>
      </trkpt>
      <trkpt lat="47.22153" lon="-1.63095">
        <ele>36.6</ele>
        <time>2013-08-22T09:41:39Z</time>
      </trkpt>
      <trkpt lat="47.22143" lon="-1.63102">
        <ele>36.3</ele>
        <time>2013-08-22T09:41:41Z</time>
      </trkpt>
      <trkpt lat="47.22135" lon="-1.63114">
        <ele>35.9</ele>
        <time>2013-08-22T09:41:43Z</time>
      </trkpt>
      <trkpt lat="47.22128" lon="-1.63124">
        <ele>36.3</ele>
        <time>2013-08-22T09:41:45Z</time>
      </trkpt>
      <trkpt lat="47.2212" lon="-1.63129">
        <ele>36.6</ele>
        <time>2013-08-22T09:41:50Z</time>
      </trkpt>
      <trkpt lat="47.22111" lon="-1.63126">
        <ele>36.6</ele>
        <time>2013-08-22T09:41:54Z</time>
      </trkpt>
      <trkpt lat="47.22103" lon="-1.63118">
        <ele>36.6</ele>
        <time>2013-08-22T09:41:56Z</time>
      </trkpt>
      <trkpt lat="47.22096" lon="-1.63102">
        <ele>36.9</ele>
        <time>2013-08-22T09:41:59Z</time>
      </trkpt>
      <trkpt lat="47.22097" lon="-1.63084">
        <ele>36.7</ele>
        <time>2013-08-22T09:42:02Z</time>
      </trkpt>
      <trkpt lat="47.22099" lon="-1.63066">
        <ele>36.3</ele>
        <time>2013-08-22T09:42:05Z</time>
      </trkpt>
      <trkpt lat="47.22096" lon="-1.63049">
        <ele>35.5</ele>
        <time>2013-08-22T09:42:08Z</time>
      </trkpt>
      <trkpt lat="47.22092" lon="-1.63032">
        <ele>34.9</ele>
        <time>2013-08-22T09:42:11Z</time>
      </trkpt>
      <trkpt lat="47.22089" lon="-1.63019">
        <ele>34.6</ele>
        <time>2013-08-22T09:42:13Z</time>
      </trkpt>
      <trkpt lat="47.22086" lon="-1.63004">
        <ele>34.5</ele>
        <time>2013-08-22T09:42:17Z</time>
      </trkpt>
      <trkpt lat="47.22076" lon="-1.63">
        <ele>34.6</ele>
        <time>2013-08-22T09:42:21Z</time>
      </trkpt>
      <trkpt lat="47.22067" lon="-1.63006">
        <ele>34.7</ele>
        <time>2013-08-22T09:42:24Z</time>
      </trkpt>
      <trkpt lat="47.22058" lon="-1.63013">
        <ele>34.8</ele>
        <time>2013-08-22T09:42:28Z</time>
      </trkpt>
      <trkpt lat="47.22068" lon="-1.63005">
        <ele>34.9</ele>
        <time>2013-08-22T09:42:35Z</time>
      </trkpt>
      <trkpt lat="47.22074" lon="-1.62995">
        <ele>34.8</ele>
        <time>2013-08-22T09:42:38Z</time>
      </trkpt>
      <trkpt lat="47.22074" lon="-1.62979">
        <ele>34.8</ele>
        <time>2013-08-22T09:42:43Z</time>
      </trkpt>
      <trkpt lat="47.22071" lon="-1.62964">
        <ele>34.9</ele>
        <time>2013-08-22T09:42:46Z</time>
      </trkpt>
      <trkpt lat="47.22067" lon="-1.62948">
        <ele>34.9</ele>
        <time>2013-08-22T09:42:49Z</time>
      </trkpt>
      <trkpt lat="47.22063" lon="-1.6293">
        <ele>34.3</ele>
        <time>2013-08-22T09:42:52Z</time>
      </trkpt>
      <trkpt lat="47.22059" lon="-1.62911">
        <ele>33.6</ele>
        <time>2013-08-22T09:42:55Z</time>
      </trkpt>
      <trkpt lat="47.22056" lon="-1.62899">
        <ele>33.4</ele>
        <time>2013-08-22T09:42:57Z</time>
      </trkpt>
      <trkpt lat="47.22053" lon="-1.6288">
        <ele>33.4</ele>
        <time>2013-08-22T09:43:00Z</time>
      </trkpt>
      <trkpt lat="47.22047" lon="-1.6287">
        <ele>33.5</ele>
        <time>2013-08-22T09:43:04Z</time>
      </trkpt>
      <trkpt lat="47.22045" lon="-1.62857">
        <ele>33.7</ele>
        <time>2013-08-22T09:43:08Z</time>
      </trkpt>
      <trkpt lat="47.22043" lon="-1.62842">
        <ele>33.5</ele>
        <time>2013-08-22T09:43:12Z</time>
      </trkpt>
      <trkpt lat="47.22034" lon="-1.62848">
        <ele>33.5</ele>
        <time>2013-08-22T09:43:17Z</time>
      </trkpt>
      <trkpt lat="47.22025" lon="-1.62854">
        <ele>33.5</ele>
        <time>2013-08-22T09:43:20Z</time>
      </trkpt>
      <trkpt lat="47.22017" lon="-1.6286">
        <ele>33.2</ele>
        <time>2013-08-22T09:43:23Z</time>
      </trkpt>
      <trkpt lat="47.22008" lon="-1.62866">
        <ele>33</ele>
        <time>2013-08-22T09:43:26Z</time>
      </trkpt>
      <trkpt lat="47.21997" lon="-1.62873">
        <ele>32.6</ele>
        <time>2013-08-22T09:43:29Z</time>
      </trkpt>
      <trkpt lat="47.21987" lon="-1.62879">
        <ele>32.1</ele>
        <time>2013-08-22T09:43:32Z</time>
      </trkpt>
      <trkpt lat="47.21977" lon="-1.62885">
        <ele>31.7</ele>
        <time>2013-08-22T09:43:36Z</time>
      </trkpt>
      <trkpt lat="47.21968" lon="-1.62892">
        <ele>31.4</ele>
        <time>2013-08-22T09:43:39Z</time>
      </trkpt>
      <trkpt lat="47.21959" lon="-1.62899">
        <ele>31.2</ele>
        <time>2013-08-22T09:43:42Z</time>
      </trkpt>
      <trkpt lat="47.2195" lon="-1.62905">
        <ele>31.2</ele>
        <time>2013-08-22T09:43:45Z</time>
      </trkpt>
      <trkpt lat="47.2194" lon="-1.62914">
        <ele>31.1</ele>
        <time>2013-08-22T09:43:48Z</time>
      </trkpt>
      <trkpt lat="47.21931" lon="-1.62925">
        <ele>31</ele>
        <time>2013-08-22T09:43:51Z</time>
      </trkpt>
      <trkpt lat="47.21922" lon="-1.62937">
        <ele>30.7</ele>
        <time>2013-08-22T09:43:54Z</time>
      </trkpt>
      <trkpt lat="47.21915" lon="-1.62949">
        <ele>30.8</ele>
        <time>2013-08-22T09:43:57Z</time>
      </trkpt>
      <trkpt lat="47.21909" lon="-1.62962">
        <ele>30.9</ele>
        <time>2013-08-22T09:44:00Z</time>
      </trkpt>
      <trkpt lat="47.21902" lon="-1.62976">
        <ele>31</ele>
        <time>2013-08-22T09:44:03Z</time>
      </trkpt>
      <trkpt lat="47.21895" lon="-1.62991">
        <ele>30.9</ele>
        <time>2013-08-22T09:44:06Z</time>
      </trkpt>
      <trkpt lat="47.2189" lon="-1.63001">
        <ele>30.2</ele>
        <time>2013-08-22T09:44:08Z</time>
      </trkpt>
      <trkpt lat="47.21881" lon="-1.63015">
        <ele>29.7</ele>
        <time>2013-08-22T09:44:11Z</time>
      </trkpt>
      <trkpt lat="47.21875" lon="-1.63025">
        <ele>29.8</ele>
        <time>2013-08-22T09:44:13Z</time>
      </trkpt>
      <trkpt lat="47.21866" lon="-1.6304">
        <ele>29.3</ele>
        <time>2013-08-22T09:44:16Z</time>
      </trkpt>
      <trkpt lat="47.21857" lon="-1.63055">
        <ele>29.3</ele>
        <time>2013-08-22T09:44:19Z</time>
      </trkpt>
      <trkpt lat="47.21851" lon="-1.63066">
        <ele>29.4</ele>
        <time>2013-08-22T09:44:21Z</time>
      </trkpt>
      <trkpt lat="47.21844" lon="-1.63083">
        <ele>29.1</ele>
        <time>2013-08-22T09:44:24Z</time>
      </trkpt>
      <trkpt lat="47.2184" lon="-1.63096">
        <ele>28.9</ele>
        <time>2013-08-22T09:44:26Z</time>
      </trkpt>
      <trkpt lat="47.21837" lon="-1.63115">
        <ele>27.7</ele>
        <time>2013-08-22T09:44:29Z</time>
      </trkpt>
      <trkpt lat="47.21835" lon="-1.63128">
        <ele>27.1</ele>
        <time>2013-08-22T09:44:31Z</time>
      </trkpt>
      <trkpt lat="47.21833" lon="-1.63142">
        <ele>26.7</ele>
        <time>2013-08-22T09:44:33Z</time>
      </trkpt>
      <trkpt lat="47.21832" lon="-1.63158">
        <ele>26.7</ele>
        <time>2013-08-22T09:44:36Z</time>
      </trkpt>
      <trkpt lat="47.21825" lon="-1.63168">
        <ele>27</ele>
        <time>2013-08-22T09:44:41Z</time>
      </trkpt>
      <trkpt lat="47.21815" lon="-1.63168">
        <ele>27.3</ele>
        <time>2013-08-22T09:44:44Z</time>
      </trkpt>
      <trkpt lat="47.21806" lon="-1.63169">
        <ele>27.5</ele>
        <time>2013-08-22T09:44:47Z</time>
      </trkpt>
      <trkpt lat="47.21794" lon="-1.6317">
        <ele>27.7</ele>
        <time>2013-08-22T09:44:50Z</time>
      </trkpt>
      <trkpt lat="47.21784" lon="-1.6317">
        <ele>28.8</ele>
        <time>2013-08-22T09:44:52Z</time>
      </trkpt>
      <trkpt lat="47.21774" lon="-1.63171">
        <ele>30.8</ele>
        <time>2013-08-22T09:44:54Z</time>
      </trkpt>
      <trkpt lat="47.21764" lon="-1.63171">
        <ele>32.9</ele>
        <time>2013-08-22T09:44:56Z</time>
      </trkpt>
      <trkpt lat="47.21754" lon="-1.6317">
        <ele>33.8</ele>
        <time>2013-08-22T09:44:58Z</time>
      </trkpt>
      <trkpt lat="47.21745" lon="-1.63171">
        <ele>34.4</ele>
        <time>2013-08-22T09:45:00Z</time>
      </trkpt>
      <trkpt lat="47.21735" lon="-1.63174">
        <ele>35.1</ele>
        <time>2013-08-22T09:45:02Z</time>
      </trkpt>
      <trkpt lat="47.21725" lon="-1.63175">
        <ele>34.3</ele>
        <time>2013-08-22T09:45:04Z</time>
      </trkpt>
      <trkpt lat="47.21715" lon="-1.63176">
        <ele>33.2</ele>
        <time>2013-08-22T09:45:06Z</time>
      </trkpt>
      <trkpt lat="47.21705" lon="-1.63178">
        <ele>33</ele>
        <time>2013-08-22T09:45:08Z</time>
      </trkpt>
      <trkpt lat="47.21694" lon="-1.6318">
        <ele>33.1</ele>
        <time>2013-08-22T09:45:10Z</time>
      </trkpt>
      <trkpt lat="47.21684" lon="-1.63184">
        <ele>33.2</ele>
        <time>2013-08-22T09:45:12Z</time>
      </trkpt>
      <trkpt lat="47.21677" lon="-1.63195">
        <ele>32.9</ele>
        <time>2013-08-22T09:45:14Z</time>
      </trkpt>
      <trkpt lat="47.21673" lon="-1.63208">
        <ele>32.3</ele>
        <time>2013-08-22T09:45:16Z</time>
      </trkpt>
      <trkpt lat="47.21672" lon="-1.63222">
        <ele>31.8</ele>
        <time>2013-08-22T09:45:18Z</time>
      </trkpt>
      <trkpt lat="47.21671" lon="-1.63236">
        <ele>31.7</ele>
        <time>2013-08-22T09:45:21Z</time>
      </trkpt>
      <trkpt lat="47.21661" lon="-1.63238">
        <ele>31.6</ele>
        <time>2013-08-22T09:45:25Z</time>
      </trkpt>
      <trkpt lat="47.21649" lon="-1.63232">
        <ele>31.5</ele>
        <time>2013-08-22T09:45:29Z</time>
      </trkpt>
      <trkpt lat="47.2164" lon="-1.63224">
        <ele>31.5</ele>
        <time>2013-08-22T09:45:32Z</time>
      </trkpt>
      <trkpt lat="47.21629" lon="-1.63218">
        <ele>31.6</ele>
        <time>2013-08-22T09:45:35Z</time>
      </trkpt>
      <trkpt lat="47.21618" lon="-1.63219">
        <ele>32</ele>
        <time>2013-08-22T09:45:38Z</time>
      </trkpt>
      <trkpt lat="47.21608" lon="-1.63224">
        <ele>32.1</ele>
        <time>2013-08-22T09:45:41Z</time>
      </trkpt>
      <trkpt lat="47.21598" lon="-1.63231">
        <ele>32</ele>
        <time>2013-08-22T09:45:44Z</time>
      </trkpt>
      <trkpt lat="47.21589" lon="-1.6324">
        <ele>31.8</ele>
        <time>2013-08-22T09:45:47Z</time>
      </trkpt>
      <trkpt lat="47.21582" lon="-1.63248">
        <ele>31.6</ele>
        <time>2013-08-22T09:45:50Z</time>
      </trkpt>
      <trkpt lat="47.21576" lon="-1.63232">
        <ele>31</ele>
        <time>2013-08-22T09:45:55Z</time>
      </trkpt>
      <trkpt lat="47.21574" lon="-1.63218">
        <ele>30.2</ele>
        <time>2013-08-22T09:45:57Z</time>
      </trkpt>
      <trkpt lat="47.21571" lon="-1.63198">
        <ele>28.6</ele>
        <time>2013-08-22T09:46:00Z</time>
      </trkpt>
      <trkpt lat="47.2157" lon="-1.63184">
        <ele>27.2</ele>
        <time>2013-08-22T09:46:02Z</time>
      </trkpt>
      <trkpt lat="47.21567" lon="-1.63168">
        <ele>27.1</ele>
        <time>2013-08-22T09:46:05Z</time>
      </trkpt>
      <trkpt lat="47.21564" lon="-1.63156">
        <ele>26.8</ele>
        <time>2013-08-22T09:46:08Z</time>
      </trkpt>
      <trkpt lat="47.21555" lon="-1.63144">
        <ele>26.1</ele>
        <time>2013-08-22T09:46:13Z</time>
      </trkpt>
      <trkpt lat="47.21545" lon="-1.63139">
        <ele>25.6</ele>
        <time>2013-08-22T09:46:17Z</time>
      </trkpt>
      <trkpt lat="47.21535" lon="-1.63133">
        <ele>25.1</ele>
        <time>2013-08-22T09:46:21Z</time>
      </trkpt>
      <trkpt lat="47.21528" lon="-1.63123">
        <ele>24.6</ele>
        <time>2013-08-22T09:46:26Z</time>
      </trkpt>
      <trkpt lat="47.21523" lon="-1.6311">
        <ele>24.1</ele>
        <time>2013-08-22T09:46:31Z</time>
      </trkpt>
      <trkpt lat="47.21518" lon="-1.63097">
        <ele>23</ele>
        <time>2013-08-22T09:46:55Z</time>
      </trkpt>
      <trkpt lat="47.21517" lon="-1.63081">
        <ele>22.9</ele>
        <time>2013-08-22T09:47:00Z</time>
      </trkpt>
      <trkpt lat="47.21517" lon="-1.63066">
        <ele>22.8</ele>
        <time>2013-08-22T09:47:03Z</time>
      </trkpt>
      <trkpt lat="47.21518" lon="-1.63049">
        <ele>22.5</ele>
        <time>2013-08-22T09:47:07Z</time>
      </trkpt>
      <trkpt lat="47.21517" lon="-1.63036">
        <ele>21.7</ele>
        <time>2013-08-22T09:47:11Z</time>
      </trkpt>
      <trkpt lat="47.21518" lon="-1.63022">
        <ele>20.9</ele>
        <time>2013-08-22T09:47:14Z</time>
      </trkpt>
      <trkpt lat="47.2152" lon="-1.63005">
        <ele>20.3</ele>
        <time>2013-08-22T09:47:17Z</time>
      </trkpt>
      <trkpt lat="47.21526" lon="-1.62991">
        <ele>20.2</ele>
        <time>2013-08-22T09:47:21Z</time>
      </trkpt>
      <trkpt lat="47.21534" lon="-1.62982">
        <ele>20.2</ele>
        <time>2013-08-22T09:47:26Z</time>
      </trkpt>
      <trkpt lat="47.21542" lon="-1.6297">
        <ele>20</ele>
        <time>2013-08-22T09:47:31Z</time>
      </trkpt>
      <trkpt lat="47.21551" lon="-1.62961">
        <ele>19.8</ele>
        <time>2013-08-22T09:47:36Z</time>
      </trkpt>
      <trkpt lat="47.2156" lon="-1.62952">
        <ele>19.7</ele>
        <time>2013-08-22T09:47:41Z</time>
      </trkpt>
      <trkpt lat="47.21568" lon="-1.62945">
        <ele>19.5</ele>
        <time>2013-08-22T09:47:45Z</time>
      </trkpt>
      <trkpt lat="47.21578" lon="-1.62937">
        <ele>19.1</ele>
        <time>2013-08-22T09:47:49Z</time>
      </trkpt>
      <trkpt lat="47.21588" lon="-1.62929">
        <ele>19.4</ele>
        <time>2013-08-22T09:47:53Z</time>
      </trkpt>
      <trkpt lat="47.21595" lon="-1.62917">
        <ele>20</ele>
        <time>2013-08-22T09:47:58Z</time>
      </trkpt>
      <trkpt lat="47.21596" lon="-1.62904">
        <ele>20.1</ele>
        <time>2013-08-22T09:48:02Z</time>
      </trkpt>
      <trkpt lat="47.2159" lon="-1.62892">
        <ele>20.3</ele>
        <time>2013-08-22T09:48:07Z</time>
      </trkpt>
      <trkpt lat="47.21581" lon="-1.62892">
        <ele>20.2</ele>
        <time>2013-08-22T09:48:11Z</time>
      </trkpt>
      <trkpt lat="47.2157" lon="-1.62894">
        <ele>20.5</ele>
        <time>2013-08-22T09:48:15Z</time>
      </trkpt>
      <trkpt lat="47.21558" lon="-1.6289">
        <ele>20.3</ele>
        <time>2013-08-22T09:48:19Z</time>
      </trkpt>
      <trkpt lat="47.21551" lon="-1.62881">
        <ele>19.9</ele>
        <time>2013-08-22T09:48:22Z</time>
      </trkpt>
      <trkpt lat="47.21544" lon="-1.62867">
        <ele>19.4</ele>
        <time>2013-08-22T09:48:25Z</time>
      </trkpt>
      <trkpt lat="47.21539" lon="-1.62854">
        <ele>19.4</ele>
        <time>2013-08-22T09:48:28Z</time>
      </trkpt>
      <trkpt lat="47.21535" lon="-1.62838">
        <ele>19.6</ele>
        <time>2013-08-22T09:48:32Z</time>
      </trkpt>
      <trkpt lat="47.2153" lon="-1.62826">
        <ele>19.6</ele>
        <time>2013-08-22T09:48:35Z</time>
      </trkpt>
      <trkpt lat="47.21524" lon="-1.62811">
        <ele>19.9</ele>
        <time>2013-08-22T09:48:39Z</time>
      </trkpt>
      <trkpt lat="47.21519" lon="-1.628">
        <ele>20</ele>
        <time>2013-08-22T09:48:43Z</time>
      </trkpt>
      <trkpt lat="47.21514" lon="-1.62787">
        <ele>20.3</ele>
        <time>2013-08-22T09:48:47Z</time>
      </trkpt>
      <trkpt lat="47.2151" lon="-1.62774">
        <ele>20.7</ele>
        <time>2013-08-22T09:48:50Z</time>
      </trkpt>
      <trkpt lat="47.21506" lon="-1.62759">
        <ele>21.2</ele>
        <time>2013-08-22T09:48:54Z</time>
      </trkpt>
      <trkpt lat="47.21503" lon="-1.62746">
        <ele>21.7</ele>
        <time>2013-08-22T09:48:58Z</time>
      </trkpt>
      <trkpt lat="47.21499" lon="-1.62733">
        <ele>22.3</ele>
        <time>2013-08-22T09:49:03Z</time>
      </trkpt>
      <trkpt lat="47.21496" lon="-1.62718">
        <ele>23.1</ele>
        <time>2013-08-22T09:49:10Z</time>
      </trkpt>
      <trkpt lat="47.21494" lon="-1.627">
        <ele>23.6</ele>
        <time>2013-08-22T09:49:14Z</time>
      </trkpt>
      <trkpt lat="47.21491" lon="-1.62687">
        <ele>24</ele>
        <time>2013-08-22T09:49:17Z</time>
      </trkpt>
      <trkpt lat="47.21488" lon="-1.62673">
        <ele>24.3</ele>
        <time>2013-08-22T09:49:20Z</time>
      </trkpt>
      <trkpt lat="47.21486" lon="-1.62659">
        <ele>24.3</ele>
        <time>2013-08-22T09:49:24Z</time>
      </trkpt>
      <trkpt lat="47.21484" lon="-1.62643">
        <ele>24.5</ele>
        <time>2013-08-22T09:49:29Z</time>
      </trkpt>
      <trkpt lat="47.21477" lon="-1.62634">
        <ele>24.7</ele>
        <time>2013-08-22T09:49:37Z</time>
      </trkpt>
      <trkpt lat="47.21474" lon="-1.62621">
        <ele>24.7</ele>
        <time>2013-08-22T09:49:40Z</time>
      </trkpt>
      <trkpt lat="47.21472" lon="-1.62602">
        <ele>24.8</ele>
        <time>2013-08-22T09:49:43Z</time>
      </trkpt>
      <trkpt lat="47.2147" lon="-1.62583">
        <ele>25.4</ele>
        <time>2013-08-22T09:49:46Z</time>
      </trkpt>
      <trkpt lat="47.21467" lon="-1.62568">
        <ele>25.8</ele>
        <time>2013-08-22T09:49:49Z</time>
      </trkpt>
      <trkpt lat="47.21463" lon="-1.62552">
        <ele>26.8</ele>
        <time>2013-08-22T09:49:52Z</time>
      </trkpt>
      <trkpt lat="47.21459" lon="-1.62534">
        <ele>27.9</ele>
        <time>2013-08-22T09:49:55Z</time>
      </trkpt>
      <trkpt lat="47.21456" lon="-1.62518">
        <ele>28.1</ele>
        <time>2013-08-22T09:49:58Z</time>
      </trkpt>
      <trkpt lat="47.21453" lon="-1.62503">
        <ele>28.1</ele>
        <time>2013-08-22T09:50:01Z</time>
      </trkpt>
      <trkpt lat="47.21449" lon="-1.62487">
        <ele>27.9</ele>
        <time>2013-08-22T09:50:04Z</time>
      </trkpt>
      <trkpt lat="47.21446" lon="-1.62471">
        <ele>28</ele>
        <time>2013-08-22T09:50:07Z</time>
      </trkpt>
      <trkpt lat="47.21443" lon="-1.62453">
        <ele>27.9</ele>
        <time>2013-08-22T09:50:10Z</time>
      </trkpt>
      <trkpt lat="47.21439" lon="-1.62435">
        <ele>27.6</ele>
        <time>2013-08-22T09:50:13Z</time>
      </trkpt>
      <trkpt lat="47.21437" lon="-1.62422">
        <ele>27.8</ele>
        <time>2013-08-22T09:50:15Z</time>
      </trkpt>
      <trkpt lat="47.21433" lon="-1.62405">
        <ele>28.4</ele>
        <time>2013-08-22T09:50:18Z</time>
      </trkpt>
      <trkpt lat="47.21427" lon="-1.62388">
        <ele>29.2</ele>
        <time>2013-08-22T09:50:21Z</time>
      </trkpt>
      <trkpt lat="47.21421" lon="-1.62371">
        <ele>29.6</ele>
        <time>2013-08-22T09:50:24Z</time>
      </trkpt>
      <trkpt lat="47.21415" lon="-1.62355">
        <ele>30.2</ele>
        <time>2013-08-22T09:50:27Z</time>
      </trkpt>
      <trkpt lat="47.2141" lon="-1.62343">
        <ele>31.2</ele>
        <time>2013-08-22T09:50:29Z</time>
      </trkpt>
      <trkpt lat="47.21404" lon="-1.62326">
        <ele>31.2</ele>
        <time>2013-08-22T09:50:32Z</time>
      </trkpt>
      <trkpt lat="47.21399" lon="-1.62314">
        <ele>31.5</ele>
        <time>2013-08-22T09:50:34Z</time>
      </trkpt>
      <trkpt lat="47.21394" lon="-1.62301">
        <ele>31.9</ele>
        <time>2013-08-22T09:50:36Z</time>
      </trkpt>
      <trkpt lat="47.21387" lon="-1.62285">
        <ele>31.5</ele>
        <time>2013-08-22T09:50:39Z</time>
      </trkpt>
      <trkpt lat="47.21379" lon="-1.62269">
        <ele>31.5</ele>
        <time>2013-08-22T09:50:42Z</time>
      </trkpt>
      <trkpt lat="47.21373" lon="-1.62259">
        <ele>31.6</ele>
        <time>2013-08-22T09:50:44Z</time>
      </trkpt>
      <trkpt lat="47.21364" lon="-1.62245">
        <ele>32.3</ele>
        <time>2013-08-22T09:50:47Z</time>
      </trkpt>
      <trkpt lat="47.21358" lon="-1.62234">
        <ele>32.6</ele>
        <time>2013-08-22T09:50:49Z</time>
      </trkpt>
      <trkpt lat="47.21352" lon="-1.62225">
        <ele>33.1</ele>
        <time>2013-08-22T09:50:51Z</time>
      </trkpt>
      <trkpt lat="47.21343" lon="-1.6221">
        <ele>33.6</ele>
        <time>2013-08-22T09:50:54Z</time>
      </trkpt>
      <trkpt lat="47.21335" lon="-1.62195">
        <ele>33.7</ele>
        <time>2013-08-22T09:50:57Z</time>
      </trkpt>
      <trkpt lat="47.21327" lon="-1.62181">
        <ele>34.2</ele>
        <time>2013-08-22T09:51:00Z</time>
      </trkpt>
      <trkpt lat="47.21322" lon="-1.62164">
        <ele>35.8</ele>
        <time>2013-08-22T09:51:03Z</time>
      </trkpt>
      <trkpt lat="47.21318" lon="-1.6215">
        <ele>36</ele>
        <time>2013-08-22T09:51:05Z</time>
      </trkpt>
      <trkpt lat="47.21316" lon="-1.62137">
        <ele>35.6</ele>
        <time>2013-08-22T09:51:07Z</time>
      </trkpt>
      <trkpt lat="47.21314" lon="-1.62117">
        <ele>34.8</ele>
        <time>2013-08-22T09:51:10Z</time>
      </trkpt>
      <trkpt lat="47.21314" lon="-1.62097">
        <ele>34.5</ele>
        <time>2013-08-22T09:51:13Z</time>
      </trkpt>
      <trkpt lat="47.21313" lon="-1.62084">
        <ele>34.3</ele>
        <time>2013-08-22T09:51:15Z</time>
      </trkpt>
      <trkpt lat="47.21312" lon="-1.62065">
        <ele>34</ele>
        <time>2013-08-22T09:51:18Z</time>
      </trkpt>
      <trkpt lat="47.21312" lon="-1.62051">
        <ele>34</ele>
        <time>2013-08-22T09:51:20Z</time>
      </trkpt>
      <trkpt lat="47.21312" lon="-1.62033">
        <ele>34</ele>
        <time>2013-08-22T09:51:23Z</time>
      </trkpt>
      <trkpt lat="47.21313" lon="-1.62015">
        <ele>34.6</ele>
        <time>2013-08-22T09:51:26Z</time>
      </trkpt>
      <trkpt lat="47.21314" lon="-1.62">
        <ele>35</ele>
        <time>2013-08-22T09:51:29Z</time>
      </trkpt>
      <trkpt lat="47.21313" lon="-1.61985">
        <ele>35.1</ele>
        <time>2013-08-22T09:51:32Z</time>
      </trkpt>
      <trkpt lat="47.21312" lon="-1.61969">
        <ele>35</ele>
        <time>2013-08-22T09:51:36Z</time>
      </trkpt>
      <trkpt lat="47.21311" lon="-1.61955">
        <ele>34.8</ele>
        <time>2013-08-22T09:51:39Z</time>
      </trkpt>
      <trkpt lat="47.21309" lon="-1.6194">
        <ele>34.7</ele>
        <time>2013-08-22T09:51:43Z</time>
      </trkpt>
      <trkpt lat="47.21302" lon="-1.61928">
        <ele>34.3</ele>
        <time>2013-08-22T09:51:47Z</time>
      </trkpt>
      <trkpt lat="47.21291" lon="-1.61923">
        <ele>33.7</ele>
        <time>2013-08-22T09:51:50Z</time>
      </trkpt>
      <trkpt lat="47.21279" lon="-1.6192">
        <ele>31.6</ele>
        <time>2013-08-22T09:51:53Z</time>
      </trkpt>
      <trkpt lat="47.21265" lon="-1.61921">
        <ele>29.5</ele>
        <time>2013-08-22T09:51:56Z</time>
      </trkpt>
      <trkpt lat="47.21255" lon="-1.61924">
        <ele>29.2</ele>
        <time>2013-08-22T09:51:58Z</time>
      </trkpt>
      <trkpt lat="47.21246" lon="-1.61929">
        <ele>29.4</ele>
        <time>2013-08-22T09:52:00Z</time>
      </trkpt>
      <trkpt lat="47.21237" lon="-1.61935">
        <ele>30.2</ele>
        <time>2013-08-22T09:52:02Z</time>
      </trkpt>
      <trkpt lat="47.21227" lon="-1.61941">
        <ele>30.5</ele>
        <time>2013-08-22T09:52:05Z</time>
      </trkpt>
      <trkpt lat="47.21215" lon="-1.61941">
        <ele>30.3</ele>
        <time>2013-08-22T09:52:08Z</time>
      </trkpt>
      <trkpt lat="47.21204" lon="-1.61939">
        <ele>30.3</ele>
        <time>2013-08-22T09:52:11Z</time>
      </trkpt>
      <trkpt lat="47.21193" lon="-1.61936">
        <ele>30.4</ele>
        <time>2013-08-22T09:52:14Z</time>
      </trkpt>
      <trkpt lat="47.21188" lon="-1.61926">
        <ele>30.4</ele>
        <time>2013-08-22T09:52:18Z</time>
      </trkpt>
      <trkpt lat="47.21185" lon="-1.61911">
        <ele>30.3</ele>
        <time>2013-08-22T09:52:22Z</time>
      </trkpt>
      <trkpt lat="47.21174" lon="-1.61903">
        <ele>31.2</ele>
        <time>2013-08-22T09:52:26Z</time>
      </trkpt>
      <trkpt lat="47.21163" lon="-1.61896">
        <ele>31.2</ele>
        <time>2013-08-22T09:52:30Z</time>
      </trkpt>
      <trkpt lat="47.21151" lon="-1.61889">
        <ele>31.1</ele>
        <time>2013-08-22T09:52:33Z</time>
      </trkpt>
      <trkpt lat="47.21143" lon="-1.61878">
        <ele>30.7</ele>
        <time>2013-08-22T09:52:35Z</time>
      </trkpt>
      <trkpt lat="47.21137" lon="-1.61866">
        <ele>30.6</ele>
        <time>2013-08-22T09:52:37Z</time>
      </trkpt>
      <trkpt lat="47.21132" lon="-1.61853">
        <ele>30.1</ele>
        <time>2013-08-22T09:52:39Z</time>
      </trkpt>
      <trkpt lat="47.21128" lon="-1.61836">
        <ele>29.2</ele>
        <time>2013-08-22T09:52:42Z</time>
      </trkpt>
      <trkpt lat="47.21128" lon="-1.61817">
        <ele>27.9</ele>
        <time>2013-08-22T09:52:45Z</time>
      </trkpt>
      <trkpt lat="47.2113" lon="-1.61804">
        <ele>27.7</ele>
        <time>2013-08-22T09:52:48Z</time>
      </trkpt>
      <trkpt lat="47.21124" lon="-1.61791">
        <ele>28</ele>
        <time>2013-08-22T09:53:02Z</time>
      </trkpt>
      <trkpt lat="47.21112" lon="-1.61789">
        <ele>28.3</ele>
        <time>2013-08-22T09:53:06Z</time>
      </trkpt>
      <trkpt lat="47.21109" lon="-1.61803">
        <ele>28.3</ele>
        <time>2013-08-22T09:53:09Z</time>
      </trkpt>
      <trkpt lat="47.21106" lon="-1.61817">
        <ele>28.2</ele>
        <time>2013-08-22T09:53:12Z</time>
      </trkpt>
      <trkpt lat="47.21101" lon="-1.61832">
        <ele>28.2</ele>
        <time>2013-08-22T09:53:15Z</time>
      </trkpt>
      <trkpt lat="47.21095" lon="-1.61841">
        <ele>28</ele>
        <time>2013-08-22T09:53:20Z</time>
      </trkpt>
      <trkpt lat="47.21087" lon="-1.61849">
        <ele>28.3</ele>
        <time>2013-08-22T09:53:39Z</time>
      </trkpt>
      <trkpt lat="47.2108" lon="-1.61859">
        <ele>28.3</ele>
        <time>2013-08-22T09:53:42Z</time>
      </trkpt>
      <trkpt lat="47.21072" lon="-1.61871">
        <ele>28.4</ele>
        <time>2013-08-22T09:53:46Z</time>
      </trkpt>
      <trkpt lat="47.21065" lon="-1.6188">
        <ele>28.4</ele>
        <time>2013-08-22T09:53:49Z</time>
      </trkpt>
      <trkpt lat="47.21057" lon="-1.61888">
        <ele>28.4</ele>
        <time>2013-08-22T09:53:52Z</time>
      </trkpt>
      <trkpt lat="47.21049" lon="-1.61897">
        <ele>28.6</ele>
        <time>2013-08-22T09:53:55Z</time>
      </trkpt>
      <trkpt lat="47.21039" lon="-1.619">
        <ele>28.7</ele>
        <time>2013-08-22T09:53:58Z</time>
      </trkpt>
      <trkpt lat="47.21029" lon="-1.61899">
        <ele>28.8</ele>
        <time>2013-08-22T09:54:01Z</time>
      </trkpt>
      <trkpt lat="47.21016" lon="-1.61901">
        <ele>30.4</ele>
        <time>2013-08-22T09:54:04Z</time>
      </trkpt>
      <trkpt lat="47.21006" lon="-1.61903">
        <ele>31.3</ele>
        <time>2013-08-22T09:54:06Z</time>
      </trkpt>
      <trkpt lat="47.20997" lon="-1.61905">
        <ele>30.7</ele>
        <time>2013-08-22T09:54:08Z</time>
      </trkpt>
      <trkpt lat="47.20986" lon="-1.61907">
        <ele>30.4</ele>
        <time>2013-08-22T09:54:10Z</time>
      </trkpt>
      <trkpt lat="47.20977" lon="-1.6191">
        <ele>30.2</ele>
        <time>2013-08-22T09:54:12Z</time>
      </trkpt>
      <trkpt lat="47.20967" lon="-1.61912">
        <ele>30.1</ele>
        <time>2013-08-22T09:54:14Z</time>
      </trkpt>
      <trkpt lat="47.20956" lon="-1.61914">
        <ele>30.2</ele>
        <time>2013-08-22T09:54:16Z</time>
      </trkpt>
      <trkpt lat="47.20946" lon="-1.61915">
        <ele>29.8</ele>
        <time>2013-08-22T09:54:18Z</time>
      </trkpt>
      <trkpt lat="47.20932" lon="-1.61915">
        <ele>28.2</ele>
        <time>2013-08-22T09:54:21Z</time>
      </trkpt>
      <trkpt lat="47.20923" lon="-1.61915">
        <ele>27.5</ele>
        <time>2013-08-22T09:54:23Z</time>
      </trkpt>
      <trkpt lat="47.20912" lon="-1.61915">
        <ele>27.7</ele>
        <time>2013-08-22T09:54:25Z</time>
      </trkpt>
      <trkpt lat="47.20902" lon="-1.61915">
        <ele>28.5</ele>
        <time>2013-08-22T09:54:27Z</time>
      </trkpt>
      <trkpt lat="47.2089" lon="-1.61912">
        <ele>28.4</ele>
        <time>2013-08-22T09:54:30Z</time>
      </trkpt>
      <trkpt lat="47.20879" lon="-1.61909">
        <ele>28</ele>
        <time>2013-08-22T09:54:32Z</time>
      </trkpt>
      <trkpt lat="47.20868" lon="-1.61905">
        <ele>28.1</ele>
        <time>2013-08-22T09:54:34Z</time>
      </trkpt>
      <trkpt lat="47.20856" lon="-1.61901">
        <ele>28.9</ele>
        <time>2013-08-22T09:54:36Z</time>
      </trkpt>
      <trkpt lat="47.20846" lon="-1.61898">
        <ele>29.6</ele>
        <time>2013-08-22T09:54:38Z</time>
      </trkpt>
      <trkpt lat="47.20836" lon="-1.619">
        <ele>29.8</ele>
        <time>2013-08-22T09:54:40Z</time>
      </trkpt>
      <trkpt lat="47.20825" lon="-1.61902">
        <ele>28.9</ele>
        <time>2013-08-22T09:54:42Z</time>
      </trkpt>
      <trkpt lat="47.20815" lon="-1.61902">
        <ele>28</ele>
        <time>2013-08-22T09:54:44Z</time>
      </trkpt>
      <trkpt lat="47.20804" lon="-1.61901">
        <ele>27.7</ele>
        <time>2013-08-22T09:54:46Z</time>
      </trkpt>
      <trkpt lat="47.20794" lon="-1.619">
        <ele>27.1</ele>
        <time>2013-08-22T09:54:48Z</time>
      </trkpt>
      <trkpt lat="47.20784" lon="-1.619">
        <ele>27</ele>
        <time>2013-08-22T09:54:50Z</time>
      </trkpt>
      <trkpt lat="47.20774" lon="-1.61901">
        <ele>27.8</ele>
        <time>2013-08-22T09:54:52Z</time>
      </trkpt>
      <trkpt lat="47.20761" lon="-1.61902">
        <ele>28.7</ele>
        <time>2013-08-22T09:54:55Z</time>
      </trkpt>
      <trkpt lat="47.20751" lon="-1.61903">
        <ele>29.7</ele>
        <time>2013-08-22T09:54:57Z</time>
      </trkpt>
      <trkpt lat="47.20742" lon="-1.61903">
        <ele>30.8</ele>
        <time>2013-08-22T09:54:59Z</time>
      </trkpt>
      <trkpt lat="47.20727" lon="-1.61901">
        <ele>31.4</ele>
        <time>2013-08-22T09:55:02Z</time>
      </trkpt>
      <trkpt lat="47.20716" lon="-1.61896">
        <ele>30.4</ele>
        <time>2013-08-22T09:55:04Z</time>
      </trkpt>
      <trkpt lat="47.20706" lon="-1.6189">
        <ele>29.7</ele>
        <time>2013-08-22T09:55:06Z</time>
      </trkpt>
      <trkpt lat="47.20698" lon="-1.61883">
        <ele>29.4</ele>
        <time>2013-08-22T09:55:08Z</time>
      </trkpt>
      <trkpt lat="47.20686" lon="-1.61874">
        <ele>30.7</ele>
        <time>2013-08-22T09:55:11Z</time>
      </trkpt>
      <trkpt lat="47.20674" lon="-1.61875">
        <ele>30.7</ele>
        <time>2013-08-22T09:55:13Z</time>
      </trkpt>
      <trkpt lat="47.2066" lon="-1.61883">
        <ele>30.4</ele>
        <time>2013-08-22T09:55:15Z</time>
      </trkpt>
      <trkpt lat="47.20642" lon="-1.61887">
        <ele>29.6</ele>
        <time>2013-08-22T09:55:17Z</time>
      </trkpt>
      <trkpt lat="47.20633" lon="-1.61888">
        <ele>28.9</ele>
        <time>2013-08-22T09:55:18Z</time>
      </trkpt>
      <trkpt lat="47.20615" lon="-1.61888">
        <ele>26.3</ele>
        <time>2013-08-22T09:55:20Z</time>
      </trkpt>
      <trkpt lat="47.20605" lon="-1.61889">
        <ele>24.8</ele>
        <time>2013-08-22T09:55:21Z</time>
      </trkpt>
      <trkpt lat="47.20595" lon="-1.6189">
        <ele>23.7</ele>
        <time>2013-08-22T09:55:22Z</time>
      </trkpt>
      <trkpt lat="47.20585" lon="-1.61892">
        <ele>23.2</ele>
        <time>2013-08-22T09:55:23Z</time>
      </trkpt>
      <trkpt lat="47.20575" lon="-1.61892">
        <ele>22.9</ele>
        <time>2013-08-22T09:55:24Z</time>
      </trkpt>
      <trkpt lat="47.20566" lon="-1.61893">
        <ele>22.6</ele>
        <time>2013-08-22T09:55:25Z</time>
      </trkpt>
      <trkpt lat="47.20556" lon="-1.61892">
        <ele>21.9</ele>
        <time>2013-08-22T09:55:26Z</time>
      </trkpt>
      <trkpt lat="47.20547" lon="-1.61891">
        <ele>20.9</ele>
        <time>2013-08-22T09:55:27Z</time>
      </trkpt>
      <trkpt lat="47.20538" lon="-1.61889">
        <ele>20.1</ele>
        <time>2013-08-22T09:55:28Z</time>
      </trkpt>
      <trkpt lat="47.20529" lon="-1.61886">
        <ele>19.2</ele>
        <time>2013-08-22T09:55:29Z</time>
      </trkpt>
      <trkpt lat="47.20518" lon="-1.61883">
        <ele>18.7</ele>
        <time>2013-08-22T09:55:30Z</time>
      </trkpt>
      <trkpt lat="47.20508" lon="-1.61881">
        <ele>18.4</ele>
        <time>2013-08-22T09:55:31Z</time>
      </trkpt>
      <trkpt lat="47.20498" lon="-1.61877">
        <ele>17.8</ele>
        <time>2013-08-22T09:55:32Z</time>
      </trkpt>
      <trkpt lat="47.20488" lon="-1.61873">
        <ele>17.2</ele>
        <time>2013-08-22T09:55:33Z</time>
      </trkpt>
      <trkpt lat="47.20479" lon="-1.61869">
        <ele>16.7</ele>
        <time>2013-08-22T09:55:34Z</time>
      </trkpt>
      <trkpt lat="47.2047" lon="-1.61866">
        <ele>16.1</ele>
        <time>2013-08-22T09:55:35Z</time>
      </trkpt>
      <trkpt lat="47.20453" lon="-1.61858">
        <ele>15.2</ele>
        <time>2013-08-22T09:55:37Z</time>
      </trkpt>
      <trkpt lat="47.20441" lon="-1.61853">
        <ele>14.6</ele>
        <time>2013-08-22T09:55:39Z</time>
      </trkpt>
      <trkpt lat="47.2043" lon="-1.61849">
        <ele>14</ele>
        <time>2013-08-22T09:55:42Z</time>
      </trkpt>
      <trkpt lat="47.20421" lon="-1.61841">
        <ele>13.2</ele>
        <time>2013-08-22T09:55:48Z</time>
      </trkpt>
      <trkpt lat="47.20412" lon="-1.61848">
        <ele>12.7</ele>
        <time>2013-08-22T09:55:52Z</time>
      </trkpt>
      <trkpt lat="47.20403" lon="-1.61855">
        <ele>12.4</ele>
        <time>2013-08-22T09:55:55Z</time>
      </trkpt>
      <trkpt lat="47.20392" lon="-1.61859">
        <ele>12.1</ele>
        <time>2013-08-22T09:55:58Z</time>
      </trkpt>
      <trkpt lat="47.20382" lon="-1.61861">
        <ele>11.8</ele>
        <time>2013-08-22T09:56:01Z</time>
      </trkpt>
      <trkpt lat="47.20371" lon="-1.61863">
        <ele>11.6</ele>
        <time>2013-08-22T09:56:04Z</time>
      </trkpt>
      <trkpt lat="47.2036" lon="-1.61866">
        <ele>11</ele>
        <time>2013-08-22T09:56:07Z</time>
      </trkpt>
      <trkpt lat="47.20348" lon="-1.6187">
        <ele>10.2</ele>
        <time>2013-08-22T09:56:10Z</time>
      </trkpt>
      <trkpt lat="47.20337" lon="-1.61875">
        <ele>10.1</ele>
        <time>2013-08-22T09:56:13Z</time>
      </trkpt>
      <trkpt lat="47.20326" lon="-1.61881">
        <ele>10</ele>
        <time>2013-08-22T09:56:16Z</time>
      </trkpt>
      <trkpt lat="47.20316" lon="-1.61887">
        <ele>10.1</ele>
        <time>2013-08-22T09:56:19Z</time>
      </trkpt>
      <trkpt lat="47.20305" lon="-1.61894">
        <ele>10.1</ele>
        <time>2013-08-22T09:56:22Z</time>
      </trkpt>
      <trkpt lat="47.20295" lon="-1.619">
        <ele>10.2</ele>
        <time>2013-08-22T09:56:25Z</time>
      </trkpt>
      <trkpt lat="47.20285" lon="-1.61906">
        <ele>10.3</ele>
        <time>2013-08-22T09:56:28Z</time>
      </trkpt>
      <trkpt lat="47.20276" lon="-1.61912">
        <ele>10.7</ele>
        <time>2013-08-22T09:56:32Z</time>
      </trkpt>
      <trkpt lat="47.20267" lon="-1.61919">
        <ele>11.1</ele>
        <time>2013-08-22T09:56:36Z</time>
      </trkpt>
      <trkpt lat="47.20257" lon="-1.61923">
        <ele>11.4</ele>
        <time>2013-08-22T09:56:40Z</time>
      </trkpt>
      <trkpt lat="47.20247" lon="-1.61928">
        <ele>11.5</ele>
        <time>2013-08-22T09:56:43Z</time>
      </trkpt>
      <trkpt lat="47.20236" lon="-1.61935">
        <ele>11.5</ele>
        <time>2013-08-22T09:56:46Z</time>
      </trkpt>
      <trkpt lat="47.20224" lon="-1.61942">
        <ele>11.6</ele>
        <time>2013-08-22T09:56:50Z</time>
      </trkpt>
      <trkpt lat="47.20214" lon="-1.61946">
        <ele>11.7</ele>
        <time>2013-08-22T09:56:53Z</time>
      </trkpt>
      <trkpt lat="47.20204" lon="-1.6195">
        <ele>11.9</ele>
        <time>2013-08-22T09:56:56Z</time>
      </trkpt>
      <trkpt lat="47.20194" lon="-1.61953">
        <ele>12</ele>
        <time>2013-08-22T09:56:59Z</time>
      </trkpt>
      <trkpt lat="47.20185" lon="-1.61957">
        <ele>12.1</ele>
        <time>2013-08-22T09:57:02Z</time>
      </trkpt>
      <trkpt lat="47.20175" lon="-1.61957">
        <ele>12.4</ele>
        <time>2013-08-22T09:57:06Z</time>
      </trkpt>
      <trkpt lat="47.2017" lon="-1.61944">
        <ele>12.7</ele>
        <time>2013-08-22T09:57:09Z</time>
      </trkpt>
      <trkpt lat="47.20167" lon="-1.61927">
        <ele>13</ele>
        <time>2013-08-22T09:57:12Z</time>
      </trkpt>
      <trkpt lat="47.20165" lon="-1.61911">
        <ele>13.2</ele>
        <time>2013-08-22T09:57:15Z</time>
      </trkpt>
      <trkpt lat="47.20164" lon="-1.61894">
        <ele>13.5</ele>
        <time>2013-08-22T09:57:18Z</time>
      </trkpt>
      <trkpt lat="47.20163" lon="-1.61879">
        <ele>13.7</ele>
        <time>2013-08-22T09:57:21Z</time>
      </trkpt>
      <trkpt lat="47.20162" lon="-1.61863">
        <ele>13.9</ele>
        <time>2013-08-22T09:57:24Z</time>
      </trkpt>
      <trkpt lat="47.20161" lon="-1.61844">
        <ele>14.1</ele>
        <time>2013-08-22T09:57:27Z</time>
      </trkpt>
      <trkpt lat="47.2016" lon="-1.61827">
        <ele>14.3</ele>
        <time>2013-08-22T09:57:30Z</time>
      </trkpt>
      <trkpt lat="47.20159" lon="-1.61809">
        <ele>15.8</ele>
        <time>2013-08-22T09:57:33Z</time>
      </trkpt>
      <trkpt lat="47.20158" lon="-1.61795">
        <ele>17</ele>
        <time>2013-08-22T09:57:35Z</time>
      </trkpt>
      <trkpt lat="47.20157" lon="-1.61777">
        <ele>17.3</ele>
        <time>2013-08-22T09:57:38Z</time>
      </trkpt>
      <trkpt lat="47.20155" lon="-1.61757">
        <ele>17.3</ele>
        <time>2013-08-22T09:57:41Z</time>
      </trkpt>
      <trkpt lat="47.20153" lon="-1.61739">
        <ele>17.2</ele>
        <time>2013-08-22T09:57:44Z</time>
      </trkpt>
      <trkpt lat="47.20146" lon="-1.61723">
        <ele>17</ele>
        <time>2013-08-22T09:57:47Z</time>
      </trkpt>
      <trkpt lat="47.20154" lon="-1.61732">
        <ele>17</ele>
        <time>2013-08-22T09:57:52Z</time>
      </trkpt>
      <trkpt lat="47.20151" lon="-1.61745">
        <ele>17</ele>
        <time>2013-08-22T09:57:56Z</time>
      </trkpt>
      <trkpt lat="47.20139" lon="-1.61747">
        <ele>16.7</ele>
        <time>2013-08-22T09:57:59Z</time>
      </trkpt>
      <trkpt lat="47.20128" lon="-1.61749">
        <ele>16.4</ele>
        <time>2013-08-22T09:58:02Z</time>
      </trkpt>
      <trkpt lat="47.20119" lon="-1.61743">
        <ele>16.1</ele>
        <time>2013-08-22T09:58:07Z</time>
      </trkpt>
      <trkpt lat="47.20118" lon="-1.61728">
        <ele>16.1</ele>
        <time>2013-08-22T09:58:11Z</time>
      </trkpt>
      <trkpt lat="47.20117" lon="-1.61711">
        <ele>15.9</ele>
        <time>2013-08-22T09:58:15Z</time>
      </trkpt>
      <trkpt lat="47.20111" lon="-1.61696">
        <ele>15.3</ele>
        <time>2013-08-22T09:58:22Z</time>
      </trkpt>
      <trkpt lat="47.20109" lon="-1.61682">
        <ele>15.2</ele>
        <time>2013-08-22T09:58:25Z</time>
      </trkpt>
      <trkpt lat="47.20106" lon="-1.61664">
        <ele>15.2</ele>
        <time>2013-08-22T09:58:28Z</time>
      </trkpt>
      <trkpt lat="47.20104" lon="-1.61646">
        <ele>15.1</ele>
        <time>2013-08-22T09:58:31Z</time>
      </trkpt>
      <trkpt lat="47.20099" lon="-1.61627">
        <ele>15.1</ele>
        <time>2013-08-22T09:58:34Z</time>
      </trkpt>
      <trkpt lat="47.20095" lon="-1.61614">
        <ele>15.3</ele>
        <time>2013-08-22T09:58:36Z</time>
      </trkpt>
      <trkpt lat="47.2009" lon="-1.61602">
        <ele>15.5</ele>
        <time>2013-08-22T09:58:38Z</time>
      </trkpt>
      <trkpt lat="47.20085" lon="-1.6159">
        <ele>15.3</ele>
        <time>2013-08-22T09:58:40Z</time>
      </trkpt>
      <trkpt lat="47.20079" lon="-1.61578">
        <ele>15.1</ele>
        <time>2013-08-22T09:58:42Z</time>
      </trkpt>
      <trkpt lat="47.20072" lon="-1.61567">
        <ele>15.3</ele>
        <time>2013-08-22T09:58:44Z</time>
      </trkpt>
      <trkpt lat="47.20064" lon="-1.61558">
        <ele>15.4</ele>
        <time>2013-08-22T09:58:47Z</time>
      </trkpt>
      <trkpt lat="47.20054" lon="-1.61561">
        <ele>15.5</ele>
        <time>2013-08-22T09:58:51Z</time>
      </trkpt>
      <trkpt lat="47.20045" lon="-1.6157">
        <ele>15.3</ele>
        <time>2013-08-22T09:58:55Z</time>
      </trkpt>
      <trkpt lat="47.20036" lon="-1.61563">
        <ele>15</ele>
        <time>2013-08-22T09:58:59Z</time>
      </trkpt>
      <trkpt lat="47.20027" lon="-1.6155">
        <ele>14.7</ele>
        <time>2013-08-22T09:59:02Z</time>
      </trkpt>
      <trkpt lat="47.20019" lon="-1.61537">
        <ele>14.6</ele>
        <time>2013-08-22T09:59:05Z</time>
      </trkpt>
      <trkpt lat="47.20011" lon="-1.61523">
        <ele>14.8</ele>
        <time>2013-08-22T09:59:08Z</time>
      </trkpt>
      <trkpt lat="47.20004" lon="-1.61509">
        <ele>14.9</ele>
        <time>2013-08-22T09:59:11Z</time>
      </trkpt>
      <trkpt lat="47.19999" lon="-1.61495">
        <ele>14.9</ele>
        <time>2013-08-22T09:59:14Z</time>
      </trkpt>
      <trkpt lat="47.19994" lon="-1.61483">
        <ele>14.8</ele>
        <time>2013-08-22T09:59:17Z</time>
      </trkpt>
      <trkpt lat="47.19991" lon="-1.61467">
        <ele>14.6</ele>
        <time>2013-08-22T09:59:20Z</time>
      </trkpt>
      <trkpt lat="47.19995" lon="-1.61454">
        <ele>14.6</ele>
        <time>2013-08-22T09:59:22Z</time>
      </trkpt>
      <trkpt lat="47.20003" lon="-1.61445">
        <ele>14.7</ele>
        <time>2013-08-22T09:59:25Z</time>
      </trkpt>
      <trkpt lat="47.20013" lon="-1.61438">
        <ele>14.8</ele>
        <time>2013-08-22T09:59:28Z</time>
      </trkpt>
      <trkpt lat="47.20023" lon="-1.61429">
        <ele>14.9</ele>
        <time>2013-08-22T09:59:31Z</time>
      </trkpt>
      <trkpt lat="47.20032" lon="-1.61421">
        <ele>15.1</ele>
        <time>2013-08-22T09:59:34Z</time>
      </trkpt>
      <trkpt lat="47.20041" lon="-1.61412">
        <ele>14.6</ele>
        <time>2013-08-22T09:59:36Z</time>
      </trkpt>
      <trkpt lat="47.20049" lon="-1.61404">
        <ele>14.1</ele>
        <time>2013-08-22T09:59:38Z</time>
      </trkpt>
      <trkpt lat="47.20061" lon="-1.61399">
        <ele>14.2</ele>
        <time>2013-08-22T09:59:41Z</time>
      </trkpt>
      <trkpt lat="47.20074" lon="-1.61397">
        <ele>14.3</ele>
        <time>2013-08-22T09:59:44Z</time>
      </trkpt>
      <trkpt lat="47.20085" lon="-1.61397">
        <ele>14.3</ele>
        <time>2013-08-22T09:59:47Z</time>
      </trkpt>
      <trkpt lat="47.20097" lon="-1.61402">
        <ele>14.3</ele>
        <time>2013-08-22T09:59:50Z</time>
      </trkpt>
      <trkpt lat="47.20106" lon="-1.61407">
        <ele>14.4</ele>
        <time>2013-08-22T09:59:52Z</time>
      </trkpt>
      <trkpt lat="47.20115" lon="-1.61414">
        <ele>14.3</ele>
        <time>2013-08-22T09:59:54Z</time>
      </trkpt>
      <trkpt lat="47.20125" lon="-1.6142">
        <ele>14.3</ele>
        <time>2013-08-22T09:59:56Z</time>
      </trkpt>
      <trkpt lat="47.20136" lon="-1.61426">
        <ele>14.4</ele>
        <time>2013-08-22T09:59:58Z</time>
      </trkpt>
      <trkpt lat="47.20145" lon="-1.61432">
        <ele>14.3</ele>
        <time>2013-08-22T10:00:00Z</time>
      </trkpt>
      <trkpt lat="47.20155" lon="-1.61439">
        <ele>14.8</ele>
        <time>2013-08-22T10:00:02Z</time>
      </trkpt>
      <trkpt lat="47.20164" lon="-1.61445">
        <ele>15.4</ele>
        <time>2013-08-22T10:00:04Z</time>
      </trkpt>
      <trkpt lat="47.20176" lon="-1.61452">
        <ele>15.9</ele>
        <time>2013-08-22T10:00:07Z</time>
      </trkpt>
      <trkpt lat="47.20187" lon="-1.61456">
        <ele>16.3</ele>
        <time>2013-08-22T10:00:09Z</time>
      </trkpt>
      <trkpt lat="47.20196" lon="-1.6146">
        <ele>16.2</ele>
        <time>2013-08-22T10:00:11Z</time>
      </trkpt>
      <trkpt lat="47.20206" lon="-1.61463">
        <ele>16.6</ele>
        <time>2013-08-22T10:00:13Z</time>
      </trkpt>
      <trkpt lat="47.20215" lon="-1.61466">
        <ele>16.8</ele>
        <time>2013-08-22T10:00:15Z</time>
      </trkpt>
      <trkpt lat="47.20226" lon="-1.61468">
        <ele>17</ele>
        <time>2013-08-22T10:00:17Z</time>
      </trkpt>
      <trkpt lat="47.20235" lon="-1.6147">
        <ele>17</ele>
        <time>2013-08-22T10:00:19Z</time>
      </trkpt>
      <trkpt lat="47.20246" lon="-1.61471">
        <ele>17.1</ele>
        <time>2013-08-22T10:00:22Z</time>
      </trkpt>
      <trkpt lat="47.20239" lon="-1.61482">
        <ele>17</ele>
        <time>2013-08-22T10:00:33Z</time>
      </trkpt>
      <trkpt lat="47.20237" lon="-1.61498">
        <ele>17.4</ele>
        <time>2013-08-22T10:00:37Z</time>
      </trkpt>
      <trkpt lat="47.20236" lon="-1.61517">
        <ele>17.7</ele>
        <time>2013-08-22T10:00:40Z</time>
      </trkpt>
      <trkpt lat="47.20235" lon="-1.61531">
        <ele>17.8</ele>
        <time>2013-08-22T10:00:42Z</time>
      </trkpt>
      <trkpt lat="47.20234" lon="-1.61546">
        <ele>18.2</ele>
        <time>2013-08-22T10:00:44Z</time>
      </trkpt>
      <trkpt lat="47.20232" lon="-1.6156">
        <ele>17.8</ele>
        <time>2013-08-22T10:00:46Z</time>
      </trkpt>
      <trkpt lat="47.20231" lon="-1.61575">
        <ele>16.8</ele>
        <time>2013-08-22T10:00:48Z</time>
      </trkpt>
      <trkpt lat="47.2023" lon="-1.6159">
        <ele>16</ele>
        <time>2013-08-22T10:00:50Z</time>
      </trkpt>
      <trkpt lat="47.20232" lon="-1.61607">
        <ele>16.7</ele>
        <time>2013-08-22T10:00:53Z</time>
      </trkpt>
      <trkpt lat="47.20234" lon="-1.61621">
        <ele>17.5</ele>
        <time>2013-08-22T10:00:55Z</time>
      </trkpt>
      <trkpt lat="47.20236" lon="-1.61635">
        <ele>17.6</ele>
        <time>2013-08-22T10:00:57Z</time>
      </trkpt>
      <trkpt lat="47.20238" lon="-1.6165">
        <ele>17.1</ele>
        <time>2013-08-22T10:00:59Z</time>
      </trkpt>
      <trkpt lat="47.20239" lon="-1.61667">
        <ele>16.5</ele>
        <time>2013-08-22T10:01:01Z</time>
      </trkpt>
      <trkpt lat="47.2024" lon="-1.61681">
        <ele>16.3</ele>
        <time>2013-08-22T10:01:03Z</time>
      </trkpt>
      <trkpt lat="47.20242" lon="-1.61696">
        <ele>16.6</ele>
        <time>2013-08-22T10:01:05Z</time>
      </trkpt>
      <trkpt lat="47.20244" lon="-1.61712">
        <ele>16.8</ele>
        <time>2013-08-22T10:01:07Z</time>
      </trkpt>
      <trkpt lat="47.20246" lon="-1.61728">
        <ele>16.6</ele>
        <time>2013-08-22T10:01:09Z</time>
      </trkpt>
      <trkpt lat="47.20248" lon="-1.61744">
        <ele>16.5</ele>
        <time>2013-08-22T10:01:11Z</time>
      </trkpt>
      <trkpt lat="47.20251" lon="-1.61762">
        <ele>16.3</ele>
        <time>2013-08-22T10:01:14Z</time>
      </trkpt>
      <trkpt lat="47.20254" lon="-1.61779">
        <ele>16.8</ele>
        <time>2013-08-22T10:01:17Z</time>
      </trkpt>
      <trkpt lat="47.20259" lon="-1.61797">
        <ele>17.3</ele>
        <time>2013-08-22T10:01:20Z</time>
      </trkpt>
      <trkpt lat="47.20261" lon="-1.61812">
        <ele>17.2</ele>
        <time>2013-08-22T10:01:22Z</time>
      </trkpt>
      <trkpt lat="47.20263" lon="-1.61826">
        <ele>17.5</ele>
        <time>2013-08-22T10:01:24Z</time>
      </trkpt>
      <trkpt lat="47.20266" lon="-1.6184">
        <ele>17.5</ele>
        <time>2013-08-22T10:01:26Z</time>
      </trkpt>
      <trkpt lat="47.2027" lon="-1.61855">
        <ele>16.9</ele>
        <time>2013-08-22T10:01:28Z</time>
      </trkpt>
      <trkpt lat="47.20274" lon="-1.61871">
        <ele>16.2</ele>
        <time>2013-08-22T10:01:30Z</time>
      </trkpt>
      <trkpt lat="47.20277" lon="-1.61888">
        <ele>15.8</ele>
        <time>2013-08-22T10:01:32Z</time>
      </trkpt>
      <trkpt lat="47.2028" lon="-1.61901">
        <ele>15.8</ele>
        <time>2013-08-22T10:01:34Z</time>
      </trkpt>
      <trkpt lat="47.20292" lon="-1.61903">
        <ele>16.4</ele>
        <time>2013-08-22T10:01:37Z</time>
      </trkpt>
      <trkpt lat="47.20301" lon="-1.61896">
        <ele>17</ele>
        <time>2013-08-22T10:01:39Z</time>
      </trkpt>
      <trkpt lat="47.20311" lon="-1.61889">
        <ele>17.3</ele>
        <time>2013-08-22T10:01:41Z</time>
      </trkpt>
      <trkpt lat="47.2032" lon="-1.61882">
        <ele>17.3</ele>
        <time>2013-08-22T10:01:43Z</time>
      </trkpt>
      <trkpt lat="47.20331" lon="-1.61877">
        <ele>16.7</ele>
        <time>2013-08-22T10:01:45Z</time>
      </trkpt>
      <trkpt lat="47.20342" lon="-1.6187">
        <ele>16.2</ele>
        <time>2013-08-22T10:01:47Z</time>
      </trkpt>
      <trkpt lat="47.20353" lon="-1.61864">
        <ele>15.9</ele>
        <time>2013-08-22T10:01:49Z</time>
      </trkpt>
      <trkpt lat="47.20365" lon="-1.6186">
        <ele>15.5</ele>
        <time>2013-08-22T10:01:51Z</time>
      </trkpt>
      <trkpt lat="47.20376" lon="-1.61856">
        <ele>15.2</ele>
        <time>2013-08-22T10:01:53Z</time>
      </trkpt>
      <trkpt lat="47.20385" lon="-1.61853">
        <ele>14.9</ele>
        <time>2013-08-22T10:01:55Z</time>
      </trkpt>
      <trkpt lat="47.2039" lon="-1.61868">
        <ele>14.4</ele>
        <time>2013-08-22T10:02:00Z</time>
      </trkpt>
      <trkpt lat="47.204" lon="-1.61876">
        <ele>14.3</ele>
        <time>2013-08-22T10:02:04Z</time>
      </trkpt>
      <trkpt lat="47.20409" lon="-1.61884">
        <ele>14.2</ele>
        <time>2013-08-22T10:02:07Z</time>
      </trkpt>
      <trkpt lat="47.20414" lon="-1.619">
        <ele>14.1</ele>
        <time>2013-08-22T10:02:10Z</time>
      </trkpt>
      <trkpt lat="47.2042" lon="-1.61917">
        <ele>13.7</ele>
        <time>2013-08-22T10:02:13Z</time>
      </trkpt>
      <trkpt lat="47.20427" lon="-1.61929">
        <ele>13.3</ele>
        <time>2013-08-22T10:02:17Z</time>
      </trkpt>
      <trkpt lat="47.20432" lon="-1.6194">
        <ele>12.9</ele>
        <time>2013-08-22T10:02:20Z</time>
      </trkpt>
      <trkpt lat="47.20432" lon="-1.6196">
        <ele>11.7</ele>
        <time>2013-08-22T10:02:23Z</time>
      </trkpt>
      <trkpt lat="47.20432" lon="-1.61981">
        <ele>8.5</ele>
        <time>2013-08-22T10:02:25Z</time>
      </trkpt>
      <trkpt lat="47.20433" lon="-1.61997">
        <ele>5.5</ele>
        <time>2013-08-22T10:02:27Z</time>
      </trkpt>
      <trkpt lat="47.20437" lon="-1.62017">
        <ele>2</ele>
        <time>2013-08-22T10:02:30Z</time>
      </trkpt>
      <trkpt lat="47.20439" lon="-1.62035">
        <ele>-1.3</ele>
        <time>2013-08-22T10:02:32Z</time>
      </trkpt>
      <trkpt lat="47.20439" lon="-1.62057">
        <ele>-2.4</ele>
        <time>2013-08-22T10:02:34Z</time>
      </trkpt>
      <trkpt lat="47.20435" lon="-1.6207">
        <ele>-3.8</ele>
        <time>2013-08-22T10:02:36Z</time>
      </trkpt>
      <trkpt lat="47.20427" lon="-1.62084">
        <ele>-3.9</ele>
        <time>2013-08-22T10:02:39Z</time>
      </trkpt>
      <trkpt lat="47.20416" lon="-1.62095">
        <ele>-3</ele>
        <time>2013-08-22T10:02:42Z</time>
      </trkpt>
      <trkpt lat="47.20406" lon="-1.62101">
        <ele>-1.9</ele>
        <time>2013-08-22T10:02:44Z</time>
      </trkpt>
      <trkpt lat="47.20394" lon="-1.62109">
        <ele>-1.5</ele>
        <time>2013-08-22T10:02:46Z</time>
      </trkpt>
      <trkpt lat="47.20384" lon="-1.62119">
        <ele>-1.3</ele>
        <time>2013-08-22T10:02:48Z</time>
      </trkpt>
      <trkpt lat="47.20376" lon="-1.6213">
        <ele>-1.4</ele>
        <time>2013-08-22T10:02:50Z</time>
      </trkpt>
      <trkpt lat="47.20365" lon="-1.62139">
        <ele>-1.3</ele>
        <time>2013-08-22T10:02:53Z</time>
      </trkpt>
      <trkpt lat="47.20356" lon="-1.62145">
        <ele>-1.2</ele>
        <time>2013-08-22T10:02:57Z</time>
      </trkpt>
      <trkpt lat="47.20349" lon="-1.62154">
        <ele>0.2</ele>
        <time>2013-08-22T10:03:47Z</time>
      </trkpt>
      <trkpt lat="47.20341" lon="-1.62165">
        <ele>0.3</ele>
        <time>2013-08-22T10:03:52Z</time>
      </trkpt>
      <trkpt lat="47.20336" lon="-1.62176">
        <ele>0.6</ele>
        <time>2013-08-22T10:04:02Z</time>
      </trkpt>
      <trkpt lat="47.20338" lon="-1.6219">
        <ele>2.3</ele>
        <time>2013-08-22T10:04:19Z</time>
      </trkpt>
      <trkpt lat="47.20344" lon="-1.62203">
        <ele>3.4</ele>
        <time>2013-08-22T10:04:28Z</time>
      </trkpt>
      <trkpt lat="47.20352" lon="-1.62214">
        <ele>4.2</ele>
        <time>2013-08-22T10:04:33Z</time>
      </trkpt>
      <trkpt lat="47.2036" lon="-1.62224">
        <ele>4.9</ele>
        <time>2013-08-22T10:04:38Z</time>
      </trkpt>
      <trkpt lat="47.20367" lon="-1.62232">
        <ele>5.4</ele>
        <time>2013-08-22T10:04:42Z</time>
      </trkpt>
      <trkpt lat="47.20376" lon="-1.62241">
        <ele>6</ele>
        <time>2013-08-22T10:04:46Z</time>
      </trkpt>
      <trkpt lat="47.20385" lon="-1.6225">
        <ele>6.9</ele>
        <time>2013-08-22T10:04:51Z</time>
      </trkpt>
      <trkpt lat="47.20392" lon="-1.62259">
        <ele>7.6</ele>
        <time>2013-08-22T10:04:55Z</time>
      </trkpt>
      <trkpt lat="47.204" lon="-1.62266">
        <ele>8.2</ele>
        <time>2013-08-22T10:04:59Z</time>
      </trkpt>
      <trkpt lat="47.2041" lon="-1.62275">
        <ele>8.9</ele>
        <time>2013-08-22T10:05:04Z</time>
      </trkpt>
      <trkpt lat="47.20419" lon="-1.62282">
        <ele>9.3</ele>
        <time>2013-08-22T10:05:07Z</time>
      </trkpt>
      <trkpt lat="47.20429" lon="-1.6229">
        <ele>9.6</ele>
        <time>2013-08-22T10:05:10Z</time>
      </trkpt>
      <trkpt lat="47.20438" lon="-1.62298">
        <ele>10</ele>
        <time>2013-08-22T10:05:13Z</time>
      </trkpt>
      <trkpt lat="47.20447" lon="-1.62306">
        <ele>10.3</ele>
        <time>2013-08-22T10:05:16Z</time>
      </trkpt>
      <trkpt lat="47.20457" lon="-1.62316">
        <ele>10.7</ele>
        <time>2013-08-22T10:05:19Z</time>
      </trkpt>
      <trkpt lat="47.20466" lon="-1.62325">
        <ele>11.2</ele>
        <time>2013-08-22T10:05:22Z</time>
      </trkpt>
      <trkpt lat="47.20476" lon="-1.62332">
        <ele>11.7</ele>
        <time>2013-08-22T10:05:25Z</time>
      </trkpt>
      <trkpt lat="47.20485" lon="-1.62339">
        <ele>12</ele>
        <time>2013-08-22T10:05:28Z</time>
      </trkpt>
      <trkpt lat="47.20496" lon="-1.62348">
        <ele>14.4</ele>
        <time>2013-08-22T10:05:31Z</time>
      </trkpt>
      <trkpt lat="47.20505" lon="-1.62355">
        <ele>14.7</ele>
        <time>2013-08-22T10:05:34Z</time>
      </trkpt>
      <trkpt lat="47.20515" lon="-1.62361">
        <ele>15</ele>
        <time>2013-08-22T10:05:38Z</time>
      </trkpt>
      <trkpt lat="47.20518" lon="-1.62346">
        <ele>15.4</ele>
        <time>2013-08-22T10:05:44Z</time>
      </trkpt>
      <trkpt lat="47.20525" lon="-1.62334">
        <ele>15.4</ele>
        <time>2013-08-22T10:05:49Z</time>
      </trkpt>
      <trkpt lat="47.20534" lon="-1.62327">
        <ele>15.4</ele>
        <time>2013-08-22T10:05:52Z</time>
      </trkpt>
      <trkpt lat="47.20544" lon="-1.62323">
        <ele>15.4</ele>
        <time>2013-08-22T10:05:55Z</time>
      </trkpt>
      <trkpt lat="47.20554" lon="-1.62315">
        <ele>15.6</ele>
        <time>2013-08-22T10:05:58Z</time>
      </trkpt>
      <trkpt lat="47.20562" lon="-1.62308">
        <ele>15.9</ele>
        <time>2013-08-22T10:06:01Z</time>
      </trkpt>
      <trkpt lat="47.2057" lon="-1.62303">
        <ele>16</ele>
        <time>2013-08-22T10:06:04Z</time>
      </trkpt>
      <trkpt lat="47.2058" lon="-1.62297">
        <ele>16</ele>
        <time>2013-08-22T10:06:07Z</time>
      </trkpt>
      <trkpt lat="47.20589" lon="-1.6229">
        <ele>15.9</ele>
        <time>2013-08-22T10:06:10Z</time>
      </trkpt>
      <trkpt lat="47.20596" lon="-1.62282">
        <ele>17</ele>
        <time>2013-08-22T10:06:29Z</time>
      </trkpt>
      <trkpt lat="47.20603" lon="-1.62272">
        <ele>17.1</ele>
        <time>2013-08-22T10:06:34Z</time>
      </trkpt>
      <trkpt lat="47.20612" lon="-1.62275">
        <ele>17</ele>
        <time>2013-08-22T10:06:39Z</time>
      </trkpt>
      <trkpt lat="47.20615" lon="-1.62291">
        <ele>17.1</ele>
        <time>2013-08-22T10:06:43Z</time>
      </trkpt>
      <trkpt lat="47.20616" lon="-1.62308">
        <ele>16.9</ele>
        <time>2013-08-22T10:06:46Z</time>
      </trkpt>
      <trkpt lat="47.20616" lon="-1.62321">
        <ele>16.9</ele>
        <time>2013-08-22T10:06:49Z</time>
      </trkpt>
      <trkpt lat="47.20617" lon="-1.62336">
        <ele>16.7</ele>
        <time>2013-08-22T10:06:52Z</time>
      </trkpt>
      <trkpt lat="47.20618" lon="-1.62354">
        <ele>16.6</ele>
        <time>2013-08-22T10:06:55Z</time>
      </trkpt>
      <trkpt lat="47.20617" lon="-1.62368">
        <ele>16.4</ele>
        <time>2013-08-22T10:06:58Z</time>
      </trkpt>
      <trkpt lat="47.20614" lon="-1.62385">
        <ele>16.1</ele>
        <time>2013-08-22T10:07:01Z</time>
      </trkpt>
      <trkpt lat="47.20613" lon="-1.62398">
        <ele>15.7</ele>
        <time>2013-08-22T10:07:03Z</time>
      </trkpt>
      <trkpt lat="47.20612" lon="-1.62413">
        <ele>15.6</ele>
        <time>2013-08-22T10:07:05Z</time>
      </trkpt>
      <trkpt lat="47.20609" lon="-1.62429">
        <ele>15.4</ele>
        <time>2013-08-22T10:07:08Z</time>
      </trkpt>
      <trkpt lat="47.20608" lon="-1.62443">
        <ele>15.5</ele>
        <time>2013-08-22T10:07:11Z</time>
      </trkpt>
      <trkpt lat="47.20617" lon="-1.62454">
        <ele>15.8</ele>
        <time>2013-08-22T10:07:15Z</time>
      </trkpt>
      <trkpt lat="47.20626" lon="-1.62459">
        <ele>16.1</ele>
        <time>2013-08-22T10:07:18Z</time>
      </trkpt>
      <trkpt lat="47.20635" lon="-1.62465">
        <ele>16.6</ele>
        <time>2013-08-22T10:07:22Z</time>
      </trkpt>
      <trkpt lat="47.20646" lon="-1.62473">
        <ele>17.1</ele>
        <time>2013-08-22T10:07:26Z</time>
      </trkpt>
      <trkpt lat="47.20656" lon="-1.62481">
        <ele>17.3</ele>
        <time>2013-08-22T10:07:29Z</time>
      </trkpt>
      <trkpt lat="47.20667" lon="-1.62489">
        <ele>17.6</ele>
        <time>2013-08-22T10:07:32Z</time>
      </trkpt>
      <trkpt lat="47.20676" lon="-1.62497">
        <ele>18</ele>
        <time>2013-08-22T10:07:35Z</time>
      </trkpt>
      <trkpt lat="47.20688" lon="-1.62495">
        <ele>18.4</ele>
        <time>2013-08-22T10:07:39Z</time>
      </trkpt>
      <trkpt lat="47.20697" lon="-1.62492">
        <ele>18.7</ele>
        <time>2013-08-22T10:07:42Z</time>
      </trkpt>
      <trkpt lat="47.20708" lon="-1.62493">
        <ele>19.1</ele>
        <time>2013-08-22T10:07:46Z</time>
      </trkpt>
      <trkpt lat="47.20713" lon="-1.62482">
        <ele>19.4</ele>
        <time>2013-08-22T10:07:50Z</time>
      </trkpt>
      <trkpt lat="47.20721" lon="-1.62475">
        <ele>20.7</ele>
        <time>2013-08-22T10:08:30Z</time>
      </trkpt>
      <trkpt lat="47.20731" lon="-1.62475">
        <ele>20.8</ele>
        <time>2013-08-22T10:08:48Z</time>
      </trkpt>
      <trkpt lat="47.20739" lon="-1.62467">
        <ele>21</ele>
        <time>2013-08-22T10:08:53Z</time>
      </trkpt>
      <trkpt lat="47.20746" lon="-1.6246">
        <ele>21.4</ele>
        <time>2013-08-22T10:09:01Z</time>
      </trkpt>
      <trkpt lat="47.20754" lon="-1.62454">
        <ele>21.7</ele>
        <time>2013-08-22T10:09:28Z</time>
      </trkpt>
      <trkpt lat="47.20759" lon="-1.62442">
        <ele>21.8</ele>
        <time>2013-08-22T10:09:47Z</time>
      </trkpt>
      <trkpt lat="47.20752" lon="-1.62452">
        <ele>24.6</ele>
        <time>2013-08-22T10:10:55Z</time>
      </trkpt>
      <trkpt lat="47.20745" lon="-1.6246">
        <ele>24.8</ele>
        <time>2013-08-22T10:11:17Z</time>
      </trkpt>
      <trkpt lat="47.20736" lon="-1.62465">
        <ele>25</ele>
        <time>2013-08-22T10:11:38Z</time>
      </trkpt>
      <trkpt lat="47.20728" lon="-1.62473">
        <ele>24.5</ele>
        <time>2013-08-22T10:12:26Z</time>
      </trkpt>
      <trkpt lat="47.20719" lon="-1.62475">
        <ele>24.5</ele>
        <time>2013-08-22T10:12:52Z</time>
      </trkpt>
      <trkpt lat="47.20712" lon="-1.62484">
        <ele>24.4</ele>
        <time>2013-08-22T10:13:10Z</time>
      </trkpt>
      <trkpt lat="47.20705" lon="-1.62494">
        <ele>23.7</ele>
        <time>2013-08-22T10:13:21Z</time>
      </trkpt>
      <trkpt lat="47.20694" lon="-1.62495">
        <ele>23.5</ele>
        <time>2013-08-22T10:13:25Z</time>
      </trkpt>
      <trkpt lat="47.20683" lon="-1.62495">
        <ele>23.4</ele>
        <time>2013-08-22T10:13:28Z</time>
      </trkpt>
      <trkpt lat="47.20672" lon="-1.62495">
        <ele>23.2</ele>
        <time>2013-08-22T10:13:32Z</time>
      </trkpt>
      <trkpt lat="47.20663" lon="-1.62488">
        <ele>23</ele>
        <time>2013-08-22T10:13:35Z</time>
      </trkpt>
      <trkpt lat="47.20654" lon="-1.62481">
        <ele>22.7</ele>
        <time>2013-08-22T10:13:38Z</time>
      </trkpt>
      <trkpt lat="47.20643" lon="-1.62472">
        <ele>22.4</ele>
        <time>2013-08-22T10:13:41Z</time>
      </trkpt>
      <trkpt lat="47.20632" lon="-1.62463">
        <ele>22.2</ele>
        <time>2013-08-22T10:13:44Z</time>
      </trkpt>
      <trkpt lat="47.20622" lon="-1.62453">
        <ele>19.7</ele>
        <time>2013-08-22T10:13:47Z</time>
      </trkpt>
      <trkpt lat="47.20611" lon="-1.62444">
        <ele>18.2</ele>
        <time>2013-08-22T10:13:50Z</time>
      </trkpt>
      <trkpt lat="47.206" lon="-1.62434">
        <ele>18</ele>
        <time>2013-08-22T10:13:53Z</time>
      </trkpt>
      <trkpt lat="47.2059" lon="-1.62427">
        <ele>18</ele>
        <time>2013-08-22T10:13:57Z</time>
      </trkpt>
      <trkpt lat="47.20581" lon="-1.62419">
        <ele>18.2</ele>
        <time>2013-08-22T10:14:00Z</time>
      </trkpt>
      <trkpt lat="47.20572" lon="-1.62411">
        <ele>17.4</ele>
        <time>2013-08-22T10:14:02Z</time>
      </trkpt>
      <trkpt lat="47.20564" lon="-1.62402">
        <ele>16.2</ele>
        <time>2013-08-22T10:14:04Z</time>
      </trkpt>
      <trkpt lat="47.20555" lon="-1.62395">
        <ele>15.3</ele>
        <time>2013-08-22T10:14:06Z</time>
      </trkpt>
      <trkpt lat="47.20546" lon="-1.62387">
        <ele>14.9</ele>
        <time>2013-08-22T10:14:08Z</time>
      </trkpt>
      <trkpt lat="47.20534" lon="-1.62376">
        <ele>15.2</ele>
        <time>2013-08-22T10:14:11Z</time>
      </trkpt>
      <trkpt lat="47.20526" lon="-1.62368">
        <ele>15.8</ele>
        <time>2013-08-22T10:14:13Z</time>
      </trkpt>
      <trkpt lat="47.20518" lon="-1.62361">
        <ele>17</ele>
        <time>2013-08-22T10:14:15Z</time>
      </trkpt>
      <trkpt lat="47.20514" lon="-1.62348">
        <ele>17.1</ele>
        <time>2013-08-22T10:14:22Z</time>
      </trkpt>
      <trkpt lat="47.20521" lon="-1.6234">
        <ele>17</ele>
        <time>2013-08-22T10:14:26Z</time>
      </trkpt>
      <trkpt lat="47.20531" lon="-1.62332">
        <ele>16.9</ele>
        <time>2013-08-22T10:14:29Z</time>
      </trkpt>
      <trkpt lat="47.20542" lon="-1.62326">
        <ele>17</ele>
        <time>2013-08-22T10:14:32Z</time>
      </trkpt>
      <trkpt lat="47.20553" lon="-1.6232">
        <ele>17</ele>
        <time>2013-08-22T10:14:35Z</time>
      </trkpt>
      <trkpt lat="47.20564" lon="-1.62312">
        <ele>17.2</ele>
        <time>2013-08-22T10:14:38Z</time>
      </trkpt>
      <trkpt lat="47.20573" lon="-1.62303">
        <ele>17.3</ele>
        <time>2013-08-22T10:14:41Z</time>
      </trkpt>
      <trkpt lat="47.20581" lon="-1.62296">
        <ele>17.4</ele>
        <time>2013-08-22T10:14:44Z</time>
      </trkpt>
      <trkpt lat="47.2059" lon="-1.62287">
        <ele>17.4</ele>
        <time>2013-08-22T10:14:47Z</time>
      </trkpt>
      <trkpt lat="47.20597" lon="-1.62278">
        <ele>17.2</ele>
        <time>2013-08-22T10:15:07Z</time>
      </trkpt>
      <trkpt lat="47.20604" lon="-1.62269">
        <ele>16.5</ele>
        <time>2013-08-22T10:15:17Z</time>
      </trkpt>
      <trkpt lat="47.20613" lon="-1.62261">
        <ele>16.3</ele>
        <time>2013-08-22T10:15:38Z</time>
      </trkpt>
      <trkpt lat="47.20622" lon="-1.62249">
        <ele>16</ele>
        <time>2013-08-22T10:15:42Z</time>
      </trkpt>
      <trkpt lat="47.20632" lon="-1.62243">
        <ele>15.7</ele>
        <time>2013-08-22T10:15:46Z</time>
      </trkpt>
      <trkpt lat="47.20641" lon="-1.62238">
        <ele>15.9</ele>
        <time>2013-08-22T10:15:49Z</time>
      </trkpt>
      <trkpt lat="47.20651" lon="-1.62234">
        <ele>16</ele>
        <time>2013-08-22T10:15:52Z</time>
      </trkpt>
      <trkpt lat="47.20662" lon="-1.62229">
        <ele>16.1</ele>
        <time>2013-08-22T10:15:55Z</time>
      </trkpt>
      <trkpt lat="47.20672" lon="-1.6222">
        <ele>16.3</ele>
        <time>2013-08-22T10:15:58Z</time>
      </trkpt>
      <trkpt lat="47.20679" lon="-1.6221">
        <ele>16.6</ele>
        <time>2013-08-22T10:16:01Z</time>
      </trkpt>
      <trkpt lat="47.20687" lon="-1.622">
        <ele>16.8</ele>
        <time>2013-08-22T10:16:04Z</time>
      </trkpt>
      <trkpt lat="47.20695" lon="-1.62187">
        <ele>17.4</ele>
        <time>2013-08-22T10:16:08Z</time>
      </trkpt>
      <trkpt lat="47.20703" lon="-1.62174">
        <ele>18</ele>
        <time>2013-08-22T10:16:12Z</time>
      </trkpt>
      <trkpt lat="47.20711" lon="-1.62166">
        <ele>18.5</ele>
        <time>2013-08-22T10:16:15Z</time>
      </trkpt>
      <trkpt lat="47.20718" lon="-1.62157">
        <ele>19</ele>
        <time>2013-08-22T10:16:18Z</time>
      </trkpt>
      <trkpt lat="47.20725" lon="-1.62149">
        <ele>19.4</ele>
        <time>2013-08-22T10:16:21Z</time>
      </trkpt>
      <trkpt lat="47.20733" lon="-1.6214">
        <ele>19.9</ele>
        <time>2013-08-22T10:16:24Z</time>
      </trkpt>
      <trkpt lat="47.20741" lon="-1.62131">
        <ele>20.3</ele>
        <time>2013-08-22T10:16:27Z</time>
      </trkpt>
      <trkpt lat="47.2075" lon="-1.62121">
        <ele>20.9</ele>
        <time>2013-08-22T10:16:31Z</time>
      </trkpt>
      <trkpt lat="47.2076" lon="-1.62112">
        <ele>21.3</ele>
        <time>2013-08-22T10:16:35Z</time>
      </trkpt>
      <trkpt lat="47.20768" lon="-1.62105">
        <ele>21.7</ele>
        <time>2013-08-22T10:16:38Z</time>
      </trkpt>
      <trkpt lat="47.20776" lon="-1.62099">
        <ele>21.9</ele>
        <time>2013-08-22T10:16:41Z</time>
      </trkpt>
      <trkpt lat="47.20786" lon="-1.62092">
        <ele>22.3</ele>
        <time>2013-08-22T10:16:45Z</time>
      </trkpt>
      <trkpt lat="47.20795" lon="-1.62085">
        <ele>22.8</ele>
        <time>2013-08-22T10:16:49Z</time>
      </trkpt>
      <trkpt lat="47.20805" lon="-1.62078">
        <ele>23.2</ele>
        <time>2013-08-22T10:16:53Z</time>
      </trkpt>
      <trkpt lat="47.20815" lon="-1.62071">
        <ele>23.5</ele>
        <time>2013-08-22T10:16:57Z</time>
      </trkpt>
      <trkpt lat="47.20825" lon="-1.62064">
        <ele>23.9</ele>
        <time>2013-08-22T10:17:01Z</time>
      </trkpt>
      <trkpt lat="47.20834" lon="-1.62051">
        <ele>24.3</ele>
        <time>2013-08-22T10:17:05Z</time>
      </trkpt>
      <trkpt lat="47.20841" lon="-1.62039">
        <ele>24.6</ele>
        <time>2013-08-22T10:17:08Z</time>
      </trkpt>
      <trkpt lat="47.20835" lon="-1.62029">
        <ele>25</ele>
        <time>2013-08-22T10:17:15Z</time>
      </trkpt>
      <trkpt lat="47.20824" lon="-1.62029">
        <ele>25.4</ele>
        <time>2013-08-22T10:17:24Z</time>
      </trkpt>
      <trkpt lat="47.20814" lon="-1.62027">
        <ele>25.5</ele>
        <time>2013-08-22T10:17:27Z</time>
      </trkpt>
      <trkpt lat="47.20802" lon="-1.62027">
        <ele>25.7</ele>
        <time>2013-08-22T10:17:29Z</time>
      </trkpt>
      <trkpt lat="47.20789" lon="-1.62027">
        <ele>24.4</ele>
        <time>2013-08-22T10:17:31Z</time>
      </trkpt>
      <trkpt lat="47.20773" lon="-1.62028">
        <ele>22.2</ele>
        <time>2013-08-22T10:17:33Z</time>
      </trkpt>
      <trkpt lat="47.20758" lon="-1.62028">
        <ele>21.1</ele>
        <time>2013-08-22T10:17:35Z</time>
      </trkpt>
      <trkpt lat="47.20746" lon="-1.62027">
        <ele>19.9</ele>
        <time>2013-08-22T10:17:37Z</time>
      </trkpt>
      <trkpt lat="47.20736" lon="-1.62026">
        <ele>19.3</ele>
        <time>2013-08-22T10:17:39Z</time>
      </trkpt>
      <trkpt lat="47.20725" lon="-1.62026">
        <ele>18.4</ele>
        <time>2013-08-22T10:17:41Z</time>
      </trkpt>
      <trkpt lat="47.20716" lon="-1.62026">
        <ele>17.4</ele>
        <time>2013-08-22T10:17:43Z</time>
      </trkpt>
      <trkpt lat="47.20706" lon="-1.62028">
        <ele>17.6</ele>
        <time>2013-08-22T10:17:45Z</time>
      </trkpt>
      <trkpt lat="47.20697" lon="-1.62028">
        <ele>17.7</ele>
        <time>2013-08-22T10:17:47Z</time>
      </trkpt>
      <trkpt lat="47.20685" lon="-1.62036">
        <ele>17.1</ele>
        <time>2013-08-22T10:17:49Z</time>
      </trkpt>
      <trkpt lat="47.20675" lon="-1.62046">
        <ele>16.3</ele>
        <time>2013-08-22T10:17:51Z</time>
      </trkpt>
      <trkpt lat="47.20664" lon="-1.62056">
        <ele>15.5</ele>
        <time>2013-08-22T10:17:54Z</time>
      </trkpt>
      <trkpt lat="47.20652" lon="-1.62061">
        <ele>16.1</ele>
        <time>2013-08-22T10:17:56Z</time>
      </trkpt>
      <trkpt lat="47.20643" lon="-1.62069">
        <ele>16.4</ele>
        <time>2013-08-22T10:17:58Z</time>
      </trkpt>
      <trkpt lat="47.20636" lon="-1.62081">
        <ele>16.3</ele>
        <time>2013-08-22T10:18:00Z</time>
      </trkpt>
      <trkpt lat="47.20626" lon="-1.62081">
        <ele>16.1</ele>
        <time>2013-08-22T10:18:10Z</time>
      </trkpt>
      <trkpt lat="47.20621" lon="-1.62092">
        <ele>13.9</ele>
        <time>2013-08-22T10:18:41Z</time>
      </trkpt>
      <trkpt lat="47.2061" lon="-1.62092">
        <ele>13.8</ele>
        <time>2013-08-22T10:18:45Z</time>
      </trkpt>
      <trkpt lat="47.20601" lon="-1.62101">
        <ele>13.8</ele>
        <time>2013-08-22T10:18:48Z</time>
      </trkpt>
      <trkpt lat="47.20593" lon="-1.62112">
        <ele>13.8</ele>
        <time>2013-08-22T10:18:52Z</time>
      </trkpt>
      <trkpt lat="47.20583" lon="-1.62116">
        <ele>13.6</ele>
        <time>2013-08-22T10:18:56Z</time>
      </trkpt>
      <trkpt lat="47.20571" lon="-1.62119">
        <ele>13.5</ele>
        <time>2013-08-22T10:19:00Z</time>
      </trkpt>
      <trkpt lat="47.2056" lon="-1.62122">
        <ele>13.2</ele>
        <time>2013-08-22T10:19:03Z</time>
      </trkpt>
      <trkpt lat="47.20547" lon="-1.62122">
        <ele>12.9</ele>
        <time>2013-08-22T10:19:06Z</time>
      </trkpt>
      <trkpt lat="47.20537" lon="-1.62119">
        <ele>11.4</ele>
        <time>2013-08-22T10:19:08Z</time>
      </trkpt>
      <trkpt lat="47.20527" lon="-1.62119">
        <ele>8.9</ele>
        <time>2013-08-22T10:19:10Z</time>
      </trkpt>
      <trkpt lat="47.20516" lon="-1.62121">
        <ele>8.2</ele>
        <time>2013-08-22T10:19:12Z</time>
      </trkpt>
      <trkpt lat="47.20503" lon="-1.62125">
        <ele>7.1</ele>
        <time>2013-08-22T10:19:15Z</time>
      </trkpt>
      <trkpt lat="47.20491" lon="-1.62127">
        <ele>5.6</ele>
        <time>2013-08-22T10:19:18Z</time>
      </trkpt>
      <trkpt lat="47.20481" lon="-1.62128">
        <ele>4.7</ele>
        <time>2013-08-22T10:19:20Z</time>
      </trkpt>
      <trkpt lat="47.2047" lon="-1.62129">
        <ele>3.8</ele>
        <time>2013-08-22T10:19:22Z</time>
      </trkpt>
      <trkpt lat="47.20461" lon="-1.62133">
        <ele>2.9</ele>
        <time>2013-08-22T10:19:24Z</time>
      </trkpt>
      <trkpt lat="47.20451" lon="-1.62138">
        <ele>-1.3</ele>
        <time>2013-08-22T10:19:26Z</time>
      </trkpt>
      <trkpt lat="47.20443" lon="-1.62144">
        <ele>-7.7</ele>
        <time>2013-08-22T10:19:28Z</time>
      </trkpt>
      <trkpt lat="47.20434" lon="-1.62151">
        <ele>-10.7</ele>
        <time>2013-08-22T10:19:30Z</time>
      </trkpt>
      <trkpt lat="47.20426" lon="-1.62158">
        <ele>-12.9</ele>
        <time>2013-08-22T10:19:32Z</time>
      </trkpt>
      <trkpt lat="47.20418" lon="-1.62166">
        <ele>-15</ele>
        <time>2013-08-22T10:19:34Z</time>
      </trkpt>
      <trkpt lat="47.2041" lon="-1.62176">
        <ele>-17.1</ele>
        <time>2013-08-22T10:19:36Z</time>
      </trkpt>
      <trkpt lat="47.20401" lon="-1.62185">
        <ele>-17.6</ele>
        <time>2013-08-22T10:19:38Z</time>
      </trkpt>
      <trkpt lat="47.20391" lon="-1.62192">
        <ele>-19.2</ele>
        <time>2013-08-22T10:19:40Z</time>
      </trkpt>
      <trkpt lat="47.20381" lon="-1.62192">
        <ele>-19.4</ele>
        <time>2013-08-22T10:19:42Z</time>
      </trkpt>
      <trkpt lat="47.20373" lon="-1.62184">
        <ele>-19.7</ele>
        <time>2013-08-22T10:19:49Z</time>
      </trkpt>
      <trkpt lat="47.20366" lon="-1.62169">
        <ele>-19.5</ele>
        <time>2013-08-22T10:19:55Z</time>
      </trkpt>
      <trkpt lat="47.20359" lon="-1.62158">
        <ele>-18.7</ele>
        <time>2013-08-22T10:20:00Z</time>
      </trkpt>
      <trkpt lat="47.20356" lon="-1.62146">
        <ele>-14.7</ele>
        <time>2013-08-22T10:20:16Z</time>
      </trkpt>
      <trkpt lat="47.20354" lon="-1.62132">
        <ele>-13.2</ele>
        <time>2013-08-22T10:20:20Z</time>
      </trkpt>
      <trkpt lat="47.20363" lon="-1.62126">
        <ele>-9.6</ele>
        <time>2013-08-22T10:20:31Z</time>
      </trkpt>
      <trkpt lat="47.20372" lon="-1.62118">
        <ele>-8.4</ele>
        <time>2013-08-22T10:20:35Z</time>
      </trkpt>
      <trkpt lat="47.20379" lon="-1.62106">
        <ele>-7.7</ele>
        <time>2013-08-22T10:20:38Z</time>
      </trkpt>
      <trkpt lat="47.2039" lon="-1.62096">
        <ele>-7.1</ele>
        <time>2013-08-22T10:20:41Z</time>
      </trkpt>
      <trkpt lat="47.204" lon="-1.62088">
        <ele>-6.4</ele>
        <time>2013-08-22T10:20:44Z</time>
      </trkpt>
      <trkpt lat="47.20409" lon="-1.6208">
        <ele>-5.6</ele>
        <time>2013-08-22T10:20:47Z</time>
      </trkpt>
      <trkpt lat="47.20421" lon="-1.62071">
        <ele>-4.9</ele>
        <time>2013-08-22T10:20:50Z</time>
      </trkpt>
      <trkpt lat="47.20431" lon="-1.62067">
        <ele>-4.3</ele>
        <time>2013-08-22T10:20:53Z</time>
      </trkpt>
      <trkpt lat="47.20429" lon="-1.6208">
        <ele>-3.3</ele>
        <time>2013-08-22T10:21:00Z</time>
      </trkpt>
      <trkpt lat="47.20431" lon="-1.62067">
        <ele>-2.7</ele>
        <time>2013-08-22T10:21:19Z</time>
      </trkpt>
      <trkpt lat="47.20435" lon="-1.6205">
        <ele>-1.9</ele>
        <time>2013-08-22T10:21:24Z</time>
      </trkpt>
      <trkpt lat="47.20434" lon="-1.62036">
        <ele>-1.5</ele>
        <time>2013-08-22T10:21:27Z</time>
      </trkpt>
      <trkpt lat="47.20431" lon="-1.62022">
        <ele>-0.9</ele>
        <time>2013-08-22T10:21:32Z</time>
      </trkpt>
      <trkpt lat="47.20428" lon="-1.62009">
        <ele>0.1</ele>
        <time>2013-08-22T10:21:42Z</time>
      </trkpt>
      <trkpt lat="47.20427" lon="-1.61995">
        <ele>1</ele>
        <time>2013-08-22T10:21:55Z</time>
      </trkpt>
      <trkpt lat="47.20425" lon="-1.61981">
        <ele>1.7</ele>
        <time>2013-08-22T10:21:59Z</time>
      </trkpt>
      <trkpt lat="47.20424" lon="-1.61965">
        <ele>2.4</ele>
        <time>2013-08-22T10:22:03Z</time>
      </trkpt>
      <trkpt lat="47.20424" lon="-1.6195">
        <ele>3.1</ele>
        <time>2013-08-22T10:22:07Z</time>
      </trkpt>
      <trkpt lat="47.20423" lon="-1.61935">
        <ele>3.7</ele>
        <time>2013-08-22T10:22:12Z</time>
      </trkpt>
      <trkpt lat="47.20417" lon="-1.61921">
        <ele>3.7</ele>
        <time>2013-08-22T10:22:16Z</time>
      </trkpt>
      <trkpt lat="47.20412" lon="-1.61906">
        <ele>3.9</ele>
        <time>2013-08-22T10:22:20Z</time>
      </trkpt>
      <trkpt lat="47.20408" lon="-1.61892">
        <ele>4.2</ele>
        <time>2013-08-22T10:22:24Z</time>
      </trkpt>
      <trkpt lat="47.20402" lon="-1.61881">
        <ele>4.7</ele>
        <time>2013-08-22T10:22:28Z</time>
      </trkpt>
      <trkpt lat="47.20394" lon="-1.61873">
        <ele>5.1</ele>
        <time>2013-08-22T10:22:32Z</time>
      </trkpt>
      <trkpt lat="47.20385" lon="-1.61866">
        <ele>5.6</ele>
        <time>2013-08-22T10:22:36Z</time>
      </trkpt>
      <trkpt lat="47.20387" lon="-1.61853">
        <ele>6.1</ele>
        <time>2013-08-22T10:22:42Z</time>
      </trkpt>
      <trkpt lat="47.20397" lon="-1.61851">
        <ele>6.6</ele>
        <time>2013-08-22T10:22:47Z</time>
      </trkpt>
      <trkpt lat="47.20406" lon="-1.61851">
        <ele>7.2</ele>
        <time>2013-08-22T10:22:51Z</time>
      </trkpt>
      <trkpt lat="47.20417" lon="-1.61846">
        <ele>7.4</ele>
        <time>2013-08-22T10:22:56Z</time>
      </trkpt>
      <trkpt lat="47.20427" lon="-1.61843">
        <ele>7.5</ele>
        <time>2013-08-22T10:23:01Z</time>
      </trkpt>
      <trkpt lat="47.20436" lon="-1.6185">
        <ele>7.6</ele>
        <time>2013-08-22T10:23:06Z</time>
      </trkpt>
      <trkpt lat="47.20447" lon="-1.61856">
        <ele>7.7</ele>
        <time>2013-08-22T10:23:10Z</time>
      </trkpt>
      <trkpt lat="47.20459" lon="-1.61861">
        <ele>8.3</ele>
        <time>2013-08-22T10:23:14Z</time>
      </trkpt>
      <trkpt lat="47.20469" lon="-1.61864">
        <ele>8.8</ele>
        <time>2013-08-22T10:23:17Z</time>
      </trkpt>
      <trkpt lat="47.20479" lon="-1.61866">
        <ele>9.3</ele>
        <time>2013-08-22T10:23:20Z</time>
      </trkpt>
      <trkpt lat="47.2049" lon="-1.6187">
        <ele>9.7</ele>
        <time>2013-08-22T10:23:24Z</time>
      </trkpt>
      <trkpt lat="47.205" lon="-1.61874">
        <ele>10.1</ele>
        <time>2013-08-22T10:23:28Z</time>
      </trkpt>
      <trkpt lat="47.20511" lon="-1.61875">
        <ele>10.6</ele>
        <time>2013-08-22T10:23:32Z</time>
      </trkpt>
      <trkpt lat="47.20505" lon="-1.61887">
        <ele>11.7</ele>
        <time>2013-08-22T10:23:44Z</time>
      </trkpt>
      <trkpt lat="47.205" lon="-1.61901">
        <ele>11.9</ele>
        <time>2013-08-22T10:23:48Z</time>
      </trkpt>
      <trkpt lat="47.20497" lon="-1.61914">
        <ele>11.8</ele>
        <time>2013-08-22T10:23:51Z</time>
      </trkpt>
      <trkpt lat="47.20494" lon="-1.6193">
        <ele>11.9</ele>
        <time>2013-08-22T10:23:54Z</time>
      </trkpt>
      <trkpt lat="47.20491" lon="-1.61943">
        <ele>11.8</ele>
        <time>2013-08-22T10:23:56Z</time>
      </trkpt>
      <trkpt lat="47.20485" lon="-1.61957">
        <ele>11.5</ele>
        <time>2013-08-22T10:23:59Z</time>
      </trkpt>
      <trkpt lat="47.20483" lon="-1.61971">
        <ele>11.2</ele>
        <time>2013-08-22T10:24:02Z</time>
      </trkpt>
      <trkpt lat="47.20484" lon="-1.61986">
        <ele>10.5</ele>
        <time>2013-08-22T10:24:05Z</time>
      </trkpt>
      <trkpt lat="47.20493" lon="-1.61999">
        <ele>9.8</ele>
        <time>2013-08-22T10:24:08Z</time>
      </trkpt>
      <trkpt lat="47.20504" lon="-1.62008">
        <ele>8.9</ele>
        <time>2013-08-22T10:24:11Z</time>
      </trkpt>
      <trkpt lat="47.20513" lon="-1.62013">
        <ele>8.3</ele>
        <time>2013-08-22T10:24:14Z</time>
      </trkpt>
      <trkpt lat="47.20526" lon="-1.6201">
        <ele>8.3</ele>
        <time>2013-08-22T10:24:18Z</time>
      </trkpt>
      <trkpt lat="47.20534" lon="-1.62002">
        <ele>8.4</ele>
        <time>2013-08-22T10:24:21Z</time>
      </trkpt>
      <trkpt lat="47.20546" lon="-1.61999">
        <ele>8.9</ele>
        <time>2013-08-22T10:24:25Z</time>
      </trkpt>
      <trkpt lat="47.20555" lon="-1.62003">
        <ele>9.2</ele>
        <time>2013-08-22T10:24:27Z</time>
      </trkpt>
      <trkpt lat="47.20563" lon="-1.62013">
        <ele>10</ele>
        <time>2013-08-22T10:24:31Z</time>
      </trkpt>
      <trkpt lat="47.20569" lon="-1.62029">
        <ele>11.4</ele>
        <time>2013-08-22T10:24:34Z</time>
      </trkpt>
      <trkpt lat="47.20575" lon="-1.62043">
        <ele>11.7</ele>
        <time>2013-08-22T10:24:36Z</time>
      </trkpt>
      <trkpt lat="47.2058" lon="-1.62057">
        <ele>11.9</ele>
        <time>2013-08-22T10:24:39Z</time>
      </trkpt>
      <trkpt lat="47.20585" lon="-1.6207">
        <ele>12.4</ele>
        <time>2013-08-22T10:24:47Z</time>
      </trkpt>
      <trkpt lat="47.20594" lon="-1.62074">
        <ele>12.3</ele>
        <time>2013-08-22T10:24:52Z</time>
      </trkpt>
      <trkpt lat="47.20608" lon="-1.62073">
        <ele>12.1</ele>
        <time>2013-08-22T10:24:55Z</time>
      </trkpt>
      <trkpt lat="47.2062" lon="-1.62071">
        <ele>12</ele>
        <time>2013-08-22T10:24:58Z</time>
      </trkpt>
      <trkpt lat="47.20631" lon="-1.62069">
        <ele>11.6</ele>
        <time>2013-08-22T10:25:01Z</time>
      </trkpt>
      <trkpt lat="47.20641" lon="-1.62062">
        <ele>11</ele>
        <time>2013-08-22T10:25:04Z</time>
      </trkpt>
      <trkpt lat="47.20649" lon="-1.62054">
        <ele>10.5</ele>
        <time>2013-08-22T10:25:07Z</time>
      </trkpt>
      <trkpt lat="47.20658" lon="-1.62042">
        <ele>10.2</ele>
        <time>2013-08-22T10:25:10Z</time>
      </trkpt>
      <trkpt lat="47.20667" lon="-1.62031">
        <ele>10</ele>
        <time>2013-08-22T10:25:13Z</time>
      </trkpt>
      <trkpt lat="47.20676" lon="-1.62024">
        <ele>9.7</ele>
        <time>2013-08-22T10:25:16Z</time>
      </trkpt>
      <trkpt lat="47.20685" lon="-1.62017">
        <ele>9.5</ele>
        <time>2013-08-22T10:25:19Z</time>
      </trkpt>
      <trkpt lat="47.20696" lon="-1.62013">
        <ele>9.3</ele>
        <time>2013-08-22T10:25:23Z</time>
      </trkpt>
      <trkpt lat="47.20707" lon="-1.62011">
        <ele>9.3</ele>
        <time>2013-08-22T10:25:27Z</time>
      </trkpt>
      <trkpt lat="47.20716" lon="-1.62007">
        <ele>9.5</ele>
        <time>2013-08-22T10:25:32Z</time>
      </trkpt>
      <trkpt lat="47.20727" lon="-1.62004">
        <ele>10.4</ele>
        <time>2013-08-22T10:25:40Z</time>
      </trkpt>
      <trkpt lat="47.20729" lon="-1.61991">
        <ele>10.7</ele>
        <time>2013-08-22T10:26:02Z</time>
      </trkpt>
      <trkpt lat="47.20738" lon="-1.61997">
        <ele>9.3</ele>
        <time>2013-08-22T10:27:05Z</time>
      </trkpt>
      <trkpt lat="47.20749" lon="-1.61997">
        <ele>10.1</ele>
        <time>2013-08-22T10:27:10Z</time>
      </trkpt>
      <trkpt lat="47.20759" lon="-1.61999">
        <ele>10.9</ele>
        <time>2013-08-22T10:27:14Z</time>
      </trkpt>
      <trkpt lat="47.20769" lon="-1.62001">
        <ele>11.7</ele>
        <time>2013-08-22T10:27:19Z</time>
      </trkpt>
      <trkpt lat="47.20778" lon="-1.62002">
        <ele>12.9</ele>
        <time>2013-08-22T10:27:24Z</time>
      </trkpt>
      <trkpt lat="47.20789" lon="-1.62002">
        <ele>14</ele>
        <time>2013-08-22T10:27:30Z</time>
      </trkpt>
      <trkpt lat="47.20799" lon="-1.62001">
        <ele>14.3</ele>
        <time>2013-08-22T10:27:33Z</time>
      </trkpt>
      <trkpt lat="47.20808" lon="-1.62">
        <ele>14.7</ele>
        <time>2013-08-22T10:27:36Z</time>
      </trkpt>
      <trkpt lat="47.20812" lon="-1.62012">
        <ele>15</ele>
        <time>2013-08-22T10:27:42Z</time>
      </trkpt>
      <trkpt lat="47.20809" lon="-1.62025">
        <ele>15.3</ele>
        <time>2013-08-22T10:27:48Z</time>
      </trkpt>
      <trkpt lat="47.20818" lon="-1.62029">
        <ele>15.7</ele>
        <time>2013-08-22T10:28:01Z</time>
      </trkpt>
      <trkpt lat="47.20808" lon="-1.62026">
        <ele>17.6</ele>
        <time>2013-08-22T10:28:30Z</time>
      </trkpt>
      <trkpt lat="47.20818" lon="-1.62032">
        <ele>17.3</ele>
        <time>2013-08-22T10:28:53Z</time>
      </trkpt>
      <trkpt lat="47.20827" lon="-1.6203">
        <ele>18.1</ele>
        <time>2013-08-22T10:29:03Z</time>
      </trkpt>
      <trkpt lat="47.20836" lon="-1.6203">
        <ele>19.6</ele>
        <time>2013-08-22T10:29:13Z</time>
      </trkpt>
      <trkpt lat="47.20845" lon="-1.62033">
        <ele>21.9</ele>
        <time>2013-08-22T10:29:42Z</time>
      </trkpt>
      <trkpt lat="47.20853" lon="-1.62025">
        <ele>22.6</ele>
        <time>2013-08-22T10:29:48Z</time>
      </trkpt>
      <trkpt lat="47.20863" lon="-1.62019">
        <ele>23.4</ele>
        <time>2013-08-22T10:29:54Z</time>
      </trkpt>
      <trkpt lat="47.20872" lon="-1.62014">
        <ele>23.6</ele>
        <time>2013-08-22T10:29:58Z</time>
      </trkpt>
      <trkpt lat="47.20877" lon="-1.62002">
        <ele>24.3</ele>
        <time>2013-08-22T10:30:10Z</time>
      </trkpt>
      <trkpt lat="47.20887" lon="-1.62003">
        <ele>25.1</ele>
        <time>2013-08-22T10:30:18Z</time>
      </trkpt>
      <trkpt lat="47.20897" lon="-1.62002">
        <ele>25.3</ele>
        <time>2013-08-22T10:30:22Z</time>
      </trkpt>
      <trkpt lat="47.20906" lon="-1.61999">
        <ele>25.6</ele>
        <time>2013-08-22T10:30:26Z</time>
      </trkpt>
      <trkpt lat="47.20915" lon="-1.61995">
        <ele>25.8</ele>
        <time>2013-08-22T10:30:30Z</time>
      </trkpt>
      <trkpt lat="47.20924" lon="-1.61992">
        <ele>26.1</ele>
        <time>2013-08-22T10:30:34Z</time>
      </trkpt>
      <trkpt lat="47.20934" lon="-1.6199">
        <ele>26.2</ele>
        <time>2013-08-22T10:30:38Z</time>
      </trkpt>
      <trkpt lat="47.20943" lon="-1.61996">
        <ele>26.1</ele>
        <time>2013-08-22T10:30:43Z</time>
      </trkpt>
      <trkpt lat="47.20946" lon="-1.6201">
        <ele>26.5</ele>
        <time>2013-08-22T10:30:49Z</time>
      </trkpt>
      <trkpt lat="47.20943" lon="-1.62024">
        <ele>26.6</ele>
        <time>2013-08-22T10:30:54Z</time>
      </trkpt>
      <trkpt lat="47.20941" lon="-1.62039">
        <ele>27</ele>
        <time>2013-08-22T10:30:59Z</time>
      </trkpt>
      <trkpt lat="47.20942" lon="-1.62053">
        <ele>27.1</ele>
        <time>2013-08-22T10:31:03Z</time>
      </trkpt>
      <trkpt lat="47.20945" lon="-1.62068">
        <ele>27.1</ele>
        <time>2013-08-22T10:31:06Z</time>
      </trkpt>
      <trkpt lat="47.20947" lon="-1.62084">
        <ele>27</ele>
        <time>2013-08-22T10:31:10Z</time>
      </trkpt>
      <trkpt lat="47.20952" lon="-1.62098">
        <ele>26.7</ele>
        <time>2013-08-22T10:31:13Z</time>
      </trkpt>
      <trkpt lat="47.20955" lon="-1.62116">
        <ele>26.1</ele>
        <time>2013-08-22T10:31:16Z</time>
      </trkpt>
      <trkpt lat="47.20956" lon="-1.62133">
        <ele>25.1</ele>
        <time>2013-08-22T10:31:19Z</time>
      </trkpt>
      <trkpt lat="47.2095" lon="-1.6215">
        <ele>24.7</ele>
        <time>2013-08-22T10:31:22Z</time>
      </trkpt>
      <trkpt lat="47.20941" lon="-1.62157">
        <ele>25</ele>
        <time>2013-08-22T10:31:25Z</time>
      </trkpt>
      <trkpt lat="47.20929" lon="-1.62165">
        <ele>26.1</ele>
        <time>2013-08-22T10:31:28Z</time>
      </trkpt>
      <trkpt lat="47.20921" lon="-1.62171">
        <ele>27.2</ele>
        <time>2013-08-22T10:31:30Z</time>
      </trkpt>
      <trkpt lat="47.20912" lon="-1.62177">
        <ele>28</ele>
        <time>2013-08-22T10:31:32Z</time>
      </trkpt>
      <trkpt lat="47.20902" lon="-1.62189">
        <ele>29.6</ele>
        <time>2013-08-22T10:31:35Z</time>
      </trkpt>
      <trkpt lat="47.20892" lon="-1.62202">
        <ele>30.6</ele>
        <time>2013-08-22T10:31:38Z</time>
      </trkpt>
      <trkpt lat="47.20885" lon="-1.62213">
        <ele>30.8</ele>
        <time>2013-08-22T10:31:40Z</time>
      </trkpt>
      <trkpt lat="47.20879" lon="-1.62224">
        <ele>30.8</ele>
        <time>2013-08-22T10:31:42Z</time>
      </trkpt>
      <trkpt lat="47.20873" lon="-1.6224">
        <ele>30.2</ele>
        <time>2013-08-22T10:31:45Z</time>
      </trkpt>
      <trkpt lat="47.20867" lon="-1.62257">
        <ele>28.9</ele>
        <time>2013-08-22T10:31:48Z</time>
      </trkpt>
      <trkpt lat="47.20861" lon="-1.62273">
        <ele>28.9</ele>
        <time>2013-08-22T10:31:51Z</time>
      </trkpt>
      <trkpt lat="47.20856" lon="-1.62287">
        <ele>28.7</ele>
        <time>2013-08-22T10:31:54Z</time>
      </trkpt>
      <trkpt lat="47.20852" lon="-1.623">
        <ele>28.6</ele>
        <time>2013-08-22T10:31:57Z</time>
      </trkpt>
      <trkpt lat="47.20854" lon="-1.62287">
        <ele>28.7</ele>
        <time>2013-08-22T10:33:51Z</time>
      </trkpt>
      <trkpt lat="47.20858" lon="-1.62273">
        <ele>28.3</ele>
        <time>2013-08-22T10:33:56Z</time>
      </trkpt>
      <trkpt lat="47.20863" lon="-1.62258">
        <ele>28</ele>
        <time>2013-08-22T10:34:00Z</time>
      </trkpt>
      <trkpt lat="47.20868" lon="-1.62245">
        <ele>27.8</ele>
        <time>2013-08-22T10:34:03Z</time>
      </trkpt>
      <trkpt lat="47.20873" lon="-1.62232">
        <ele>27.8</ele>
        <time>2013-08-22T10:34:06Z</time>
      </trkpt>
      <trkpt lat="47.20879" lon="-1.62218">
        <ele>27.8</ele>
        <time>2013-08-22T10:34:09Z</time>
      </trkpt>
      <trkpt lat="47.20884" lon="-1.62205">
        <ele>27.8</ele>
        <time>2013-08-22T10:34:12Z</time>
      </trkpt>
      <trkpt lat="47.20892" lon="-1.62195">
        <ele>27.8</ele>
        <time>2013-08-22T10:34:15Z</time>
      </trkpt>
      <trkpt lat="47.20902" lon="-1.62187">
        <ele>27.8</ele>
        <time>2013-08-22T10:34:18Z</time>
      </trkpt>
      <trkpt lat="47.20913" lon="-1.62178">
        <ele>27.7</ele>
        <time>2013-08-22T10:34:21Z</time>
      </trkpt>
      <trkpt lat="47.20925" lon="-1.6217">
        <ele>28.3</ele>
        <time>2013-08-22T10:34:24Z</time>
      </trkpt>
      <trkpt lat="47.20936" lon="-1.62162">
        <ele>28.5</ele>
        <time>2013-08-22T10:34:27Z</time>
      </trkpt>
      <trkpt lat="47.20946" lon="-1.62155">
        <ele>28.5</ele>
        <time>2013-08-22T10:34:30Z</time>
      </trkpt>
      <trkpt lat="47.20955" lon="-1.62156">
        <ele>28.5</ele>
        <time>2013-08-22T10:34:34Z</time>
      </trkpt>
      <trkpt lat="47.20958" lon="-1.6217">
        <ele>28.6</ele>
        <time>2013-08-22T10:34:39Z</time>
      </trkpt>
      <trkpt lat="47.20962" lon="-1.62184">
        <ele>28.8</ele>
        <time>2013-08-22T10:34:43Z</time>
      </trkpt>
      <trkpt lat="47.20966" lon="-1.622">
        <ele>28.9</ele>
        <time>2013-08-22T10:34:46Z</time>
      </trkpt>
      <trkpt lat="47.20969" lon="-1.62215">
        <ele>29.1</ele>
        <time>2013-08-22T10:34:50Z</time>
      </trkpt>
      <trkpt lat="47.20968" lon="-1.62232">
        <ele>29.4</ele>
        <time>2013-08-22T10:34:54Z</time>
      </trkpt>
      <trkpt lat="47.20969" lon="-1.62246">
        <ele>29.5</ele>
        <time>2013-08-22T10:34:57Z</time>
      </trkpt>
      <trkpt lat="47.20972" lon="-1.6226">
        <ele>29.8</ele>
        <time>2013-08-22T10:35:00Z</time>
      </trkpt>
      <trkpt lat="47.20976" lon="-1.62273">
        <ele>30.1</ele>
        <time>2013-08-22T10:35:04Z</time>
      </trkpt>
      <trkpt lat="47.2098" lon="-1.62285">
        <ele>30.2</ele>
        <time>2013-08-22T10:35:09Z</time>
      </trkpt>
      <trkpt lat="47.20979" lon="-1.62272">
        <ele>30.1</ele>
        <time>2013-08-22T10:35:32Z</time>
      </trkpt>
      <trkpt lat="47.20973" lon="-1.62258">
        <ele>29.6</ele>
        <time>2013-08-22T10:35:37Z</time>
      </trkpt>
      <trkpt lat="47.2097" lon="-1.62245">
        <ele>29.7</ele>
        <time>2013-08-22T10:35:41Z</time>
      </trkpt>
      <trkpt lat="47.20968" lon="-1.6223">
        <ele>29.7</ele>
        <time>2013-08-22T10:35:45Z</time>
      </trkpt>
      <trkpt lat="47.20969" lon="-1.62214">
        <ele>29.8</ele>
        <time>2013-08-22T10:35:49Z</time>
      </trkpt>
      <trkpt lat="47.20967" lon="-1.62198">
        <ele>29.7</ele>
        <time>2013-08-22T10:35:53Z</time>
      </trkpt>
      <trkpt lat="47.20963" lon="-1.62183">
        <ele>29.7</ele>
        <time>2013-08-22T10:35:57Z</time>
      </trkpt>
      <trkpt lat="47.20958" lon="-1.6217">
        <ele>29.8</ele>
        <time>2013-08-22T10:36:01Z</time>
      </trkpt>
      <trkpt lat="47.20955" lon="-1.62155">
        <ele>29.8</ele>
        <time>2013-08-22T10:36:05Z</time>
      </trkpt>
      <trkpt lat="47.20957" lon="-1.62142">
        <ele>29.7</ele>
        <time>2013-08-22T10:36:08Z</time>
      </trkpt>
      <trkpt lat="47.20966" lon="-1.6213">
        <ele>29.7</ele>
        <time>2013-08-22T10:36:11Z</time>
      </trkpt>
      <trkpt lat="47.20975" lon="-1.62121">
        <ele>29.8</ele>
        <time>2013-08-22T10:36:14Z</time>
      </trkpt>
      <trkpt lat="47.20986" lon="-1.62114">
        <ele>30.4</ele>
        <time>2013-08-22T10:36:17Z</time>
      </trkpt>
      <trkpt lat="47.20998" lon="-1.62112">
        <ele>31.4</ele>
        <time>2013-08-22T10:36:20Z</time>
      </trkpt>
      <trkpt lat="47.21009" lon="-1.62109">
        <ele>31.8</ele>
        <time>2013-08-22T10:36:23Z</time>
      </trkpt>
      <trkpt lat="47.21021" lon="-1.62107">
        <ele>31.9</ele>
        <time>2013-08-22T10:36:26Z</time>
      </trkpt>
      <trkpt lat="47.2103" lon="-1.62104">
        <ele>32</ele>
        <time>2013-08-22T10:36:29Z</time>
      </trkpt>
      <trkpt lat="47.21041" lon="-1.62102">
        <ele>31.8</ele>
        <time>2013-08-22T10:36:32Z</time>
      </trkpt>
      <trkpt lat="47.21052" lon="-1.62102">
        <ele>31.7</ele>
        <time>2013-08-22T10:36:35Z</time>
      </trkpt>
      <trkpt lat="47.2106" lon="-1.62111">
        <ele>31.7</ele>
        <time>2013-08-22T10:36:39Z</time>
      </trkpt>
      <trkpt lat="47.21062" lon="-1.62125">
        <ele>31.7</ele>
        <time>2013-08-22T10:36:43Z</time>
      </trkpt>
      <trkpt lat="47.21062" lon="-1.6214">
        <ele>31.8</ele>
        <time>2013-08-22T10:36:46Z</time>
      </trkpt>
      <trkpt lat="47.21062" lon="-1.62157">
        <ele>32.1</ele>
        <time>2013-08-22T10:36:50Z</time>
      </trkpt>
      <trkpt lat="47.21063" lon="-1.62174">
        <ele>32.2</ele>
        <time>2013-08-22T10:36:53Z</time>
      </trkpt>
      <trkpt lat="47.21063" lon="-1.62191">
        <ele>34</ele>
        <time>2013-08-22T10:36:56Z</time>
      </trkpt>
      <trkpt lat="47.21063" lon="-1.62206">
        <ele>34.8</ele>
        <time>2013-08-22T10:36:58Z</time>
      </trkpt>
      <trkpt lat="47.21063" lon="-1.62225">
        <ele>35</ele>
        <time>2013-08-22T10:37:01Z</time>
      </trkpt>
      <trkpt lat="47.21063" lon="-1.62239">
        <ele>34.9</ele>
        <time>2013-08-22T10:37:04Z</time>
      </trkpt>
      <trkpt lat="47.21063" lon="-1.62256">
        <ele>35</ele>
        <time>2013-08-22T10:37:08Z</time>
      </trkpt>
      <trkpt lat="47.21064" lon="-1.6227">
        <ele>35.2</ele>
        <time>2013-08-22T10:37:11Z</time>
      </trkpt>
      <trkpt lat="47.21065" lon="-1.62284">
        <ele>35.3</ele>
        <time>2013-08-22T10:37:14Z</time>
      </trkpt>
      <trkpt lat="47.21066" lon="-1.62297">
        <ele>35.3</ele>
        <time>2013-08-22T10:37:17Z</time>
      </trkpt>
      <trkpt lat="47.21066" lon="-1.62314">
        <ele>35.4</ele>
        <time>2013-08-22T10:37:20Z</time>
      </trkpt>
      <trkpt lat="47.21067" lon="-1.6233">
        <ele>35.5</ele>
        <time>2013-08-22T10:37:23Z</time>
      </trkpt>
      <trkpt lat="47.21068" lon="-1.62344">
        <ele>35.6</ele>
        <time>2013-08-22T10:37:26Z</time>
      </trkpt>
      <trkpt lat="47.21066" lon="-1.62358">
        <ele>35.7</ele>
        <time>2013-08-22T10:37:29Z</time>
      </trkpt>
      <trkpt lat="47.21066" lon="-1.62376">
        <ele>35.7</ele>
        <time>2013-08-22T10:37:32Z</time>
      </trkpt>
      <trkpt lat="47.21067" lon="-1.62394">
        <ele>35.9</ele>
        <time>2013-08-22T10:37:35Z</time>
      </trkpt>
      <trkpt lat="47.21067" lon="-1.62414">
        <ele>35.6</ele>
        <time>2013-08-22T10:37:38Z</time>
      </trkpt>
      <trkpt lat="47.21068" lon="-1.62429">
        <ele>34.8</ele>
        <time>2013-08-22T10:37:40Z</time>
      </trkpt>
      <trkpt lat="47.2107" lon="-1.62448">
        <ele>34.3</ele>
        <time>2013-08-22T10:37:43Z</time>
      </trkpt>
      <trkpt lat="47.2107" lon="-1.62462">
        <ele>33.7</ele>
        <time>2013-08-22T10:37:45Z</time>
      </trkpt>
      <trkpt lat="47.2107" lon="-1.62476">
        <ele>33.2</ele>
        <time>2013-08-22T10:37:47Z</time>
      </trkpt>
      <trkpt lat="47.21071" lon="-1.62489">
        <ele>33.1</ele>
        <time>2013-08-22T10:37:49Z</time>
      </trkpt>
      <trkpt lat="47.21071" lon="-1.62505">
        <ele>33.2</ele>
        <time>2013-08-22T10:37:52Z</time>
      </trkpt>
      <trkpt lat="47.21072" lon="-1.62519">
        <ele>33.3</ele>
        <time>2013-08-22T10:37:56Z</time>
      </trkpt>
      <trkpt lat="47.21073" lon="-1.62538">
        <ele>33.1</ele>
        <time>2013-08-22T10:37:59Z</time>
      </trkpt>
      <trkpt lat="47.21073" lon="-1.62552">
        <ele>33</ele>
        <time>2013-08-22T10:38:01Z</time>
      </trkpt>
      <trkpt lat="47.21072" lon="-1.62566">
        <ele>33.1</ele>
        <time>2013-08-22T10:38:03Z</time>
      </trkpt>
      <trkpt lat="47.21077" lon="-1.62578">
        <ele>33.1</ele>
        <time>2013-08-22T10:38:09Z</time>
      </trkpt>
      <trkpt lat="47.21086" lon="-1.62582">
        <ele>33.1</ele>
        <time>2013-08-22T10:38:12Z</time>
      </trkpt>
      <trkpt lat="47.21095" lon="-1.62592">
        <ele>33.1</ele>
        <time>2013-08-22T10:38:15Z</time>
      </trkpt>
      <trkpt lat="47.21099" lon="-1.62608">
        <ele>31.9</ele>
        <time>2013-08-22T10:38:17Z</time>
      </trkpt>
      <trkpt lat="47.21097" lon="-1.62626">
        <ele>29.7</ele>
        <time>2013-08-22T10:38:19Z</time>
      </trkpt>
      <trkpt lat="47.21092" lon="-1.62641">
        <ele>29.5</ele>
        <time>2013-08-22T10:38:21Z</time>
      </trkpt>
      <trkpt lat="47.21086" lon="-1.62657">
        <ele>29.9</ele>
        <time>2013-08-22T10:38:23Z</time>
      </trkpt>
      <trkpt lat="47.21085" lon="-1.62675">
        <ele>30.2</ele>
        <time>2013-08-22T10:38:25Z</time>
      </trkpt>
      <trkpt lat="47.21086" lon="-1.62695">
        <ele>30.6</ele>
        <time>2013-08-22T10:38:27Z</time>
      </trkpt>
      <trkpt lat="47.21086" lon="-1.62715">
        <ele>30.8</ele>
        <time>2013-08-22T10:38:29Z</time>
      </trkpt>
      <trkpt lat="47.21087" lon="-1.62736">
        <ele>30.9</ele>
        <time>2013-08-22T10:38:31Z</time>
      </trkpt>
      <trkpt lat="47.21088" lon="-1.62757">
        <ele>31</ele>
        <time>2013-08-22T10:38:33Z</time>
      </trkpt>
      <trkpt lat="47.21092" lon="-1.62777">
        <ele>31</ele>
        <time>2013-08-22T10:38:35Z</time>
      </trkpt>
      <trkpt lat="47.211" lon="-1.62794">
        <ele>31.6</ele>
        <time>2013-08-22T10:38:37Z</time>
      </trkpt>
      <trkpt lat="47.21109" lon="-1.62809">
        <ele>31.5</ele>
        <time>2013-08-22T10:38:39Z</time>
      </trkpt>
      <trkpt lat="47.21114" lon="-1.62828">
        <ele>31.1</ele>
        <time>2013-08-22T10:38:41Z</time>
      </trkpt>
      <trkpt lat="47.21108" lon="-1.62847">
        <ele>30.4</ele>
        <time>2013-08-22T10:38:43Z</time>
      </trkpt>
      <trkpt lat="47.21099" lon="-1.6286">
        <ele>29.5</ele>
        <time>2013-08-22T10:38:45Z</time>
      </trkpt>
      <trkpt lat="47.21086" lon="-1.62861">
        <ele>29</ele>
        <time>2013-08-22T10:38:47Z</time>
      </trkpt>
      <trkpt lat="47.21071" lon="-1.62855">
        <ele>28.7</ele>
        <time>2013-08-22T10:38:49Z</time>
      </trkpt>
      <trkpt lat="47.21058" lon="-1.6285">
        <ele>28.8</ele>
        <time>2013-08-22T10:38:51Z</time>
      </trkpt>
      <trkpt lat="47.2105" lon="-1.62861">
        <ele>29</ele>
        <time>2013-08-22T10:38:54Z</time>
      </trkpt>
      <trkpt lat="47.21058" lon="-1.62872">
        <ele>29.6</ele>
        <time>2013-08-22T10:38:57Z</time>
      </trkpt>
      <trkpt lat="47.21071" lon="-1.62874">
        <ele>29.7</ele>
        <time>2013-08-22T10:39:00Z</time>
      </trkpt>
      <trkpt lat="47.21078" lon="-1.62881">
        <ele>30.1</ele>
        <time>2013-08-22T10:39:02Z</time>
      </trkpt>
      <trkpt lat="47.21084" lon="-1.62891">
        <ele>30.8</ele>
        <time>2013-08-22T10:39:04Z</time>
      </trkpt>
      <trkpt lat="47.21088" lon="-1.62905">
        <ele>31.3</ele>
        <time>2013-08-22T10:39:06Z</time>
      </trkpt>
      <trkpt lat="47.2109" lon="-1.62921">
        <ele>31</ele>
        <time>2013-08-22T10:39:08Z</time>
      </trkpt>
      <trkpt lat="47.21091" lon="-1.62935">
        <ele>30.7</ele>
        <time>2013-08-22T10:39:10Z</time>
      </trkpt>
      <trkpt lat="47.21093" lon="-1.62949">
        <ele>30.3</ele>
        <time>2013-08-22T10:39:12Z</time>
      </trkpt>
      <trkpt lat="47.21095" lon="-1.62964">
        <ele>29.4</ele>
        <time>2013-08-22T10:39:14Z</time>
      </trkpt>
      <trkpt lat="47.21097" lon="-1.62982">
        <ele>28.3</ele>
        <time>2013-08-22T10:39:16Z</time>
      </trkpt>
      <trkpt lat="47.21095" lon="-1.63004">
        <ele>27.6</ele>
        <time>2013-08-22T10:39:18Z</time>
      </trkpt>
      <trkpt lat="47.21094" lon="-1.6303">
        <ele>27</ele>
        <time>2013-08-22T10:39:20Z</time>
      </trkpt>
      <trkpt lat="47.21095" lon="-1.63056">
        <ele>26</ele>
        <time>2013-08-22T10:39:22Z</time>
      </trkpt>
      <trkpt lat="47.21097" lon="-1.6307">
        <ele>25.5</ele>
        <time>2013-08-22T10:39:23Z</time>
      </trkpt>
      <trkpt lat="47.211" lon="-1.63084">
        <ele>25.3</ele>
        <time>2013-08-22T10:39:24Z</time>
      </trkpt>
      <trkpt lat="47.21104" lon="-1.63096">
        <ele>25.2</ele>
        <time>2013-08-22T10:39:25Z</time>
      </trkpt>
      <trkpt lat="47.21111" lon="-1.63116">
        <ele>24</ele>
        <time>2013-08-22T10:39:27Z</time>
      </trkpt>
      <trkpt lat="47.21117" lon="-1.6314">
        <ele>22.6</ele>
        <time>2013-08-22T10:39:29Z</time>
      </trkpt>
      <trkpt lat="47.2112" lon="-1.63166">
        <ele>20.9</ele>
        <time>2013-08-22T10:39:31Z</time>
      </trkpt>
      <trkpt lat="47.21122" lon="-1.63181">
        <ele>19.8</ele>
        <time>2013-08-22T10:39:32Z</time>
      </trkpt>
      <trkpt lat="47.21123" lon="-1.63198">
        <ele>19</ele>
        <time>2013-08-22T10:39:33Z</time>
      </trkpt>
      <trkpt lat="47.21123" lon="-1.63214">
        <ele>18.1</ele>
        <time>2013-08-22T10:39:34Z</time>
      </trkpt>
      <trkpt lat="47.21123" lon="-1.63229">
        <ele>17.2</ele>
        <time>2013-08-22T10:39:35Z</time>
      </trkpt>
      <trkpt lat="47.21122" lon="-1.63245">
        <ele>16.1</ele>
        <time>2013-08-22T10:39:36Z</time>
      </trkpt>
      <trkpt lat="47.21121" lon="-1.63261">
        <ele>14.9</ele>
        <time>2013-08-22T10:39:37Z</time>
      </trkpt>
      <trkpt lat="47.21119" lon="-1.63278">
        <ele>13.9</ele>
        <time>2013-08-22T10:39:38Z</time>
      </trkpt>
      <trkpt lat="47.21117" lon="-1.63292">
        <ele>12.9</ele>
        <time>2013-08-22T10:39:39Z</time>
      </trkpt>
      <trkpt lat="47.21115" lon="-1.63307">
        <ele>11.9</ele>
        <time>2013-08-22T10:39:40Z</time>
      </trkpt>
      <trkpt lat="47.21113" lon="-1.63322">
        <ele>11.1</ele>
        <time>2013-08-22T10:39:41Z</time>
      </trkpt>
      <trkpt lat="47.21108" lon="-1.63346">
        <ele>10.3</ele>
        <time>2013-08-22T10:39:43Z</time>
      </trkpt>
      <trkpt lat="47.21105" lon="-1.63361">
        <ele>9.9</ele>
        <time>2013-08-22T10:39:44Z</time>
      </trkpt>
      <trkpt lat="47.21101" lon="-1.63375">
        <ele>9.6</ele>
        <time>2013-08-22T10:39:45Z</time>
      </trkpt>
      <trkpt lat="47.21097" lon="-1.63386">
        <ele>9.2</ele>
        <time>2013-08-22T10:39:46Z</time>
      </trkpt>
      <trkpt lat="47.21092" lon="-1.63398">
        <ele>8.8</ele>
        <time>2013-08-22T10:39:47Z</time>
      </trkpt>
      <trkpt lat="47.21087" lon="-1.63411">
        <ele>8.5</ele>
        <time>2013-08-22T10:39:48Z</time>
      </trkpt>
      <trkpt lat="47.21083" lon="-1.63422">
        <ele>8.2</ele>
        <time>2013-08-22T10:39:49Z</time>
      </trkpt>
      <trkpt lat="47.21076" lon="-1.63446">
        <ele>7.7</ele>
        <time>2013-08-22T10:39:51Z</time>
      </trkpt>
      <trkpt lat="47.21071" lon="-1.63467">
        <ele>7</ele>
        <time>2013-08-22T10:39:53Z</time>
      </trkpt>
      <trkpt lat="47.21068" lon="-1.63484">
        <ele>5.8</ele>
        <time>2013-08-22T10:39:55Z</time>
      </trkpt>
      <trkpt lat="47.21067" lon="-1.63499">
        <ele>5.6</ele>
        <time>2013-08-22T10:39:57Z</time>
      </trkpt>
      <trkpt lat="47.21057" lon="-1.63505">
        <ele>5.6</ele>
        <time>2013-08-22T10:40:02Z</time>
      </trkpt>
      <trkpt lat="47.21046" lon="-1.63508">
        <ele>5.6</ele>
        <time>2013-08-22T10:40:05Z</time>
      </trkpt>
      <trkpt lat="47.21033" lon="-1.63511">
        <ele>5.5</ele>
        <time>2013-08-22T10:40:08Z</time>
      </trkpt>
      <trkpt lat="47.21022" lon="-1.63512">
        <ele>5.4</ele>
        <time>2013-08-22T10:40:11Z</time>
      </trkpt>
      <trkpt lat="47.21009" lon="-1.63514">
        <ele>6.2</ele>
        <time>2013-08-22T10:40:14Z</time>
      </trkpt>
      <trkpt lat="47.20999" lon="-1.63514">
        <ele>6.1</ele>
        <time>2013-08-22T10:40:16Z</time>
      </trkpt>
      <trkpt lat="47.20988" lon="-1.63516">
        <ele>6.1</ele>
        <time>2013-08-22T10:40:18Z</time>
      </trkpt>
      <trkpt lat="47.20977" lon="-1.63517">
        <ele>5.2</ele>
        <time>2013-08-22T10:40:20Z</time>
      </trkpt>
      <trkpt lat="47.20967" lon="-1.63517">
        <ele>4.4</ele>
        <time>2013-08-22T10:40:22Z</time>
      </trkpt>
      <trkpt lat="47.20958" lon="-1.63519">
        <ele>4.1</ele>
        <time>2013-08-22T10:40:24Z</time>
      </trkpt>
      <trkpt lat="47.20949" lon="-1.63519">
        <ele>2</ele>
        <time>2013-08-22T10:40:26Z</time>
      </trkpt>
      <trkpt lat="47.20939" lon="-1.6352">
        <ele>2</ele>
        <time>2013-08-22T10:40:28Z</time>
      </trkpt>
      <trkpt lat="47.20928" lon="-1.63526">
        <ele>3.2</ele>
        <time>2013-08-22T10:40:30Z</time>
      </trkpt>
      <trkpt lat="47.20915" lon="-1.63534">
        <ele>3.9</ele>
        <time>2013-08-22T10:40:32Z</time>
      </trkpt>
      <trkpt lat="47.20906" lon="-1.63549">
        <ele>4.1</ele>
        <time>2013-08-22T10:40:34Z</time>
      </trkpt>
      <trkpt lat="47.20898" lon="-1.63561">
        <ele>4.1</ele>
        <time>2013-08-22T10:40:36Z</time>
      </trkpt>
      <trkpt lat="47.20889" lon="-1.63576">
        <ele>4.2</ele>
        <time>2013-08-22T10:40:39Z</time>
      </trkpt>
      <trkpt lat="47.20883" lon="-1.63586">
        <ele>4.3</ele>
        <time>2013-08-22T10:40:41Z</time>
      </trkpt>
      <trkpt lat="47.20876" lon="-1.63597">
        <ele>3.6</ele>
        <time>2013-08-22T10:40:43Z</time>
      </trkpt>
      <trkpt lat="47.20869" lon="-1.63607">
        <ele>2.9</ele>
        <time>2013-08-22T10:40:45Z</time>
      </trkpt>
      <trkpt lat="47.20862" lon="-1.63616">
        <ele>2.5</ele>
        <time>2013-08-22T10:40:47Z</time>
      </trkpt>
      <trkpt lat="47.20856" lon="-1.63626">
        <ele>2.2</ele>
        <time>2013-08-22T10:40:49Z</time>
      </trkpt>
      <trkpt lat="47.20849" lon="-1.63635">
        <ele>1.6</ele>
        <time>2013-08-22T10:40:51Z</time>
      </trkpt>
      <trkpt lat="47.20841" lon="-1.6365">
        <ele>1.7</ele>
        <time>2013-08-22T10:40:54Z</time>
      </trkpt>
      <trkpt lat="47.20832" lon="-1.63664">
        <ele>1.8</ele>
        <time>2013-08-22T10:40:57Z</time>
      </trkpt>
      <trkpt lat="47.20822" lon="-1.63676">
        <ele>1.8</ele>
        <time>2013-08-22T10:41:00Z</time>
      </trkpt>
      <trkpt lat="47.20816" lon="-1.63685">
        <ele>1.8</ele>
        <time>2013-08-22T10:41:03Z</time>
      </trkpt>
      <trkpt lat="47.20811" lon="-1.63697">
        <ele>1.9</ele>
        <time>2013-08-22T10:41:06Z</time>
      </trkpt>
      <trkpt lat="47.20812" lon="-1.63712">
        <ele>2</ele>
        <time>2013-08-22T10:41:09Z</time>
      </trkpt>
      <trkpt lat="47.20815" lon="-1.63726">
        <ele>2.2</ele>
        <time>2013-08-22T10:41:12Z</time>
      </trkpt>
      <trkpt lat="47.20819" lon="-1.63739">
        <ele>2.5</ele>
        <time>2013-08-22T10:41:15Z</time>
      </trkpt>
      <trkpt lat="47.20824" lon="-1.6375">
        <ele>2.7</ele>
        <time>2013-08-22T10:41:18Z</time>
      </trkpt>
      <trkpt lat="47.20829" lon="-1.63763">
        <ele>3</ele>
        <time>2013-08-22T10:41:21Z</time>
      </trkpt>
      <trkpt lat="47.20834" lon="-1.63776">
        <ele>3.2</ele>
        <time>2013-08-22T10:41:24Z</time>
      </trkpt>
      <trkpt lat="47.20841" lon="-1.63787">
        <ele>3.4</ele>
        <time>2013-08-22T10:41:28Z</time>
      </trkpt>
      <trkpt lat="47.20846" lon="-1.63803">
        <ele>3.8</ele>
        <time>2013-08-22T10:41:32Z</time>
      </trkpt>
      <trkpt lat="47.20851" lon="-1.63814">
        <ele>4.1</ele>
        <time>2013-08-22T10:41:36Z</time>
      </trkpt>
      <trkpt lat="47.20856" lon="-1.63826">
        <ele>4.5</ele>
        <time>2013-08-22T10:41:40Z</time>
      </trkpt>
      <trkpt lat="47.20858" lon="-1.63839">
        <ele>4.9</ele>
        <time>2013-08-22T10:41:44Z</time>
      </trkpt>
      <trkpt lat="47.20863" lon="-1.63852">
        <ele>5.1</ele>
        <time>2013-08-22T10:41:47Z</time>
      </trkpt>
      <trkpt lat="47.20867" lon="-1.63865">
        <ele>5.5</ele>
        <time>2013-08-22T10:41:51Z</time>
      </trkpt>
      <trkpt lat="47.20872" lon="-1.63881">
        <ele>5.9</ele>
        <time>2013-08-22T10:41:55Z</time>
      </trkpt>
      <trkpt lat="47.20878" lon="-1.63893">
        <ele>6.2</ele>
        <time>2013-08-22T10:41:58Z</time>
      </trkpt>
      <trkpt lat="47.20883" lon="-1.63908">
        <ele>6.5</ele>
        <time>2013-08-22T10:42:02Z</time>
      </trkpt>
      <trkpt lat="47.20888" lon="-1.63923">
        <ele>7.2</ele>
        <time>2013-08-22T10:42:06Z</time>
      </trkpt>
      <trkpt lat="47.20891" lon="-1.63939">
        <ele>7.9</ele>
        <time>2013-08-22T10:42:10Z</time>
      </trkpt>
      <trkpt lat="47.20887" lon="-1.63954">
        <ele>8.7</ele>
        <time>2013-08-22T10:42:14Z</time>
      </trkpt>
      <trkpt lat="47.20882" lon="-1.63967">
        <ele>9.3</ele>
        <time>2013-08-22T10:42:18Z</time>
      </trkpt>
      <trkpt lat="47.20877" lon="-1.6398">
        <ele>10</ele>
        <time>2013-08-22T10:42:22Z</time>
      </trkpt>
      <trkpt lat="47.20868" lon="-1.63988">
        <ele>10.8</ele>
        <time>2013-08-22T10:42:28Z</time>
      </trkpt>
      <trkpt lat="47.20867" lon="-1.64005">
        <ele>11</ele>
        <time>2013-08-22T10:42:32Z</time>
      </trkpt>
      <trkpt lat="47.20872" lon="-1.6402">
        <ele>11.2</ele>
        <time>2013-08-22T10:42:36Z</time>
      </trkpt>
      <trkpt lat="47.20877" lon="-1.64035">
        <ele>11.5</ele>
        <time>2013-08-22T10:42:40Z</time>
      </trkpt>
      <trkpt lat="47.20882" lon="-1.64048">
        <ele>11.8</ele>
        <time>2013-08-22T10:42:43Z</time>
      </trkpt>
      <trkpt lat="47.20887" lon="-1.64059">
        <ele>12.1</ele>
        <time>2013-08-22T10:42:46Z</time>
      </trkpt>
      <trkpt lat="47.20893" lon="-1.64071">
        <ele>12.5</ele>
        <time>2013-08-22T10:42:49Z</time>
      </trkpt>
      <trkpt lat="47.209" lon="-1.64081">
        <ele>13.3</ele>
        <time>2013-08-22T10:42:54Z</time>
      </trkpt>
      <trkpt lat="47.20908" lon="-1.64073">
        <ele>15.4</ele>
        <time>2013-08-22T10:45:14Z</time>
      </trkpt>
      <trkpt lat="47.20901" lon="-1.64064">
        <ele>16.6</ele>
        <time>2013-08-22T10:48:56Z</time>
      </trkpt>
      <trkpt lat="47.20909" lon="-1.64069">
        <ele>15.8</ele>
        <time>2013-08-22T10:49:35Z</time>
      </trkpt>
      <trkpt lat="47.20918" lon="-1.64073">
        <ele>13.9</ele>
        <time>2013-08-22T10:55:49Z</time>
      </trkpt>
      <trkpt lat="47.20912" lon="-1.64062">
        <ele>13.2</ele>
        <time>2013-08-22T10:57:11Z</time>
      </trkpt>
      <trkpt lat="47.20918" lon="-1.64073">
        <ele>13.1</ele>
        <time>2013-08-22T11:00:05Z</time>
      </trkpt>
      <trkpt lat="47.20912" lon="-1.64063">
        <ele>12.1</ele>
        <time>2013-08-22T11:02:08Z</time>
      </trkpt>
      <trkpt lat="47.2092" lon="-1.64068">
        <ele>12.5</ele>
        <time>2013-08-22T11:04:21Z</time>
      </trkpt>
      <trkpt lat="47.20912" lon="-1.64072">
        <ele>7.6</ele>
        <time>2013-08-22T11:06:08Z</time>
      </trkpt>
      <trkpt lat="47.20921" lon="-1.64071">
        <ele>4.8</ele>
        <time>2013-08-22T11:07:35Z</time>
      </trkpt>
      <trkpt lat="47.20915" lon="-1.64061">
        <ele>12.6</ele>
        <time>2013-08-22T11:11:40Z</time>
      </trkpt>
      <trkpt lat="47.20907" lon="-1.64065">
        <ele>15.2</ele>
        <time>2013-08-22T11:12:02Z</time>
      </trkpt>
      <trkpt lat="47.20899" lon="-1.64056">
        <ele>16.6</ele>
        <time>2013-08-22T11:13:30Z</time>
      </trkpt>
      <trkpt lat="47.20904" lon="-1.64068">
        <ele>16.6</ele>
        <time>2013-08-22T11:13:51Z</time>
      </trkpt>
      <trkpt lat="47.20905" lon="-1.64082">
        <ele>16.7</ele>
        <time>2013-08-22T11:14:46Z</time>
      </trkpt>
      <trkpt lat="47.20911" lon="-1.64093">
        <ele>17.3</ele>
        <time>2013-08-22T11:14:49Z</time>
      </trkpt>
      <trkpt lat="47.20912" lon="-1.64079">
        <ele>17.5</ele>
        <time>2013-08-22T11:15:04Z</time>
      </trkpt>
      <trkpt lat="47.20906" lon="-1.64069">
        <ele>16.9</ele>
        <time>2013-08-22T11:15:20Z</time>
      </trkpt>
      <trkpt lat="47.20897" lon="-1.64065">
        <ele>16.9</ele>
        <time>2013-08-22T11:15:32Z</time>
      </trkpt>
      <trkpt lat="47.20889" lon="-1.6406">
        <ele>18</ele>
        <time>2013-08-22T11:16:53Z</time>
      </trkpt>
      <trkpt lat="47.20882" lon="-1.64045">
        <ele>18.4</ele>
        <time>2013-08-22T11:16:57Z</time>
      </trkpt>
      <trkpt lat="47.20877" lon="-1.64032">
        <ele>18.5</ele>
        <time>2013-08-22T11:16:59Z</time>
      </trkpt>
      <trkpt lat="47.20882" lon="-1.64018">
        <ele>18.7</ele>
        <time>2013-08-22T11:17:04Z</time>
      </trkpt>
      <trkpt lat="47.2089" lon="-1.64011">
        <ele>18.6</ele>
        <time>2013-08-22T11:17:07Z</time>
      </trkpt>
      <trkpt lat="47.20899" lon="-1.64001">
        <ele>18.7</ele>
        <time>2013-08-22T11:17:10Z</time>
      </trkpt>
      <trkpt lat="47.20896" lon="-1.64014">
        <ele>18.5</ele>
        <time>2013-08-22T11:17:25Z</time>
      </trkpt>
      <trkpt lat="47.20889" lon="-1.64026">
        <ele>17.1</ele>
        <time>2013-08-22T11:17:28Z</time>
      </trkpt>
      <trkpt lat="47.20878" lon="-1.6403">
        <ele>16.9</ele>
        <time>2013-08-22T11:17:31Z</time>
      </trkpt>
      <trkpt lat="47.20871" lon="-1.64013">
        <ele>17</ele>
        <time>2013-08-22T11:17:35Z</time>
      </trkpt>
      <trkpt lat="47.20867" lon="-1.64001">
        <ele>17.2</ele>
        <time>2013-08-22T11:17:37Z</time>
      </trkpt>
      <trkpt lat="47.20867" lon="-1.63984">
        <ele>17.4</ele>
        <time>2013-08-22T11:17:40Z</time>
      </trkpt>
      <trkpt lat="47.20877" lon="-1.63976">
        <ele>17.3</ele>
        <time>2013-08-22T11:17:44Z</time>
      </trkpt>
      <trkpt lat="47.20884" lon="-1.63965">
        <ele>17.1</ele>
        <time>2013-08-22T11:17:47Z</time>
      </trkpt>
      <trkpt lat="47.20892" lon="-1.63949">
        <ele>16.5</ele>
        <time>2013-08-22T11:17:50Z</time>
      </trkpt>
      <trkpt lat="47.20892" lon="-1.63934">
        <ele>15.8</ele>
        <time>2013-08-22T11:17:52Z</time>
      </trkpt>
      <trkpt lat="47.20886" lon="-1.63915">
        <ele>15.1</ele>
        <time>2013-08-22T11:17:54Z</time>
      </trkpt>
      <trkpt lat="47.20879" lon="-1.63898">
        <ele>14.7</ele>
        <time>2013-08-22T11:17:56Z</time>
      </trkpt>
      <trkpt lat="47.20872" lon="-1.63883">
        <ele>14.4</ele>
        <time>2013-08-22T11:17:58Z</time>
      </trkpt>
      <trkpt lat="47.20866" lon="-1.63871">
        <ele>14</ele>
        <time>2013-08-22T11:18:00Z</time>
      </trkpt>
      <trkpt lat="47.20858" lon="-1.63861">
        <ele>13.9</ele>
        <time>2013-08-22T11:18:04Z</time>
      </trkpt>
      <trkpt lat="47.20863" lon="-1.63872">
        <ele>13.9</ele>
        <time>2013-08-22T11:18:07Z</time>
      </trkpt>
      <trkpt lat="47.20871" lon="-1.6388">
        <ele>14</ele>
        <time>2013-08-22T11:18:09Z</time>
      </trkpt>
      <trkpt lat="47.20878" lon="-1.6389">
        <ele>13.8</ele>
        <time>2013-08-22T11:18:12Z</time>
      </trkpt>
      <trkpt lat="47.20886" lon="-1.63899">
        <ele>13.6</ele>
        <time>2013-08-22T11:18:16Z</time>
      </trkpt>
      <trkpt lat="47.20897" lon="-1.63899">
        <ele>13.6</ele>
        <time>2013-08-22T11:18:22Z</time>
      </trkpt>
      <trkpt lat="47.20906" lon="-1.63904">
        <ele>13.4</ele>
        <time>2013-08-22T11:18:26Z</time>
      </trkpt>
      <trkpt lat="47.20914" lon="-1.63917">
        <ele>13.3</ele>
        <time>2013-08-22T11:18:30Z</time>
      </trkpt>
      <trkpt lat="47.20921" lon="-1.63931">
        <ele>13.5</ele>
        <time>2013-08-22T11:18:33Z</time>
      </trkpt>
      <trkpt lat="47.20927" lon="-1.63943">
        <ele>13.7</ele>
        <time>2013-08-22T11:18:35Z</time>
      </trkpt>
      <trkpt lat="47.20934" lon="-1.63954">
        <ele>14</ele>
        <time>2013-08-22T11:18:37Z</time>
      </trkpt>
      <trkpt lat="47.20941" lon="-1.63963">
        <ele>14.2</ele>
        <time>2013-08-22T11:18:39Z</time>
      </trkpt>
      <trkpt lat="47.20952" lon="-1.63968">
        <ele>14.6</ele>
        <time>2013-08-22T11:18:42Z</time>
      </trkpt>
      <trkpt lat="47.20961" lon="-1.63968">
        <ele>15</ele>
        <time>2013-08-22T11:18:45Z</time>
      </trkpt>
      <trkpt lat="47.20969" lon="-1.63963">
        <ele>15.9</ele>
        <time>2013-08-22T11:18:51Z</time>
      </trkpt>
      <trkpt lat="47.20977" lon="-1.63956">
        <ele>16.6</ele>
        <time>2013-08-22T11:18:55Z</time>
      </trkpt>
      <trkpt lat="47.20986" lon="-1.63948">
        <ele>17.2</ele>
        <time>2013-08-22T11:19:00Z</time>
      </trkpt>
      <trkpt lat="47.20995" lon="-1.63941">
        <ele>17.7</ele>
        <time>2013-08-22T11:19:05Z</time>
      </trkpt>
      <trkpt lat="47.21003" lon="-1.63931">
        <ele>18.1</ele>
        <time>2013-08-22T11:19:09Z</time>
      </trkpt>
      <trkpt lat="47.21011" lon="-1.6392">
        <ele>18.6</ele>
        <time>2013-08-22T11:19:13Z</time>
      </trkpt>
      <trkpt lat="47.2102" lon="-1.63913">
        <ele>19.2</ele>
        <time>2013-08-22T11:19:17Z</time>
      </trkpt>
      <trkpt lat="47.2103" lon="-1.6391">
        <ele>20</ele>
        <time>2013-08-22T11:19:22Z</time>
      </trkpt>
      <trkpt lat="47.2104" lon="-1.63905">
        <ele>20.5</ele>
        <time>2013-08-22T11:19:26Z</time>
      </trkpt>
      <trkpt lat="47.2105" lon="-1.63901">
        <ele>21</ele>
        <time>2013-08-22T11:19:30Z</time>
      </trkpt>
      <trkpt lat="47.21059" lon="-1.63894">
        <ele>21.4</ele>
        <time>2013-08-22T11:19:34Z</time>
      </trkpt>
      <trkpt lat="47.21068" lon="-1.63884">
        <ele>21.9</ele>
        <time>2013-08-22T11:19:38Z</time>
      </trkpt>
      <trkpt lat="47.21076" lon="-1.63873">
        <ele>22.3</ele>
        <time>2013-08-22T11:19:42Z</time>
      </trkpt>
      <trkpt lat="47.21084" lon="-1.63862">
        <ele>22.7</ele>
        <time>2013-08-22T11:19:46Z</time>
      </trkpt>
      <trkpt lat="47.21094" lon="-1.63854">
        <ele>23.1</ele>
        <time>2013-08-22T11:19:50Z</time>
      </trkpt>
      <trkpt lat="47.21104" lon="-1.63847">
        <ele>23.5</ele>
        <time>2013-08-22T11:19:54Z</time>
      </trkpt>
      <trkpt lat="47.21112" lon="-1.63841">
        <ele>23.7</ele>
        <time>2013-08-22T11:19:57Z</time>
      </trkpt>
      <trkpt lat="47.21121" lon="-1.63834">
        <ele>23.8</ele>
        <time>2013-08-22T11:20:00Z</time>
      </trkpt>
      <trkpt lat="47.21129" lon="-1.63828">
        <ele>24.1</ele>
        <time>2013-08-22T11:20:03Z</time>
      </trkpt>
      <trkpt lat="47.21137" lon="-1.63821">
        <ele>24.2</ele>
        <time>2013-08-22T11:20:06Z</time>
      </trkpt>
      <trkpt lat="47.21145" lon="-1.63816">
        <ele>24.5</ele>
        <time>2013-08-22T11:20:10Z</time>
      </trkpt>
      <trkpt lat="47.21155" lon="-1.63811">
        <ele>25</ele>
        <time>2013-08-22T11:20:20Z</time>
      </trkpt>
      <trkpt lat="47.21165" lon="-1.63801">
        <ele>24.7</ele>
        <time>2013-08-22T11:20:25Z</time>
      </trkpt>
      <trkpt lat="47.21174" lon="-1.63793">
        <ele>24.6</ele>
        <time>2013-08-22T11:20:28Z</time>
      </trkpt>
      <trkpt lat="47.21183" lon="-1.63786">
        <ele>24.6</ele>
        <time>2013-08-22T11:20:31Z</time>
      </trkpt>
      <trkpt lat="47.21193" lon="-1.63778">
        <ele>23.6</ele>
        <time>2013-08-22T11:20:34Z</time>
      </trkpt>
      <trkpt lat="47.21203" lon="-1.63765">
        <ele>21.6</ele>
        <time>2013-08-22T11:20:37Z</time>
      </trkpt>
      <trkpt lat="47.21211" lon="-1.63756">
        <ele>20.4</ele>
        <time>2013-08-22T11:20:39Z</time>
      </trkpt>
      <trkpt lat="47.21217" lon="-1.63742">
        <ele>19.8</ele>
        <time>2013-08-22T11:20:42Z</time>
      </trkpt>
      <trkpt lat="47.21215" lon="-1.63729">
        <ele>19.7</ele>
        <time>2013-08-22T11:20:45Z</time>
      </trkpt>
      <trkpt lat="47.21214" lon="-1.63713">
        <ele>19.5</ele>
        <time>2013-08-22T11:20:48Z</time>
      </trkpt>
      <trkpt lat="47.21215" lon="-1.63698">
        <ele>19.3</ele>
        <time>2013-08-22T11:20:51Z</time>
      </trkpt>
      <trkpt lat="47.21221" lon="-1.63683">
        <ele>18.8</ele>
        <time>2013-08-22T11:20:55Z</time>
      </trkpt>
      <trkpt lat="47.2123" lon="-1.63677">
        <ele>18.7</ele>
        <time>2013-08-22T11:20:59Z</time>
      </trkpt>
      <trkpt lat="47.21239" lon="-1.63673">
        <ele>18.6</ele>
        <time>2013-08-22T11:21:02Z</time>
      </trkpt>
      <trkpt lat="47.21249" lon="-1.63671">
        <ele>18.5</ele>
        <time>2013-08-22T11:21:06Z</time>
      </trkpt>
      <trkpt lat="47.21258" lon="-1.63673">
        <ele>18.5</ele>
        <time>2013-08-22T11:21:13Z</time>
      </trkpt>
      <trkpt lat="47.21268" lon="-1.6367">
        <ele>18.1</ele>
        <time>2013-08-22T11:21:19Z</time>
      </trkpt>
      <trkpt lat="47.21276" lon="-1.63663">
        <ele>18.2</ele>
        <time>2013-08-22T11:21:28Z</time>
      </trkpt>
      <trkpt lat="47.21279" lon="-1.63649">
        <ele>18.2</ele>
        <time>2013-08-22T11:21:36Z</time>
      </trkpt>
      <trkpt lat="47.21277" lon="-1.63636">
        <ele>18.6</ele>
        <time>2013-08-22T11:21:41Z</time>
      </trkpt>
      <trkpt lat="47.21276" lon="-1.63622">
        <ele>19.7</ele>
        <time>2013-08-22T11:21:47Z</time>
      </trkpt>
      <trkpt lat="47.21277" lon="-1.63607">
        <ele>21.3</ele>
        <time>2013-08-22T11:21:54Z</time>
      </trkpt>
      <trkpt lat="47.21271" lon="-1.63594">
        <ele>22.7</ele>
        <time>2013-08-22T11:22:00Z</time>
      </trkpt>
      <trkpt lat="47.21267" lon="-1.63581">
        <ele>23.3</ele>
        <time>2013-08-22T11:22:04Z</time>
      </trkpt>
      <trkpt lat="47.21264" lon="-1.63568">
        <ele>23.8</ele>
        <time>2013-08-22T11:22:08Z</time>
      </trkpt>
      <trkpt lat="47.21264" lon="-1.63551">
        <ele>24.2</ele>
        <time>2013-08-22T11:22:13Z</time>
      </trkpt>
      <trkpt lat="47.21267" lon="-1.63537">
        <ele>24.4</ele>
        <time>2013-08-22T11:22:17Z</time>
      </trkpt>
      <trkpt lat="47.21271" lon="-1.63522">
        <ele>24.6</ele>
        <time>2013-08-22T11:22:21Z</time>
      </trkpt>
      <trkpt lat="47.21277" lon="-1.63509">
        <ele>25</ele>
        <time>2013-08-22T11:22:25Z</time>
      </trkpt>
      <trkpt lat="47.21283" lon="-1.63496">
        <ele>25.4</ele>
        <time>2013-08-22T11:22:29Z</time>
      </trkpt>
      <trkpt lat="47.21287" lon="-1.6348">
        <ele>25.8</ele>
        <time>2013-08-22T11:22:33Z</time>
      </trkpt>
      <trkpt lat="47.21287" lon="-1.63463">
        <ele>26.3</ele>
        <time>2013-08-22T11:22:37Z</time>
      </trkpt>
      <trkpt lat="47.21284" lon="-1.63448">
        <ele>26.8</ele>
        <time>2013-08-22T11:22:41Z</time>
      </trkpt>
      <trkpt lat="47.21278" lon="-1.63435">
        <ele>27.1</ele>
        <time>2013-08-22T11:22:44Z</time>
      </trkpt>
      <trkpt lat="47.21272" lon="-1.63423">
        <ele>27.6</ele>
        <time>2013-08-22T11:22:47Z</time>
      </trkpt>
      <trkpt lat="47.21265" lon="-1.63414">
        <ele>28.2</ele>
        <time>2013-08-22T11:22:50Z</time>
      </trkpt>
      <trkpt lat="47.21253" lon="-1.63407">
        <ele>28.6</ele>
        <time>2013-08-22T11:22:54Z</time>
      </trkpt>
      <trkpt lat="47.21243" lon="-1.63406">
        <ele>28.6</ele>
        <time>2013-08-22T11:22:57Z</time>
      </trkpt>
      <trkpt lat="47.21232" lon="-1.63409">
        <ele>28.8</ele>
        <time>2013-08-22T11:23:00Z</time>
      </trkpt>
      <trkpt lat="47.21219" lon="-1.63407">
        <ele>28.4</ele>
        <time>2013-08-22T11:23:03Z</time>
      </trkpt>
      <trkpt lat="47.21209" lon="-1.63397">
        <ele>28.1</ele>
        <time>2013-08-22T11:23:06Z</time>
      </trkpt>
      <trkpt lat="47.21199" lon="-1.63389">
        <ele>27.9</ele>
        <time>2013-08-22T11:23:09Z</time>
      </trkpt>
      <trkpt lat="47.21192" lon="-1.63379">
        <ele>26.3</ele>
        <time>2013-08-22T11:23:11Z</time>
      </trkpt>
      <trkpt lat="47.21186" lon="-1.63365">
        <ele>24.5</ele>
        <time>2013-08-22T11:23:13Z</time>
      </trkpt>
      <trkpt lat="47.21182" lon="-1.63346">
        <ele>23.9</ele>
        <time>2013-08-22T11:23:15Z</time>
      </trkpt>
      <trkpt lat="47.21183" lon="-1.63329">
        <ele>23.3</ele>
        <time>2013-08-22T11:23:17Z</time>
      </trkpt>
      <trkpt lat="47.21185" lon="-1.63315">
        <ele>23.2</ele>
        <time>2013-08-22T11:23:25Z</time>
      </trkpt>
      <trkpt lat="47.21177" lon="-1.63306">
        <ele>22.5</ele>
        <time>2013-08-22T11:23:32Z</time>
      </trkpt>
      <trkpt lat="47.21176" lon="-1.63293">
        <ele>20.6</ele>
        <time>2013-08-22T11:23:44Z</time>
      </trkpt>
      <trkpt lat="47.21179" lon="-1.6328">
        <ele>19.4</ele>
        <time>2013-08-22T11:23:50Z</time>
      </trkpt>
      <trkpt lat="47.21174" lon="-1.63267">
        <ele>15.1</ele>
        <time>2013-08-22T11:24:32Z</time>
      </trkpt>
      <trkpt lat="47.21163" lon="-1.63269">
        <ele>13.7</ele>
        <time>2013-08-22T11:24:38Z</time>
      </trkpt>
      <trkpt lat="47.21154" lon="-1.63267">
        <ele>12.3</ele>
        <time>2013-08-22T11:24:44Z</time>
      </trkpt>
      <trkpt lat="47.21156" lon="-1.63253">
        <ele>11</ele>
        <time>2013-08-22T11:24:50Z</time>
      </trkpt>
      <trkpt lat="47.21158" lon="-1.6324">
        <ele>10.5</ele>
        <time>2013-08-22T11:24:55Z</time>
      </trkpt>
      <trkpt lat="47.21168" lon="-1.6324">
        <ele>10.1</ele>
        <time>2013-08-22T11:25:02Z</time>
      </trkpt>
      <trkpt lat="47.21177" lon="-1.63239">
        <ele>10.8</ele>
        <time>2013-08-22T11:25:10Z</time>
      </trkpt>
      <trkpt lat="47.21171" lon="-1.63226">
        <ele>11.1</ele>
        <time>2013-08-22T11:25:17Z</time>
      </trkpt>
      <trkpt lat="47.21166" lon="-1.63215">
        <ele>11.2</ele>
        <time>2013-08-22T11:25:23Z</time>
      </trkpt>
      <trkpt lat="47.21171" lon="-1.63203">
        <ele>12.6</ele>
        <time>2013-08-22T11:25:58Z</time>
      </trkpt>
      <trkpt lat="47.2118" lon="-1.63198">
        <ele>12.6</ele>
        <time>2013-08-22T11:26:05Z</time>
      </trkpt>
      <trkpt lat="47.21189" lon="-1.63192">
        <ele>12</ele>
        <time>2013-08-22T11:26:09Z</time>
      </trkpt>
      <trkpt lat="47.21199" lon="-1.63192">
        <ele>11.4</ele>
        <time>2013-08-22T11:26:12Z</time>
      </trkpt>
      <trkpt lat="47.21215" lon="-1.63195">
        <ele>10.8</ele>
        <time>2013-08-22T11:26:15Z</time>
      </trkpt>
      <trkpt lat="47.21226" lon="-1.63197">
        <ele>10.7</ele>
        <time>2013-08-22T11:26:17Z</time>
      </trkpt>
      <trkpt lat="47.21235" lon="-1.63206">
        <ele>10.8</ele>
        <time>2013-08-22T11:26:22Z</time>
      </trkpt>
      <trkpt lat="47.21241" lon="-1.63217">
        <ele>10.6</ele>
        <time>2013-08-22T11:26:26Z</time>
      </trkpt>
      <trkpt lat="47.21248" lon="-1.63231">
        <ele>10.7</ele>
        <time>2013-08-22T11:26:30Z</time>
      </trkpt>
      <trkpt lat="47.21253" lon="-1.63242">
        <ele>10.7</ele>
        <time>2013-08-22T11:26:37Z</time>
      </trkpt>
      <trkpt lat="47.21264" lon="-1.63245">
        <ele>10.4</ele>
        <time>2013-08-22T11:26:42Z</time>
      </trkpt>
      <trkpt lat="47.21272" lon="-1.63255">
        <ele>10.1</ele>
        <time>2013-08-22T11:26:46Z</time>
      </trkpt>
      <trkpt lat="47.21282" lon="-1.63257">
        <ele>10.2</ele>
        <time>2013-08-22T11:26:52Z</time>
      </trkpt>
      <trkpt lat="47.21291" lon="-1.63253">
        <ele>10.1</ele>
        <time>2013-08-22T11:26:57Z</time>
      </trkpt>
      <trkpt lat="47.21302" lon="-1.63252">
        <ele>10.2</ele>
        <time>2013-08-22T11:27:01Z</time>
      </trkpt>
      <trkpt lat="47.21311" lon="-1.63247">
        <ele>10.3</ele>
        <time>2013-08-22T11:27:07Z</time>
      </trkpt>
      <trkpt lat="47.21321" lon="-1.63244">
        <ele>10.4</ele>
        <time>2013-08-22T11:27:12Z</time>
      </trkpt>
      <trkpt lat="47.21331" lon="-1.63242">
        <ele>10.1</ele>
        <time>2013-08-22T11:27:18Z</time>
      </trkpt>
      <trkpt lat="47.21342" lon="-1.63243">
        <ele>9.6</ele>
        <time>2013-08-22T11:27:23Z</time>
      </trkpt>
      <trkpt lat="47.21352" lon="-1.63245">
        <ele>9.7</ele>
        <time>2013-08-22T11:27:27Z</time>
      </trkpt>
      <trkpt lat="47.21363" lon="-1.63245">
        <ele>10.5</ele>
        <time>2013-08-22T11:27:31Z</time>
      </trkpt>
      <trkpt lat="47.21374" lon="-1.63246">
        <ele>11.4</ele>
        <time>2013-08-22T11:27:35Z</time>
      </trkpt>
      <trkpt lat="47.21384" lon="-1.63243">
        <ele>12.8</ele>
        <time>2013-08-22T11:27:40Z</time>
      </trkpt>
      <trkpt lat="47.21391" lon="-1.63235">
        <ele>13.5</ele>
        <time>2013-08-22T11:27:43Z</time>
      </trkpt>
      <trkpt lat="47.214" lon="-1.63225">
        <ele>14</ele>
        <time>2013-08-22T11:27:46Z</time>
      </trkpt>
      <trkpt lat="47.21407" lon="-1.63217">
        <ele>14.5</ele>
        <time>2013-08-22T11:27:48Z</time>
      </trkpt>
      <trkpt lat="47.21416" lon="-1.63206">
        <ele>15.1</ele>
        <time>2013-08-22T11:27:51Z</time>
      </trkpt>
      <trkpt lat="47.21425" lon="-1.63197">
        <ele>15.7</ele>
        <time>2013-08-22T11:27:54Z</time>
      </trkpt>
      <trkpt lat="47.21433" lon="-1.63186">
        <ele>16.4</ele>
        <time>2013-08-22T11:27:58Z</time>
      </trkpt>
      <trkpt lat="47.21441" lon="-1.63177">
        <ele>16.6</ele>
        <time>2013-08-22T11:28:01Z</time>
      </trkpt>
      <trkpt lat="47.2145" lon="-1.63167">
        <ele>16.4</ele>
        <time>2013-08-22T11:28:04Z</time>
      </trkpt>
      <trkpt lat="47.21459" lon="-1.63155">
        <ele>16</ele>
        <time>2013-08-22T11:28:07Z</time>
      </trkpt>
      <trkpt lat="47.21468" lon="-1.63147">
        <ele>15.8</ele>
        <time>2013-08-22T11:28:10Z</time>
      </trkpt>
      <trkpt lat="47.21478" lon="-1.63141">
        <ele>15.6</ele>
        <time>2013-08-22T11:28:13Z</time>
      </trkpt>
      <trkpt lat="47.21488" lon="-1.63137">
        <ele>15.1</ele>
        <time>2013-08-22T11:28:17Z</time>
      </trkpt>
      <trkpt lat="47.21498" lon="-1.63132">
        <ele>14.3</ele>
        <time>2013-08-22T11:28:22Z</time>
      </trkpt>
      <trkpt lat="47.2151" lon="-1.63131">
        <ele>13.3</ele>
        <time>2013-08-22T11:28:26Z</time>
      </trkpt>
      <trkpt lat="47.21519" lon="-1.63136">
        <ele>12.5</ele>
        <time>2013-08-22T11:28:29Z</time>
      </trkpt>
      <trkpt lat="47.21529" lon="-1.63142">
        <ele>11.8</ele>
        <time>2013-08-22T11:28:32Z</time>
      </trkpt>
      <trkpt lat="47.21539" lon="-1.63153">
        <ele>11</ele>
        <time>2013-08-22T11:28:35Z</time>
      </trkpt>
      <trkpt lat="47.21547" lon="-1.63166">
        <ele>10.1</ele>
        <time>2013-08-22T11:28:38Z</time>
      </trkpt>
      <trkpt lat="47.21551" lon="-1.6318">
        <ele>9.2</ele>
        <time>2013-08-22T11:28:41Z</time>
      </trkpt>
      <trkpt lat="47.21553" lon="-1.63194">
        <ele>8.1</ele>
        <time>2013-08-22T11:28:44Z</time>
      </trkpt>
      <trkpt lat="47.21556" lon="-1.63214">
        <ele>7.4</ele>
        <time>2013-08-22T11:28:47Z</time>
      </trkpt>
      <trkpt lat="47.2156" lon="-1.63231">
        <ele>6.6</ele>
        <time>2013-08-22T11:28:50Z</time>
      </trkpt>
      <trkpt lat="47.21565" lon="-1.63246">
        <ele>6.3</ele>
        <time>2013-08-22T11:28:53Z</time>
      </trkpt>
      <trkpt lat="47.21577" lon="-1.6324">
        <ele>6.5</ele>
        <time>2013-08-22T11:28:59Z</time>
      </trkpt>
      <trkpt lat="47.21585" lon="-1.63234">
        <ele>6.8</ele>
        <time>2013-08-22T11:29:02Z</time>
      </trkpt>
      <trkpt lat="47.21595" lon="-1.63228">
        <ele>7.2</ele>
        <time>2013-08-22T11:29:05Z</time>
      </trkpt>
      <trkpt lat="47.21609" lon="-1.63222">
        <ele>7.7</ele>
        <time>2013-08-22T11:29:07Z</time>
      </trkpt>
      <trkpt lat="47.2162" lon="-1.63219">
        <ele>8.5</ele>
        <time>2013-08-22T11:29:09Z</time>
      </trkpt>
      <trkpt lat="47.21631" lon="-1.63219">
        <ele>9.9</ele>
        <time>2013-08-22T11:29:13Z</time>
      </trkpt>
      <trkpt lat="47.21642" lon="-1.63225">
        <ele>11</ele>
        <time>2013-08-22T11:29:17Z</time>
      </trkpt>
      <trkpt lat="47.21652" lon="-1.63234">
        <ele>11.8</ele>
        <time>2013-08-22T11:29:20Z</time>
      </trkpt>
      <trkpt lat="47.21662" lon="-1.63238">
        <ele>12.7</ele>
        <time>2013-08-22T11:29:23Z</time>
      </trkpt>
      <trkpt lat="47.21672" lon="-1.63239">
        <ele>13.8</ele>
        <time>2013-08-22T11:29:26Z</time>
      </trkpt>
      <trkpt lat="47.21674" lon="-1.63222">
        <ele>15.1</ele>
        <time>2013-08-22T11:29:30Z</time>
      </trkpt>
      <trkpt lat="47.21673" lon="-1.63207">
        <ele>16</ele>
        <time>2013-08-22T11:29:33Z</time>
      </trkpt>
      <trkpt lat="47.21673" lon="-1.6319">
        <ele>16.8</ele>
        <time>2013-08-22T11:29:36Z</time>
      </trkpt>
      <trkpt lat="47.21683" lon="-1.63179">
        <ele>17.7</ele>
        <time>2013-08-22T11:29:40Z</time>
      </trkpt>
      <trkpt lat="47.21692" lon="-1.63176">
        <ele>18.2</ele>
        <time>2013-08-22T11:29:42Z</time>
      </trkpt>
      <trkpt lat="47.21705" lon="-1.63174">
        <ele>18.8</ele>
        <time>2013-08-22T11:29:45Z</time>
      </trkpt>
      <trkpt lat="47.21716" lon="-1.63174">
        <ele>20.8</ele>
        <time>2013-08-22T11:29:48Z</time>
      </trkpt>
      <trkpt lat="47.21727" lon="-1.63173">
        <ele>21.2</ele>
        <time>2013-08-22T11:29:51Z</time>
      </trkpt>
      <trkpt lat="47.21739" lon="-1.63172">
        <ele>21.6</ele>
        <time>2013-08-22T11:29:54Z</time>
      </trkpt>
      <trkpt lat="47.21751" lon="-1.63169">
        <ele>22.2</ele>
        <time>2013-08-22T11:29:57Z</time>
      </trkpt>
      <trkpt lat="47.21761" lon="-1.63166">
        <ele>22.8</ele>
        <time>2013-08-22T11:30:00Z</time>
      </trkpt>
      <trkpt lat="47.21772" lon="-1.63164">
        <ele>23.4</ele>
        <time>2013-08-22T11:30:03Z</time>
      </trkpt>
      <trkpt lat="47.21781" lon="-1.63163">
        <ele>23.8</ele>
        <time>2013-08-22T11:30:06Z</time>
      </trkpt>
      <trkpt lat="47.21792" lon="-1.63162">
        <ele>24.3</ele>
        <time>2013-08-22T11:30:09Z</time>
      </trkpt>
      <trkpt lat="47.21804" lon="-1.63161">
        <ele>24.7</ele>
        <time>2013-08-22T11:30:12Z</time>
      </trkpt>
      <trkpt lat="47.21817" lon="-1.63161">
        <ele>25.1</ele>
        <time>2013-08-22T11:30:15Z</time>
      </trkpt>
      <trkpt lat="47.21829" lon="-1.63159">
        <ele>29.2</ele>
        <time>2013-08-22T11:30:18Z</time>
      </trkpt>
      <trkpt lat="47.21841" lon="-1.63157">
        <ele>29.5</ele>
        <time>2013-08-22T11:30:21Z</time>
      </trkpt>
      <trkpt lat="47.21852" lon="-1.63153">
        <ele>31.3</ele>
        <time>2013-08-22T11:30:24Z</time>
      </trkpt>
      <trkpt lat="47.21863" lon="-1.63145">
        <ele>32.7</ele>
        <time>2013-08-22T11:30:27Z</time>
      </trkpt>
      <trkpt lat="47.21873" lon="-1.6314">
        <ele>33.5</ele>
        <time>2013-08-22T11:30:29Z</time>
      </trkpt>
      <trkpt lat="47.21882" lon="-1.63135">
        <ele>34.1</ele>
        <time>2013-08-22T11:30:31Z</time>
      </trkpt>
      <trkpt lat="47.21892" lon="-1.63129">
        <ele>34.6</ele>
        <time>2013-08-22T11:30:33Z</time>
      </trkpt>
      <trkpt lat="47.21901" lon="-1.63123">
        <ele>34.8</ele>
        <time>2013-08-22T11:30:35Z</time>
      </trkpt>
      <trkpt lat="47.21911" lon="-1.63117">
        <ele>35.1</ele>
        <time>2013-08-22T11:30:37Z</time>
      </trkpt>
      <trkpt lat="47.2192" lon="-1.63112">
        <ele>35.3</ele>
        <time>2013-08-22T11:30:39Z</time>
      </trkpt>
      <trkpt lat="47.21928" lon="-1.63106">
        <ele>35.5</ele>
        <time>2013-08-22T11:30:41Z</time>
      </trkpt>
      <trkpt lat="47.21937" lon="-1.63101">
        <ele>35.6</ele>
        <time>2013-08-22T11:30:43Z</time>
      </trkpt>
      <trkpt lat="47.21945" lon="-1.63095">
        <ele>35.8</ele>
        <time>2013-08-22T11:30:45Z</time>
      </trkpt>
      <trkpt lat="47.21954" lon="-1.6309">
        <ele>36</ele>
        <time>2013-08-22T11:30:47Z</time>
      </trkpt>
      <trkpt lat="47.21965" lon="-1.63081">
        <ele>36.3</ele>
        <time>2013-08-22T11:30:50Z</time>
      </trkpt>
      <trkpt lat="47.21977" lon="-1.63073">
        <ele>36.5</ele>
        <time>2013-08-22T11:30:53Z</time>
      </trkpt>
      <trkpt lat="47.21989" lon="-1.63065">
        <ele>36.4</ele>
        <time>2013-08-22T11:30:56Z</time>
      </trkpt>
      <trkpt lat="47.21997" lon="-1.63059">
        <ele>36.3</ele>
        <time>2013-08-22T11:30:58Z</time>
      </trkpt>
      <trkpt lat="47.22005" lon="-1.63052">
        <ele>36.2</ele>
        <time>2013-08-22T11:31:00Z</time>
      </trkpt>
      <trkpt lat="47.22018" lon="-1.63043">
        <ele>35.6</ele>
        <time>2013-08-22T11:31:03Z</time>
      </trkpt>
      <trkpt lat="47.2203" lon="-1.63035">
        <ele>35.2</ele>
        <time>2013-08-22T11:31:06Z</time>
      </trkpt>
      <trkpt lat="47.22039" lon="-1.63029">
        <ele>35.4</ele>
        <time>2013-08-22T11:31:08Z</time>
      </trkpt>
      <trkpt lat="47.22048" lon="-1.63024">
        <ele>35.5</ele>
        <time>2013-08-22T11:31:10Z</time>
      </trkpt>
      <trkpt lat="47.22057" lon="-1.63018">
        <ele>35</ele>
        <time>2013-08-22T11:31:12Z</time>
      </trkpt>
      <trkpt lat="47.22067" lon="-1.63009">
        <ele>33.1</ele>
        <time>2013-08-22T11:31:15Z</time>
      </trkpt>
      <trkpt lat="47.22077" lon="-1.63002">
        <ele>32.4</ele>
        <time>2013-08-22T11:31:18Z</time>
      </trkpt>
      <trkpt lat="47.22084" lon="-1.62992">
        <ele>32.4</ele>
        <time>2013-08-22T11:31:21Z</time>
      </trkpt>
      <trkpt lat="47.22084" lon="-1.62978">
        <ele>32.6</ele>
        <time>2013-08-22T11:31:25Z</time>
      </trkpt>
      <trkpt lat="47.22094" lon="-1.62972">
        <ele>33</ele>
        <time>2013-08-22T11:31:32Z</time>
      </trkpt>
      <trkpt lat="47.22105" lon="-1.62967">
        <ele>33.2</ele>
        <time>2013-08-22T11:31:37Z</time>
      </trkpt>
      <trkpt lat="47.22115" lon="-1.62964">
        <ele>33.4</ele>
        <time>2013-08-22T11:31:41Z</time>
      </trkpt>
      <trkpt lat="47.22124" lon="-1.62963">
        <ele>33.6</ele>
        <time>2013-08-22T11:31:46Z</time>
      </trkpt>
      <trkpt lat="47.22132" lon="-1.62973">
        <ele>33.5</ele>
        <time>2013-08-22T11:31:50Z</time>
      </trkpt>
      <trkpt lat="47.22136" lon="-1.62992">
        <ele>34.2</ele>
        <time>2013-08-22T11:31:53Z</time>
      </trkpt>
      <trkpt lat="47.22138" lon="-1.63005">
        <ele>35.1</ele>
        <time>2013-08-22T11:31:55Z</time>
      </trkpt>
      <trkpt lat="47.22141" lon="-1.63019">
        <ele>34.1</ele>
        <time>2013-08-22T11:31:57Z</time>
      </trkpt>
      <trkpt lat="47.22143" lon="-1.63033">
        <ele>33.3</ele>
        <time>2013-08-22T11:31:59Z</time>
      </trkpt>
      <trkpt lat="47.22146" lon="-1.6305">
        <ele>33.9</ele>
        <time>2013-08-22T11:32:02Z</time>
      </trkpt>
      <trkpt lat="47.22149" lon="-1.63064">
        <ele>34.1</ele>
        <time>2013-08-22T11:32:05Z</time>
      </trkpt>
      <trkpt lat="47.2216" lon="-1.63068">
        <ele>34.5</ele>
        <time>2013-08-22T11:32:10Z</time>
      </trkpt>
      <trkpt lat="47.22172" lon="-1.63064">
        <ele>34.5</ele>
        <time>2013-08-22T11:32:13Z</time>
      </trkpt>
      <trkpt lat="47.2218" lon="-1.63061">
        <ele>34.4</ele>
        <time>2013-08-22T11:32:15Z</time>
      </trkpt>
      <trkpt lat="47.22191" lon="-1.63057">
        <ele>32.2</ele>
        <time>2013-08-22T11:32:18Z</time>
      </trkpt>
      <trkpt lat="47.22201" lon="-1.63052">
        <ele>31.3</ele>
        <time>2013-08-22T11:32:21Z</time>
      </trkpt>
      <trkpt lat="47.22211" lon="-1.63049">
        <ele>31.2</ele>
        <time>2013-08-22T11:32:24Z</time>
      </trkpt>
      <trkpt lat="47.22222" lon="-1.63045">
        <ele>31.1</ele>
        <time>2013-08-22T11:32:27Z</time>
      </trkpt>
      <trkpt lat="47.22233" lon="-1.63041">
        <ele>31</ele>
        <time>2013-08-22T11:32:30Z</time>
      </trkpt>
      <trkpt lat="47.2224" lon="-1.63033">
        <ele>30.9</ele>
        <time>2013-08-22T11:32:33Z</time>
      </trkpt>
      <trkpt lat="47.22249" lon="-1.63021">
        <ele>30.8</ele>
        <time>2013-08-22T11:32:36Z</time>
      </trkpt>
      <trkpt lat="47.2226" lon="-1.63013">
        <ele>30.7</ele>
        <time>2013-08-22T11:32:39Z</time>
      </trkpt>
      <trkpt lat="47.2227" lon="-1.63016">
        <ele>30.6</ele>
        <time>2013-08-22T11:32:42Z</time>
      </trkpt>
      <trkpt lat="47.2228" lon="-1.63016">
        <ele>30.6</ele>
        <time>2013-08-22T11:32:45Z</time>
      </trkpt>
      <trkpt lat="47.22289" lon="-1.63015">
        <ele>30.5</ele>
        <time>2013-08-22T11:32:48Z</time>
      </trkpt>
      <trkpt lat="47.22299" lon="-1.63012">
        <ele>30.3</ele>
        <time>2013-08-22T11:32:51Z</time>
      </trkpt>
      <trkpt lat="47.22313" lon="-1.63007">
        <ele>29.8</ele>
        <time>2013-08-22T11:32:54Z</time>
      </trkpt>
      <trkpt lat="47.22322" lon="-1.63004">
        <ele>30</ele>
        <time>2013-08-22T11:32:56Z</time>
      </trkpt>
      <trkpt lat="47.22331" lon="-1.63">
        <ele>30.6</ele>
        <time>2013-08-22T11:32:58Z</time>
      </trkpt>
      <trkpt lat="47.22341" lon="-1.62995">
        <ele>31.4</ele>
        <time>2013-08-22T11:33:01Z</time>
      </trkpt>
      <trkpt lat="47.2235" lon="-1.6299">
        <ele>33.2</ele>
        <time>2013-08-22T11:33:03Z</time>
      </trkpt>
      <trkpt lat="47.22361" lon="-1.62984">
        <ele>33.5</ele>
        <time>2013-08-22T11:33:06Z</time>
      </trkpt>
      <trkpt lat="47.22372" lon="-1.62978">
        <ele>33.8</ele>
        <time>2013-08-22T11:33:09Z</time>
      </trkpt>
      <trkpt lat="47.22382" lon="-1.62974">
        <ele>34</ele>
        <time>2013-08-22T11:33:12Z</time>
      </trkpt>
      <trkpt lat="47.22391" lon="-1.62968">
        <ele>34.1</ele>
        <time>2013-08-22T11:33:15Z</time>
      </trkpt>
      <trkpt lat="47.224" lon="-1.62959">
        <ele>34.3</ele>
        <time>2013-08-22T11:33:18Z</time>
      </trkpt>
      <trkpt lat="47.22408" lon="-1.62953">
        <ele>34.5</ele>
        <time>2013-08-22T11:33:21Z</time>
      </trkpt>
      <trkpt lat="47.22415" lon="-1.62941">
        <ele>34.6</ele>
        <time>2013-08-22T11:33:25Z</time>
      </trkpt>
      <trkpt lat="47.22421" lon="-1.6293">
        <ele>34.5</ele>
        <time>2013-08-22T11:33:28Z</time>
      </trkpt>
      <trkpt lat="47.22426" lon="-1.62919">
        <ele>34.6</ele>
        <time>2013-08-22T11:33:31Z</time>
      </trkpt>
      <trkpt lat="47.22433" lon="-1.62905">
        <ele>34.9</ele>
        <time>2013-08-22T11:33:35Z</time>
      </trkpt>
      <trkpt lat="47.22443" lon="-1.62896">
        <ele>35.2</ele>
        <time>2013-08-22T11:33:39Z</time>
      </trkpt>
      <trkpt lat="47.22455" lon="-1.62895">
        <ele>35.4</ele>
        <time>2013-08-22T11:33:42Z</time>
      </trkpt>
      <trkpt lat="47.22466" lon="-1.6289">
        <ele>35.6</ele>
        <time>2013-08-22T11:33:46Z</time>
      </trkpt>
      <trkpt lat="47.22475" lon="-1.62899">
        <ele>36.1</ele>
        <time>2013-08-22T11:33:49Z</time>
      </trkpt>
      <trkpt lat="47.22483" lon="-1.62905">
        <ele>36.3</ele>
        <time>2013-08-22T11:33:52Z</time>
      </trkpt>
      <trkpt lat="47.22496" lon="-1.62905">
        <ele>37.3</ele>
        <time>2013-08-22T11:33:55Z</time>
      </trkpt>
      <trkpt lat="47.22509" lon="-1.629">
        <ele>38.7</ele>
        <time>2013-08-22T11:33:58Z</time>
      </trkpt>
      <trkpt lat="47.2252" lon="-1.62896">
        <ele>39.6</ele>
        <time>2013-08-22T11:34:01Z</time>
      </trkpt>
      <trkpt lat="47.22531" lon="-1.62891">
        <ele>39.7</ele>
        <time>2013-08-22T11:34:04Z</time>
      </trkpt>
      <trkpt lat="47.22541" lon="-1.62883">
        <ele>39.7</ele>
        <time>2013-08-22T11:34:07Z</time>
      </trkpt>
      <trkpt lat="47.22552" lon="-1.62886">
        <ele>39.2</ele>
        <time>2013-08-22T11:34:10Z</time>
      </trkpt>
      <trkpt lat="47.22562" lon="-1.62888">
        <ele>38.9</ele>
        <time>2013-08-22T11:34:13Z</time>
      </trkpt>
      <trkpt lat="47.22574" lon="-1.62891">
        <ele>38.8</ele>
        <time>2013-08-22T11:34:16Z</time>
      </trkpt>
      <trkpt lat="47.22582" lon="-1.62885">
        <ele>41.7</ele>
        <time>2013-08-22T11:34:43Z</time>
      </trkpt>
      <trkpt lat="47.22591" lon="-1.62882">
        <ele>44.1</ele>
        <time>2013-08-22T11:34:53Z</time>
      </trkpt>
      <trkpt lat="47.22601" lon="-1.62883">
        <ele>44.3</ele>
        <time>2013-08-22T11:35:04Z</time>
      </trkpt>
      <trkpt lat="47.22612" lon="-1.6288">
        <ele>44.4</ele>
        <time>2013-08-22T11:35:08Z</time>
      </trkpt>
      <trkpt lat="47.22622" lon="-1.62874">
        <ele>44.3</ele>
        <time>2013-08-22T11:35:12Z</time>
      </trkpt>
      <trkpt lat="47.2263" lon="-1.62868">
        <ele>44.3</ele>
        <time>2013-08-22T11:35:15Z</time>
      </trkpt>
      <trkpt lat="47.22638" lon="-1.62862">
        <ele>44.2</ele>
        <time>2013-08-22T11:35:18Z</time>
      </trkpt>
      <trkpt lat="47.22647" lon="-1.62856">
        <ele>44.1</ele>
        <time>2013-08-22T11:35:21Z</time>
      </trkpt>
      <trkpt lat="47.22655" lon="-1.62849">
        <ele>43.4</ele>
        <time>2013-08-22T11:35:27Z</time>
      </trkpt>
      <trkpt lat="47.22664" lon="-1.62845">
        <ele>43.3</ele>
        <time>2013-08-22T11:35:43Z</time>
      </trkpt>
      <trkpt lat="47.22674" lon="-1.62847">
        <ele>43.2</ele>
        <time>2013-08-22T11:35:53Z</time>
      </trkpt>
      <trkpt lat="47.22677" lon="-1.62834">
        <ele>42.5</ele>
        <time>2013-08-22T11:36:12Z</time>
      </trkpt>
      <trkpt lat="47.22681" lon="-1.62818">
        <ele>41.9</ele>
        <time>2013-08-22T11:36:16Z</time>
      </trkpt>
      <trkpt lat="47.22687" lon="-1.62802">
        <ele>41.2</ele>
        <time>2013-08-22T11:36:20Z</time>
      </trkpt>
      <trkpt lat="47.22691" lon="-1.6279">
        <ele>41.1</ele>
        <time>2013-08-22T11:36:23Z</time>
      </trkpt>
      <trkpt lat="47.22696" lon="-1.62776">
        <ele>41</ele>
        <time>2013-08-22T11:36:26Z</time>
      </trkpt>
      <trkpt lat="47.22702" lon="-1.62763">
        <ele>41</ele>
        <time>2013-08-22T11:36:30Z</time>
      </trkpt>
      <trkpt lat="47.22708" lon="-1.62751">
        <ele>41</ele>
        <time>2013-08-22T11:36:33Z</time>
      </trkpt>
      <trkpt lat="47.22713" lon="-1.62734">
        <ele>41.3</ele>
        <time>2013-08-22T11:36:36Z</time>
      </trkpt>
      <trkpt lat="47.22716" lon="-1.62718">
        <ele>41.9</ele>
        <time>2013-08-22T11:36:40Z</time>
      </trkpt>
      <trkpt lat="47.22719" lon="-1.62703">
        <ele>42.3</ele>
        <time>2013-08-22T11:36:43Z</time>
      </trkpt>
      <trkpt lat="47.2272" lon="-1.62688">
        <ele>42.7</ele>
        <time>2013-08-22T11:36:46Z</time>
      </trkpt>
      <trkpt lat="47.22722" lon="-1.62673">
        <ele>42.9</ele>
        <time>2013-08-22T11:36:49Z</time>
      </trkpt>
      <trkpt lat="47.22724" lon="-1.62659">
        <ele>43.1</ele>
        <time>2013-08-22T11:36:52Z</time>
      </trkpt>
      <trkpt lat="47.22727" lon="-1.62646">
        <ele>43.2</ele>
        <time>2013-08-22T11:36:54Z</time>
      </trkpt>
      <trkpt lat="47.22732" lon="-1.62628">
        <ele>43.2</ele>
        <time>2013-08-22T11:36:58Z</time>
      </trkpt>
      <trkpt lat="47.22736" lon="-1.62615">
        <ele>43.3</ele>
        <time>2013-08-22T11:37:01Z</time>
      </trkpt>
      <trkpt lat="47.22739" lon="-1.62601">
        <ele>43.4</ele>
        <time>2013-08-22T11:37:04Z</time>
      </trkpt>
      <trkpt lat="47.22741" lon="-1.62583">
        <ele>43.5</ele>
        <time>2013-08-22T11:37:08Z</time>
      </trkpt>
      <trkpt lat="47.22748" lon="-1.62573">
        <ele>44.4</ele>
        <time>2013-08-22T11:37:11Z</time>
      </trkpt>
      <trkpt lat="47.22758" lon="-1.62563">
        <ele>45.5</ele>
        <time>2013-08-22T11:37:14Z</time>
      </trkpt>
      <trkpt lat="47.22769" lon="-1.62558">
        <ele>45.5</ele>
        <time>2013-08-22T11:37:16Z</time>
      </trkpt>
      <trkpt lat="47.22779" lon="-1.62556">
        <ele>45.8</ele>
        <time>2013-08-22T11:37:18Z</time>
      </trkpt>
      <trkpt lat="47.22788" lon="-1.6255">
        <ele>46</ele>
        <time>2013-08-22T11:37:21Z</time>
      </trkpt>
      <trkpt lat="47.22782" lon="-1.62533">
        <ele>45.9</ele>
        <time>2013-08-22T11:37:24Z</time>
      </trkpt>
      <trkpt lat="47.22776" lon="-1.6252">
        <ele>45.6</ele>
        <time>2013-08-22T11:37:26Z</time>
      </trkpt>
      <trkpt lat="47.22771" lon="-1.62509">
        <ele>45.7</ele>
        <time>2013-08-22T11:37:28Z</time>
      </trkpt>
      <trkpt lat="47.22764" lon="-1.62496">
        <ele>45.6</ele>
        <time>2013-08-22T11:37:30Z</time>
      </trkpt>
      <trkpt lat="47.22757" lon="-1.62483">
        <ele>46.8</ele>
        <time>2013-08-22T11:37:32Z</time>
      </trkpt>
      <trkpt lat="47.22752" lon="-1.62472">
        <ele>48.4</ele>
        <time>2013-08-22T11:37:34Z</time>
      </trkpt>
      <trkpt lat="47.22746" lon="-1.62456">
        <ele>48.4</ele>
        <time>2013-08-22T11:37:37Z</time>
      </trkpt>
      <trkpt lat="47.2274" lon="-1.6244">
        <ele>48.2</ele>
        <time>2013-08-22T11:37:40Z</time>
      </trkpt>
      <trkpt lat="47.22734" lon="-1.62429">
        <ele>49.2</ele>
        <time>2013-08-22T11:37:42Z</time>
      </trkpt>
      <trkpt lat="47.22726" lon="-1.62418">
        <ele>49.6</ele>
        <time>2013-08-22T11:37:44Z</time>
      </trkpt>
      <trkpt lat="47.2272" lon="-1.62408">
        <ele>49.4</ele>
        <time>2013-08-22T11:37:46Z</time>
      </trkpt>
      <trkpt lat="47.22713" lon="-1.62398">
        <ele>49.3</ele>
        <time>2013-08-22T11:37:48Z</time>
      </trkpt>
      <trkpt lat="47.22707" lon="-1.62388">
        <ele>49.4</ele>
        <time>2013-08-22T11:37:50Z</time>
      </trkpt>
      <trkpt lat="47.22698" lon="-1.62373">
        <ele>49</ele>
        <time>2013-08-22T11:37:53Z</time>
      </trkpt>
      <trkpt lat="47.22692" lon="-1.62362">
        <ele>48.8</ele>
        <time>2013-08-22T11:37:55Z</time>
      </trkpt>
      <trkpt lat="47.22684" lon="-1.62348">
        <ele>48.4</ele>
        <time>2013-08-22T11:37:58Z</time>
      </trkpt>
      <trkpt lat="47.2268" lon="-1.62333">
        <ele>48.5</ele>
        <time>2013-08-22T11:38:02Z</time>
      </trkpt>
      <trkpt lat="47.22685" lon="-1.62319">
        <ele>47.7</ele>
        <time>2013-08-22T11:38:06Z</time>
      </trkpt>
      <trkpt lat="47.22693" lon="-1.62308">
        <ele>46.5</ele>
        <time>2013-08-22T11:38:08Z</time>
      </trkpt>
      <trkpt lat="47.22701" lon="-1.62297">
        <ele>46.8</ele>
        <time>2013-08-22T11:38:10Z</time>
      </trkpt>
      <trkpt lat="47.22711" lon="-1.62283">
        <ele>44.2</ele>
        <time>2013-08-22T11:38:12Z</time>
      </trkpt>
      <trkpt lat="47.22721" lon="-1.62269">
        <ele>40.9</ele>
        <time>2013-08-22T11:38:14Z</time>
      </trkpt>
      <trkpt lat="47.2273" lon="-1.62258">
        <ele>38.3</ele>
        <time>2013-08-22T11:38:16Z</time>
      </trkpt>
      <trkpt lat="47.22736" lon="-1.62244">
        <ele>36.4</ele>
        <time>2013-08-22T11:38:18Z</time>
      </trkpt>
      <trkpt lat="47.2274" lon="-1.6223">
        <ele>35.4</ele>
        <time>2013-08-22T11:38:20Z</time>
      </trkpt>
      <trkpt lat="47.22744" lon="-1.62214">
        <ele>36</ele>
        <time>2013-08-22T11:38:22Z</time>
      </trkpt>
      <trkpt lat="47.22745" lon="-1.62194">
        <ele>36.8</ele>
        <time>2013-08-22T11:38:24Z</time>
      </trkpt>
      <trkpt lat="47.22746" lon="-1.62174">
        <ele>36</ele>
        <time>2013-08-22T11:38:26Z</time>
      </trkpt>
      <trkpt lat="47.22747" lon="-1.62156">
        <ele>35.2</ele>
        <time>2013-08-22T11:38:28Z</time>
      </trkpt>
      <trkpt lat="47.22745" lon="-1.62136">
        <ele>36.3</ele>
        <time>2013-08-22T11:38:30Z</time>
      </trkpt>
      <trkpt lat="47.22746" lon="-1.62121">
        <ele>37.9</ele>
        <time>2013-08-22T11:38:32Z</time>
      </trkpt>
      <trkpt lat="47.22757" lon="-1.62114">
        <ele>39.3</ele>
        <time>2013-08-22T11:38:34Z</time>
      </trkpt>
      <trkpt lat="47.22768" lon="-1.6211">
        <ele>41.1</ele>
        <time>2013-08-22T11:38:36Z</time>
      </trkpt>
      <trkpt lat="47.2278" lon="-1.62109">
        <ele>41.7</ele>
        <time>2013-08-22T11:38:38Z</time>
      </trkpt>
      <trkpt lat="47.22795" lon="-1.6211">
        <ele>42</ele>
        <time>2013-08-22T11:38:40Z</time>
      </trkpt>
      <trkpt lat="47.22808" lon="-1.6211">
        <ele>42.3</ele>
        <time>2013-08-22T11:38:42Z</time>
      </trkpt>
      <trkpt lat="47.22818" lon="-1.6211">
        <ele>42.2</ele>
        <time>2013-08-22T11:38:44Z</time>
      </trkpt>
      <trkpt lat="47.22829" lon="-1.62112">
        <ele>42.5</ele>
        <time>2013-08-22T11:38:46Z</time>
      </trkpt>
      <trkpt lat="47.22842" lon="-1.62113">
        <ele>42.9</ele>
        <time>2013-08-22T11:38:48Z</time>
      </trkpt>
      <trkpt lat="47.22855" lon="-1.62111">
        <ele>42.2</ele>
        <time>2013-08-22T11:38:50Z</time>
      </trkpt>
      <trkpt lat="47.22867" lon="-1.62105">
        <ele>41.4</ele>
        <time>2013-08-22T11:38:52Z</time>
      </trkpt>
      <trkpt lat="47.22878" lon="-1.62095">
        <ele>41.3</ele>
        <time>2013-08-22T11:38:54Z</time>
      </trkpt>
      <trkpt lat="47.22887" lon="-1.62082">
        <ele>42.1</ele>
        <time>2013-08-22T11:38:56Z</time>
      </trkpt>
      <trkpt lat="47.22891" lon="-1.62062">
        <ele>43</ele>
        <time>2013-08-22T11:38:58Z</time>
      </trkpt>
      <trkpt lat="47.22897" lon="-1.62041">
        <ele>43.7</ele>
        <time>2013-08-22T11:39:00Z</time>
      </trkpt>
      <trkpt lat="47.22902" lon="-1.62019">
        <ele>43.4</ele>
        <time>2013-08-22T11:39:02Z</time>
      </trkpt>
      <trkpt lat="47.22908" lon="-1.61997">
        <ele>42.3</ele>
        <time>2013-08-22T11:39:04Z</time>
      </trkpt>
      <trkpt lat="47.22911" lon="-1.61984">
        <ele>41.9</ele>
        <time>2013-08-22T11:39:05Z</time>
      </trkpt>
      <trkpt lat="47.22915" lon="-1.61971">
        <ele>41.8</ele>
        <time>2013-08-22T11:39:06Z</time>
      </trkpt>
      <trkpt lat="47.22918" lon="-1.61958">
        <ele>41.5</ele>
        <time>2013-08-22T11:39:07Z</time>
      </trkpt>
      <trkpt lat="47.22921" lon="-1.61945">
        <ele>41.3</ele>
        <time>2013-08-22T11:39:08Z</time>
      </trkpt>
      <trkpt lat="47.22927" lon="-1.6192">
        <ele>41.3</ele>
        <time>2013-08-22T11:39:10Z</time>
      </trkpt>
      <trkpt lat="47.2293" lon="-1.61907">
        <ele>41.8</ele>
        <time>2013-08-22T11:39:11Z</time>
      </trkpt>
      <trkpt lat="47.22933" lon="-1.61894">
        <ele>41.8</ele>
        <time>2013-08-22T11:39:12Z</time>
      </trkpt>
      <trkpt lat="47.22936" lon="-1.6188">
        <ele>41.7</ele>
        <time>2013-08-22T11:39:13Z</time>
      </trkpt>
      <trkpt lat="47.2294" lon="-1.61868">
        <ele>41.9</ele>
        <time>2013-08-22T11:39:14Z</time>
      </trkpt>
      <trkpt lat="47.22948" lon="-1.61845">
        <ele>40</ele>
        <time>2013-08-22T11:39:16Z</time>
      </trkpt>
      <trkpt lat="47.22959" lon="-1.61824">
        <ele>39.3</ele>
        <time>2013-08-22T11:39:18Z</time>
      </trkpt>
      <trkpt lat="47.22969" lon="-1.61805">
        <ele>39.1</ele>
        <time>2013-08-22T11:39:20Z</time>
      </trkpt>
      <trkpt lat="47.22979" lon="-1.61786">
        <ele>38.4</ele>
        <time>2013-08-22T11:39:22Z</time>
      </trkpt>
      <trkpt lat="47.22988" lon="-1.61767">
        <ele>37.6</ele>
        <time>2013-08-22T11:39:24Z</time>
      </trkpt>
      <trkpt lat="47.22995" lon="-1.61749">
        <ele>37.1</ele>
        <time>2013-08-22T11:39:26Z</time>
      </trkpt>
      <trkpt lat="47.22995" lon="-1.61732">
        <ele>36.7</ele>
        <time>2013-08-22T11:39:28Z</time>
      </trkpt>
      <trkpt lat="47.22994" lon="-1.61718">
        <ele>37.6</ele>
        <time>2013-08-22T11:39:30Z</time>
      </trkpt>
      <trkpt lat="47.22996" lon="-1.61704">
        <ele>38.1</ele>
        <time>2013-08-22T11:39:32Z</time>
      </trkpt>
      <trkpt lat="47.23001" lon="-1.6169">
        <ele>38</ele>
        <time>2013-08-22T11:39:34Z</time>
      </trkpt>
      <trkpt lat="47.23006" lon="-1.61678">
        <ele>38</ele>
        <time>2013-08-22T11:39:36Z</time>
      </trkpt>
      <trkpt lat="47.2301" lon="-1.61665">
        <ele>37.5</ele>
        <time>2013-08-22T11:39:38Z</time>
      </trkpt>
      <trkpt lat="47.23013" lon="-1.61651">
        <ele>36.5</ele>
        <time>2013-08-22T11:39:40Z</time>
      </trkpt>
      <trkpt lat="47.23018" lon="-1.61635">
        <ele>35.3</ele>
        <time>2013-08-22T11:39:42Z</time>
      </trkpt>
      <trkpt lat="47.23022" lon="-1.61619">
        <ele>34.8</ele>
        <time>2013-08-22T11:39:44Z</time>
      </trkpt>
      <trkpt lat="47.23027" lon="-1.61603">
        <ele>34.4</ele>
        <time>2013-08-22T11:39:46Z</time>
      </trkpt>
      <trkpt lat="47.23031" lon="-1.61588">
        <ele>34.3</ele>
        <time>2013-08-22T11:39:48Z</time>
      </trkpt>
      <trkpt lat="47.23035" lon="-1.61573">
        <ele>34.8</ele>
        <time>2013-08-22T11:39:50Z</time>
      </trkpt>
      <trkpt lat="47.2304" lon="-1.61557">
        <ele>35</ele>
        <time>2013-08-22T11:39:52Z</time>
      </trkpt>
      <trkpt lat="47.23045" lon="-1.61539">
        <ele>35.5</ele>
        <time>2013-08-22T11:39:54Z</time>
      </trkpt>
      <trkpt lat="47.23049" lon="-1.61522">
        <ele>35.9</ele>
        <time>2013-08-22T11:39:56Z</time>
      </trkpt>
      <trkpt lat="47.23051" lon="-1.61507">
        <ele>35.6</ele>
        <time>2013-08-22T11:39:58Z</time>
      </trkpt>
      <trkpt lat="47.23052" lon="-1.61493">
        <ele>35.7</ele>
        <time>2013-08-22T11:40:00Z</time>
      </trkpt>
      <trkpt lat="47.23052" lon="-1.61479">
        <ele>36.2</ele>
        <time>2013-08-22T11:40:02Z</time>
      </trkpt>
      <trkpt lat="47.23052" lon="-1.6146">
        <ele>36.3</ele>
        <time>2013-08-22T11:40:05Z</time>
      </trkpt>
      <trkpt lat="47.23054" lon="-1.61441">
        <ele>35.8</ele>
        <time>2013-08-22T11:40:08Z</time>
      </trkpt>
      <trkpt lat="47.23054" lon="-1.61424">
        <ele>35.9</ele>
        <time>2013-08-22T11:40:10Z</time>
      </trkpt>
      <trkpt lat="47.23055" lon="-1.61407">
        <ele>35.3</ele>
        <time>2013-08-22T11:40:12Z</time>
      </trkpt>
      <trkpt lat="47.23055" lon="-1.61392">
        <ele>35.3</ele>
        <time>2013-08-22T11:40:14Z</time>
      </trkpt>
      <trkpt lat="47.23055" lon="-1.61376">
        <ele>35.2</ele>
        <time>2013-08-22T11:40:16Z</time>
      </trkpt>
      <trkpt lat="47.23056" lon="-1.6136">
        <ele>34.7</ele>
        <time>2013-08-22T11:40:18Z</time>
      </trkpt>
      <trkpt lat="47.23056" lon="-1.61344">
        <ele>34.6</ele>
        <time>2013-08-22T11:40:20Z</time>
      </trkpt>
      <trkpt lat="47.23057" lon="-1.61327">
        <ele>33.5</ele>
        <time>2013-08-22T11:40:22Z</time>
      </trkpt>
      <trkpt lat="47.23059" lon="-1.6131">
        <ele>33.3</ele>
        <time>2013-08-22T11:40:24Z</time>
      </trkpt>
      <trkpt lat="47.2306" lon="-1.61292">
        <ele>33.5</ele>
        <time>2013-08-22T11:40:26Z</time>
      </trkpt>
      <trkpt lat="47.23063" lon="-1.61275">
        <ele>34.2</ele>
        <time>2013-08-22T11:40:28Z</time>
      </trkpt>
      <trkpt lat="47.23065" lon="-1.61258">
        <ele>34.6</ele>
        <time>2013-08-22T11:40:30Z</time>
      </trkpt>
      <trkpt lat="47.23067" lon="-1.61243">
        <ele>34.8</ele>
        <time>2013-08-22T11:40:32Z</time>
      </trkpt>
      <trkpt lat="47.23068" lon="-1.61228">
        <ele>34.4</ele>
        <time>2013-08-22T11:40:34Z</time>
      </trkpt>
      <trkpt lat="47.2307" lon="-1.61209">
        <ele>33.6</ele>
        <time>2013-08-22T11:40:36Z</time>
      </trkpt>
      <trkpt lat="47.23072" lon="-1.61191">
        <ele>33.9</ele>
        <time>2013-08-22T11:40:38Z</time>
      </trkpt>
      <trkpt lat="47.23072" lon="-1.61178">
        <ele>34.2</ele>
        <time>2013-08-22T11:40:40Z</time>
      </trkpt>
      <trkpt lat="47.23068" lon="-1.61162">
        <ele>34.1</ele>
        <time>2013-08-22T11:40:43Z</time>
      </trkpt>
      <trkpt lat="47.23063" lon="-1.61146">
        <ele>34.1</ele>
        <time>2013-08-22T11:40:46Z</time>
      </trkpt>
      <trkpt lat="47.23062" lon="-1.61132">
        <ele>34.3</ele>
        <time>2013-08-22T11:40:49Z</time>
      </trkpt>
      <trkpt lat="47.23063" lon="-1.61117">
        <ele>34.4</ele>
        <time>2013-08-22T11:40:52Z</time>
      </trkpt>
      <trkpt lat="47.23069" lon="-1.61107">
        <ele>34.2</ele>
        <time>2013-08-22T11:40:56Z</time>
      </trkpt>
      <trkpt lat="47.23079" lon="-1.61104">
        <ele>33.8</ele>
        <time>2013-08-22T11:41:01Z</time>
      </trkpt>
      <trkpt lat="47.23087" lon="-1.61096">
        <ele>33.9</ele>
        <time>2013-08-22T11:41:05Z</time>
      </trkpt>
      <trkpt lat="47.23095" lon="-1.61086">
        <ele>33.8</ele>
        <time>2013-08-22T11:41:08Z</time>
      </trkpt>
      <trkpt lat="47.23104" lon="-1.61074">
        <ele>33.6</ele>
        <time>2013-08-22T11:41:11Z</time>
      </trkpt>
      <trkpt lat="47.23113" lon="-1.61063">
        <ele>33.4</ele>
        <time>2013-08-22T11:41:14Z</time>
      </trkpt>
      <trkpt lat="47.23121" lon="-1.61053">
        <ele>33.4</ele>
        <time>2013-08-22T11:41:17Z</time>
      </trkpt>
      <trkpt lat="47.23128" lon="-1.61042">
        <ele>33.4</ele>
        <time>2013-08-22T11:41:20Z</time>
      </trkpt>
      <trkpt lat="47.23136" lon="-1.6103">
        <ele>33.1</ele>
        <time>2013-08-22T11:41:23Z</time>
      </trkpt>
      <trkpt lat="47.23144" lon="-1.61022">
        <ele>32.9</ele>
        <time>2013-08-22T11:41:26Z</time>
      </trkpt>
      <trkpt lat="47.23151" lon="-1.61013">
        <ele>32.7</ele>
        <time>2013-08-22T11:41:29Z</time>
      </trkpt>
      <trkpt lat="47.23153" lon="-1.60999">
        <ele>32.9</ele>
        <time>2013-08-22T11:41:31Z</time>
      </trkpt>
      <trkpt lat="47.2315" lon="-1.60986">
        <ele>33.8</ele>
        <time>2013-08-22T11:41:33Z</time>
      </trkpt>
      <trkpt lat="47.23152" lon="-1.60968">
        <ele>34.8</ele>
        <time>2013-08-22T11:41:36Z</time>
      </trkpt>
      <trkpt lat="47.23146" lon="-1.60956">
        <ele>34.6</ele>
        <time>2013-08-22T11:41:40Z</time>
      </trkpt>
      <trkpt lat="47.23138" lon="-1.60944">
        <ele>34.6</ele>
        <time>2013-08-22T11:41:43Z</time>
      </trkpt>
      <trkpt lat="47.23134" lon="-1.6093">
        <ele>34.3</ele>
        <time>2013-08-22T11:41:46Z</time>
      </trkpt>
      <trkpt lat="47.2314" lon="-1.60918">
        <ele>33.2</ele>
        <time>2013-08-22T11:41:51Z</time>
      </trkpt>
      <trkpt lat="47.23148" lon="-1.60909">
        <ele>32.7</ele>
        <time>2013-08-22T11:41:55Z</time>
      </trkpt>
      <trkpt lat="47.23157" lon="-1.60904">
        <ele>32.3</ele>
        <time>2013-08-22T11:41:59Z</time>
      </trkpt>
      <trkpt lat="47.23165" lon="-1.60894">
        <ele>32.2</ele>
        <time>2013-08-22T11:42:06Z</time>
      </trkpt>
      <trkpt lat="47.23161" lon="-1.60878">
        <ele>32.6</ele>
        <time>2013-08-22T11:42:11Z</time>
      </trkpt>
      <trkpt lat="47.23156" lon="-1.60863">
        <ele>33.1</ele>
        <time>2013-08-22T11:42:15Z</time>
      </trkpt>
      <trkpt lat="47.23152" lon="-1.60851">
        <ele>33.6</ele>
        <time>2013-08-22T11:42:18Z</time>
      </trkpt>
      <trkpt lat="47.23146" lon="-1.60836">
        <ele>34.1</ele>
        <time>2013-08-22T11:42:21Z</time>
      </trkpt>
      <trkpt lat="47.23142" lon="-1.60821">
        <ele>34.6</ele>
        <time>2013-08-22T11:42:24Z</time>
      </trkpt>
      <trkpt lat="47.23137" lon="-1.60806">
        <ele>35</ele>
        <time>2013-08-22T11:42:27Z</time>
      </trkpt>
      <trkpt lat="47.23131" lon="-1.6079">
        <ele>35.5</ele>
        <time>2013-08-22T11:42:30Z</time>
      </trkpt>
      <trkpt lat="47.23126" lon="-1.60775">
        <ele>36</ele>
        <time>2013-08-22T11:42:33Z</time>
      </trkpt>
      <trkpt lat="47.2312" lon="-1.60761">
        <ele>36.5</ele>
        <time>2013-08-22T11:42:36Z</time>
      </trkpt>
      <trkpt lat="47.23115" lon="-1.60747">
        <ele>36.8</ele>
        <time>2013-08-22T11:42:39Z</time>
      </trkpt>
      <trkpt lat="47.23111" lon="-1.60734">
        <ele>37</ele>
        <time>2013-08-22T11:42:42Z</time>
      </trkpt>
      <trkpt lat="47.23104" lon="-1.60721">
        <ele>37.2</ele>
        <time>2013-08-22T11:42:46Z</time>
      </trkpt>
      <trkpt lat="47.23094" lon="-1.60727">
        <ele>37.8</ele>
        <time>2013-08-22T11:42:52Z</time>
      </trkpt>
      <trkpt lat="47.23085" lon="-1.60735">
        <ele>37.8</ele>
        <time>2013-08-22T11:42:56Z</time>
      </trkpt>
      <trkpt lat="47.23077" lon="-1.60727">
        <ele>37.8</ele>
        <time>2013-08-22T11:43:00Z</time>
      </trkpt>
      <trkpt lat="47.23074" lon="-1.60714">
        <ele>38</ele>
        <time>2013-08-22T11:43:03Z</time>
      </trkpt>
      <trkpt lat="47.23072" lon="-1.60697">
        <ele>38.1</ele>
        <time>2013-08-22T11:43:06Z</time>
      </trkpt>
      <trkpt lat="47.2307" lon="-1.60683">
        <ele>38.2</ele>
        <time>2013-08-22T11:43:09Z</time>
      </trkpt>
      <trkpt lat="47.23073" lon="-1.6067">
        <ele>38.4</ele>
        <time>2013-08-22T11:43:12Z</time>
      </trkpt>
      <trkpt lat="47.23077" lon="-1.60652">
        <ele>38.6</ele>
        <time>2013-08-22T11:43:29Z</time>
      </trkpt>
      <trkpt lat="47.23081" lon="-1.60664">
        <ele>39.4</ele>
        <time>2013-08-22T11:48:37Z</time>
      </trkpt>
      <trkpt lat="47.23082" lon="-1.60679">
        <ele>38.9</ele>
        <time>2013-08-22T11:52:11Z</time>
      </trkpt>
      <trkpt lat="47.23082" lon="-1.60665">
        <ele>36.9</ele>
        <time>2013-08-22T11:52:34Z</time>
      </trkpt>
      <trkpt lat="47.23088" lon="-1.60653">
        <ele>35.2</ele>
        <time>2013-08-22T11:52:44Z</time>
      </trkpt>
      <trkpt lat="47.23092" lon="-1.60641">
        <ele>34.3</ele>
        <time>2013-08-22T11:52:53Z</time>
      </trkpt>
      <trkpt lat="47.23088" lon="-1.60629">
        <ele>39.2</ele>
        <time>2013-08-22T11:53:09Z</time>
      </trkpt>
      <trkpt lat="47.23089" lon="-1.60642">
        <ele>39.4</ele>
        <time>2013-08-22T11:53:31Z</time>
      </trkpt>
      <trkpt lat="47.23092" lon="-1.60655">
        <ele>37.9</ele>
        <time>2013-08-22T11:53:46Z</time>
      </trkpt>
      <trkpt lat="47.23084" lon="-1.60661">
        <ele>35.2</ele>
        <time>2013-08-22T11:55:12Z</time>
      </trkpt>
      <trkpt lat="47.23079" lon="-1.6065">
        <ele>36.5</ele>
        <time>2013-08-22T11:55:36Z</time>
      </trkpt>
      <trkpt lat="47.23079" lon="-1.60651">
        <ele>36.6</ele>
        <time>2013-08-22T11:55:41Z</time>
      </trkpt>
      <trkpt lat="47.23079" lon="-1.60651">
        <ele>36.6</ele>
        <time>2013-08-22T11:55:41Z</time>
      </trkpt>
    </trkseg>
  </trk>
</gpx>